Observation Tools

Eastern redbud Photo courtesy of Steve Baskauf, Vanderbilt University, bioimages.vanderbilt.edu.

Eastern redbud (Cercis canadensis)


Plant Family: Pea (Fabaceae)
Project BudBurst Plant Group: Deciduous Trees and Shrubs

Identification Hints: Eastern redbuds are small trees or large shrubs found throughout the eastern United States. A redbudcan grow up to 30 feet tall. The leaves of the Eastern redbud are distinctly heart-shaped and softlooking. The flowers are very showy and come in various shades of magenta. The flowers emerge before the leaves in the spring. Eastern redbuds are often encountered as landscape plants but also in southernforests as understory plants.

Did you Know? Eastern redbud fruits are bean-shaped flat, green pods, approximately 3.5 inches long, which change to a brown color when mature. The seed pods generally contain 4-10 small, hard brownish colored seeds. In wild populations, you might find Eastern redbud trees to be more numerous on south-facing slopes because they receive more sunlight.


Live Map for Eastern redbud

Other years available for viewing:

Below you can view all observations that have been reported in for Eastern redbud (If the map below is empty then there have not been any observations reported.)

Use the navigation buttons on the left to zoom in/out and pan around. Click on each place marker to get detail information about that observation.

Leaf/Needles/Stalk = Leaf/Needles/Stalk Flower = Flower Pollen = Pollen Fruiting = Fruiting Color = Color

--Back to Top--

close help window button

The table below displays all the data that has been submitted to Project BudBurst. By default, the data is sorted by the date on which the phenophase occurred. Clicking the up and down arrows next to each column name allows you to sort on any value. If there have been more than 10 observations submitted, you can choose how many to display at a time using the "Show __ entries" control. You can also page through the data using the previous and next buttons at the bottom right of the table.

The Search box allows you to search all of the data. Searching by date, species, phenophase, etc. is easy—just start typing and the table will immediately change to contain only observations that contain your search phrase. Do you want to see only 2012 observations? Just type "2012" in the search box. Only want to see maples? Enter "Acer." You can combine searches, too! Searching for "acer 2012" will narrow your results to only the maples that were observed in 2012 (assuming that any observations exist, of course).

Once you have your results in the order desired, you can use any of the buttons above the search box to copy the results to the clipboard; save them as a text, or spreadsheet; or even print them from your browser!

Observational data for Eastern redbud:

help button
Date Contributor Common Name Species Phenophase Latitude Longitude Obs#
Fri Sep 23 00:00:00 GMT 2011 youngkwy@aol.co, Eastern redbud Cercis canadensis Leaves Changing Color (Early) 38.810000000000000 -77.050000000000000 13404
Mon Jan 30 00:00:00 GMT 2012 sonyaguidry@yahoo.com Eastern redbud Cercis canadensis Flowers (Early) 29.042400000000000 -80.939500000000000 14044
Wed Mar 21 00:00:00 GMT 2012 rang Eastern redbud Cercis canadensis Flowers (Early) 39.817200000000000 -76.908800000000000 14368
Fri Mar 23 00:00:00 GMT 2012 lynne Eastern redbud Cercis canadensis Flowers (Early) 43.100000000000000 -88.360000000000000 14429
Sun Apr 08 00:00:00 GMT 2012 lynne Eastern redbud Cercis canadensis Flowers (Middle) 43.100000000000000 -88.360000000000000 14840
Thu Sep 27 00:00:00 GMT 2012 kshasty Eastern redbud Cercis canadensis Leaves Changing Color (Early) 35.640600000000000 -79.870600000000000 16755
Mon Feb 25 00:00:00 GMT 2013 alyvinson Eastern redbud Cercis canadensis Flowers (Early) 29.651600000000000 -82.324800000000000 18073
Tue Mar 26 00:00:00 GMT 2013 allisons Eastern redbud Cercis canadensis Flowers (Early) 37.229600000000000 -80.413900000000000 18330
Wed Mar 27 00:00:00 GMT 2013 melanied Eastern redbud Cercis canadensis First Flower 34.149400000000000 -77.920900000000000 18487
Thu Apr 04 00:00:00 GMT 2013 melanied Eastern redbud Cercis canadensis Full Flower 34.149400000000000 -77.920900000000000 18488
Thu Apr 04 00:00:00 GMT 2013 bmccalli Eastern redbud Cercis canadensis Bud Burst 39.164600000000000 -86.514800000000000 18552
Wed Mar 27 00:00:00 GMT 2013 bmccalli Eastern redbud Cercis canadensis Bud Burst 39.164800000000000 -86.514200000000000 18551
Fri Mar 08 00:00:00 GMT 2013 ahublar7 Eastern redbud Cercis canadensis Bud Burst 39.164200000000000 -86.512100000000000 18541
Tue Mar 26 00:00:00 GMT 2013 opankrat Eastern redbud Cercis canadensis Bud Burst 39.165300000000000 -86.526400000000000 18586
Tue Mar 26 00:00:00 GMT 2013 opankrat Eastern redbud Cercis canadensis Bud Burst 39.165300000000000 -86.526400000000000 18585
Tue Mar 26 00:00:00 GMT 2013 opankrat Eastern redbud Cercis canadensis First Leaf 39.165300000000000 -86.526400000000000 18588
Sat Mar 30 00:00:00 GMT 2013 sebenrot Eastern redbud Cercis canadensis Fruit (Late) 39.168500000000000 -86.507400000000000 18604
Wed Mar 27 00:00:00 GMT 2013 akbiddle Eastern redbud Cercis canadensis Leaves Unfolding (Middle) 39.148900000000000 -86.526900000000000 18613
Fri Apr 05 00:00:00 GMT 2013 AimeeYousey Eastern redbud Cercis canadensis Flowers (Early) 35.226200000000000 -97.435000000000000 18716
Thu Apr 04 00:00:00 GMT 2013 AimeeYousey Eastern redbud Cercis canadensis Flowers (Middle) 35.226200000000000 -97.435000000000000 18762
Thu Apr 11 00:00:00 GMT 2013 ncmns Eastern redbud Cercis canadensis Leaves Unfolding (Early) 35.782800000000000 -78.639300000000000 18794
Wed Apr 10 00:00:00 GMT 2013 Mango55 Eastern redbud Cercis canadensis Bud Burst 40.208200000000000 -76.771900000000000 18781
Thu Apr 11 00:00:00 GMT 2013 adfitzgerald@woodlawnschool.org_Env_Studies_2013_reporter11 Eastern redbud Cercis canadensis Bud Burst 35.543200000000000 -80.847300000000000 18805
Thu Apr 11 00:00:00 GMT 2013 mareseatoats Eastern redbud Cercis canadensis First Flower 38.020100000000000 -78.634400000000000 18858
Sat Apr 13 00:00:00 GMT 2013 patchrenka Eastern redbud Cercis canadensis Flowers (Early) 41.410000000000000 -86.150000000000000 18885
Sat Apr 13 00:00:00 GMT 2013 jerribitner Eastern redbud Cercis canadensis Bud Burst 40.018100000000000 -76.880000000000000 18922
Fri Apr 19 00:00:00 GMT 2013 jerribitner Eastern redbud Cercis canadensis First Leaf 40.018100000000000 -76.880000000000000 19036
Sat Apr 20 00:00:00 GMT 2013 ncmns Eastern redbud Cercis canadensis Leaves Unfolding (Middle) 35.772100000000000 -78.638600000000000 19038
Sat Apr 20 00:00:00 GMT 2013 ncmns Eastern redbud Cercis canadensis Flowers (Late) 35.772100000000000 -78.638600000000000 19039
Sun Apr 21 00:00:00 GMT 2013 Mango55 Eastern redbud Cercis canadensis Full Flower 40.208200000000000 -76.771900000000000 19105
Thu Apr 18 00:00:00 GMT 2013 Mango55 Eastern redbud Cercis canadensis First Flower 40.208200000000000 -76.771900000000000 19104
Thu Apr 18 00:00:00 GMT 2013 nflower Eastern redbud Cercis canadensis Full Flower 40.371500000000000 -75.352100000000000 19121
Thu Apr 25 00:00:00 GMT 2013 PCILBatavia Eastern redbud Cercis canadensis Bud Burst 41.850000000000000 -88.312600000000000 19153
Fri Apr 26 00:00:00 GMT 2013 celiac Eastern redbud Cercis canadensis Bud Burst 41.744000000000000 -74.086000000000000 19207
Sat Apr 13 00:00:00 GMT 2013 ncmns Eastern redbud Cercis canadensis Leaves Unfolding (Early) 35.811700000000000 -78.713900000000000 19371
Sat Mar 30 00:00:00 GMT 2013 ncmns Eastern redbud Cercis canadensis Leaves Unfolding (Early) 35.811700000000000 -78.713900000000000 19364
Sat Apr 20 00:00:00 GMT 2013 ncmns Eastern redbud Cercis canadensis Leaves Unfolding (Middle) 35.782300000000000 -78.639500000000000 19390
Sat Apr 27 00:00:00 GMT 2013 ncmns Eastern redbud Cercis canadensis Leaves Unfolding (Late) 35.811700000000000 -78.713900000000000 19381
Thu Apr 11 00:00:00 GMT 2013 LenChenfeld Eastern redbud Cercis canadensis Bud Burst 41.445200000000000 -72.412700000000000 19399
Sun Apr 21 00:00:00 GMT 2013 LenChenfeld Eastern redbud Cercis canadensis First Flower 41.445200000000000 -72.412700000000000 19400
Thu Apr 18 00:00:00 GMT 2013 thelilem Eastern redbud Cercis canadensis Bud Burst 41.747100000000000 -72.690400000000000 19499
Tue Apr 23 00:00:00 GMT 2013 thelilem Eastern redbud Cercis canadensis First Leaf 41.747100000000000 -72.690400000000000 19500
Sun Apr 21 00:00:00 GMT 2013 jerribitner Eastern redbud Cercis canadensis Full Flower 40.018100000000000 -76.880000000000000 19719
Fri Apr 26 00:00:00 GMT 2013 SchoppFamily Eastern redbud Cercis canadensis Bud Burst 40.808100000000000 -89.622900000000000 19740
Sat Apr 27 00:00:00 GMT 2013 SchoppFamily Eastern redbud Cercis canadensis First Flower 40.808100000000000 -89.622900000000000 19741
Sat May 04 00:00:00 GMT 2013 SchoppFamily Eastern redbud Cercis canadensis Full Flower 40.808100000000000 -89.622900000000000 19742
Sun Apr 14 00:00:00 GMT 2013 jls1107 Eastern redbud Cercis canadensis Bud Burst 41.000000000000000 -72.000000000000000 19818
Thu Apr 18 00:00:00 GMT 2013 jls1107 Eastern redbud Cercis canadensis First Leaf 41.000000000000000 -72.000000000000000 19819
Sun Apr 21 00:00:00 GMT 2013 jls1107 Eastern redbud Cercis canadensis All Leaves Unfolded 41.000000000000000 -72.000000000000000 19820
Wed May 01 00:00:00 GMT 2013 jls1107 Eastern redbud Cercis canadensis First Flower 41.000000000000000 -72.000000000000000 19821
Mon May 06 00:00:00 GMT 2013 SchoppFamily Eastern redbud Cercis canadensis First Leaf 40.808100000000000 -89.622900000000000 19933
Wed May 01 00:00:00 GMT 2013 Mango55 Eastern redbud Cercis canadensis First Leaf 40.208200000000000 -76.771900000000000 20009
Mon May 06 00:00:00 GMT 2013 centralNY Eastern redbud Cercis canadensis Full Flower 43.041000000000000 -76.212900000000000 20027
Wed May 08 00:00:00 GMT 2013 celiac Eastern redbud Cercis canadensis Full Flower 41.744000000000000 -74.086000000000000 20346
Sat May 11 00:00:00 GMT 2013 Mango55 Eastern redbud Cercis canadensis All Leaves Unfolded 40.208200000000000 -76.771900000000000 20299
Wed May 15 00:00:00 GMT 2013 allib001 Eastern redbud Cercis canadensis Full Flower 45.053700000000000 -92.812700000000000 20420
Mon May 20 00:00:00 GMT 2013 allib001 Eastern redbud Cercis canadensis First Leaf 45.053700000000000 -92.812700000000000 20610
Wed May 22 00:00:00 GMT 2013 kayrihavens Eastern redbud Cercis canadensis Flowers (Late) 42.145100000000000 -87.786000000000000 20690
Fri May 24 00:00:00 GMT 2013 jerribitner Eastern redbud Cercis canadensis All Leaves Unfolded 40.018100000000000 -76.880000000000000 20723
Fri May 10 00:00:00 GMT 2013 centralNY Eastern redbud Cercis canadensis First Leaf 43.041000000000000 -76.212900000000000 20726
Tue May 14 00:00:00 GMT 2013 centralNY Eastern redbud Cercis canadensis All Leaves Unfolded 43.041000000000000 -76.212900000000000 20727
Fri Mar 22 00:00:00 GMT 2013 Angelyn Eastern redbud Cercis canadensis Bud Burst 35.619100000000000 -82.765100000000000 20747
Wed Apr 17 00:00:00 GMT 2013 Angelyn Eastern redbud Cercis canadensis First Leaf 35.619100000000000 -82.765100000000000 20748
Thu Apr 25 00:00:00 GMT 2013 Angelyn Eastern redbud Cercis canadensis All Leaves Unfolded 35.619100000000000 -82.765100000000000 20749
Thu Apr 11 00:00:00 GMT 2013 Angelyn Eastern redbud Cercis canadensis First Flower 35.619100000000000 -82.765100000000000 20750
Sat Apr 13 00:00:00 GMT 2013 Angelyn Eastern redbud Cercis canadensis Full Flower 35.619100000000000 -82.765100000000000 20751
Fri May 31 00:00:00 GMT 2013 allib001 Eastern redbud Cercis canadensis All Leaves Unfolded 45.053700000000000 -92.812700000000000 20919
Sat May 18 00:00:00 GMT 2013 KatrinaMeehan Eastern redbud Cercis canadensis Full Flower 44.456100000000000 -93.150100000000000 20926
Tue Apr 30 00:00:00 GMT 2013 BeverlyT Eastern redbud Cercis canadensis First Leaf 39.483400000000000 -84.700800000000000 21147
Fri May 17 00:00:00 GMT 2013 BeverlyT Eastern redbud Cercis canadensis All Leaves Unfolded 39.483400000000000 -84.700800000000000 21148
Mon Apr 22 00:00:00 GMT 2013 BeverlyT Eastern redbud Cercis canadensis First Flower 39.483400000000000 -84.700800000000000 21149
Fri Apr 26 00:00:00 GMT 2013 BeverlyT Eastern redbud Cercis canadensis Full Flower 39.483400000000000 -84.700800000000000 21150
Sat Jun 15 00:00:00 GMT 2013 KatrinaMeehan Eastern redbud Cercis canadensis All Leaves Unfolded 44.456100000000000 -93.150100000000000 21524
Tue Sep 10 00:00:00 GMT 2013 usbg Eastern redbud Cercis canadensis Fruit (Middle) 38.888100000000000 -77.012900000000000 22001
Sat Sep 14 00:00:00 GMT 2013 Clebeau Eastern redbud Cercis canadensis Leaves Changing Color (Early) 38.888000000000000 -77.014200000000000 22053
Sat Sep 14 00:00:00 GMT 2013 jocelynbethany Eastern redbud Cercis canadensis Leaves Changing Color (Early) 38.888000000000000 -77.014200000000000 22072
Tue Sep 24 00:00:00 GMT 2013 delgadog Eastern redbud Cercis canadensis Leaves Changing Color (Early) 42.816300000000000 -73.918400000000000 22117
Sat Oct 19 00:00:00 GMT 2013 usbg Eastern redbud Cercis canadensis Leaves Changing Color (Late) 38.888100000000000 -77.012900000000000 22632
Sat Oct 19 00:00:00 GMT 2013 usbg Eastern redbud Cercis canadensis Leaves Changing Color (Middle) 38.888100000000000 -77.012900000000000 22655
Sat Oct 19 00:00:00 GMT 2013 usbg Eastern redbud Cercis canadensis Leaves Changing Color (Early) 38.888100000000000 -77.012900000000000 22641
Sat Oct 19 00:00:00 GMT 2013 usbg Eastern redbud Cercis canadensis Leaves Changing Color (Early) 38.888100000000000 -77.012900000000000 22620
Sun Oct 20 00:00:00 GMT 2013 centralNY Eastern redbud Cercis canadensis Full Fruiting 43.041000000000000 -76.212900000000000 22684
Sun Oct 20 00:00:00 GMT 2013 centralNY Eastern redbud Cercis canadensis 50% Color 43.041000000000000 -76.212900000000000 22685
Fri Oct 18 00:00:00 GMT 2013 nflower Eastern redbud Cercis canadensis 50% Color 40.371500000000000 -75.352100000000000 22671
Sun Oct 20 00:00:00 GMT 2013 Nectarlane Eastern redbud Cercis canadensis 50% Leaf Fall 40.168200000000000 -74.813500000000000 22677
Mon Oct 21 00:00:00 GMT 2013 Budburstastor303 Eastern redbud Cercis canadensis Leaves Changing Color (Early) 42.034000000000000 -87.690800000000000 22721
Sat Oct 26 00:00:00 GMT 2013 centralNY Eastern redbud Cercis canadensis 50% Leaf Fall 43.041000000000000 -76.212900000000000 22798
Mon Oct 28 00:00:00 GMT 2013 hayesj3@central.edu Eastern redbud Cercis canadensis Leaves Changing Color (Late) 41.404600000000000 -92.928600000000000 22815
Sat Nov 02 00:00:00 GMT 2013 usbg Eastern redbud Cercis canadensis Leaves Dropping (Middle) 38.888000000000000 -77.012900000000000 23003
Sat Nov 02 00:00:00 GMT 2013 ncmns Eastern redbud Cercis canadensis Leaves Changing Color (Late) 35.811700000000000 -78.713900000000000 23049
Thu Nov 07 00:00:00 GMT 2013 greendragon Eastern redbud Cercis canadensis 50% Leaf Fall 37.662400000000000 -89.250700000000000 23086
Mon Nov 04 00:00:00 GMT 2013 srserrat Eastern redbud Cercis canadensis 50% Color 39.165500000000000 -86.514300000000000 23578
Sat Nov 09 00:00:00 GMT 2013 srserrat Eastern redbud Cercis canadensis 50% Leaf Fall 39.165500000000000 -86.514300000000000 23579
Mon Oct 07 00:00:00 GMT 2013 srserrat Eastern redbud Cercis canadensis 50% Color 39.165200000000000 -86.512200000000000 23576
Sat Nov 09 00:00:00 GMT 2013 srserrat Eastern redbud Cercis canadensis 50% Leaf Fall 39.165200000000000 -86.512200000000000 23577
Tue Nov 05 00:00:00 GMT 2013 AmyEsparza Eastern redbud Cercis canadensis 50% Color 39.167800000000000 -86.512100000000000 23621
Sun Nov 10 00:00:00 GMT 2013 AmyEsparza Eastern redbud Cercis canadensis 50% Leaf Fall 39.167800000000000 -86.512100000000000 23622
Tue Sep 03 00:00:00 GMT 2013 simonejones Eastern redbud Cercis canadensis Bud Burst 39.170800000000000 -86.512400000000000 23656
Thu Oct 24 00:00:00 GMT 2013 simonejones Eastern redbud Cercis canadensis 50% Color 39.170800000000000 -86.512400000000000 23657
Mon Oct 28 00:00:00 GMT 2013 simonejones Eastern redbud Cercis canadensis 50% Leaf Fall 39.170800000000000 -86.512400000000000 23658
Sat Oct 19 00:00:00 GMT 2013 robinv1_Washington_College_reporter30 Eastern redbud Cercis canadensis 50% Color 39.219200000000000 -76.069600000000000 24185
Mon Nov 18 00:00:00 GMT 2013 robinv1_Washington_College_reporter30 Eastern redbud Cercis canadensis 50% Leaf Fall 39.219200000000000 -76.069600000000000 24186
Thu Jan 16 00:00:00 GMT 2014 ncmns Eastern redbud Cercis canadensis Leaves Unfolding (None) 35.810800000000000 -78.715100000000000 24717
Thu Jan 16 00:00:00 GMT 2014 ncmns Eastern redbud Cercis canadensis Leaves Changing Color (None) 35.810800000000000 -78.715100000000000 24718
Thu Jan 16 00:00:00 GMT 2014 ncmns Eastern redbud Cercis canadensis Leaves Dropping (Late) 35.810800000000000 -78.715100000000000 24719
Thu Jan 16 00:00:00 GMT 2014 ncmns Eastern redbud Cercis canadensis Flowers (None) 35.810800000000000 -78.715100000000000 24720
Thu Jan 16 00:00:00 GMT 2014 ncmns Eastern redbud Cercis canadensis Fruit (None) 35.810800000000000 -78.715100000000000 24721
Mon May 06 00:00:00 GMT 2013 palaback Eastern redbud Cercis canadensis Leaves Unfolding (Early) 39.932600000000000 -75.213200000000000 24879
Mon May 06 00:00:00 GMT 2013 palaback Eastern redbud Cercis canadensis Leaves Changing Color (None) 39.932600000000000 -75.213200000000000 24880
Mon May 06 00:00:00 GMT 2013 palaback Eastern redbud Cercis canadensis Leaves Dropping (None) 39.932600000000000 -75.213200000000000 24881
Mon May 06 00:00:00 GMT 2013 palaback Eastern redbud Cercis canadensis Flowers (Middle) 39.932600000000000 -75.213200000000000 24882
Mon May 06 00:00:00 GMT 2013 palaback Eastern redbud Cercis canadensis Fruit (None) 39.932600000000000 -75.213200000000000 24883
Wed Nov 06 00:00:00 GMT 2013 lakekatherine Eastern redbud Cercis canadensis Leaves Unfolding (None) 41.678000000000000 -87.802600000000000 24934
Wed Nov 06 00:00:00 GMT 2013 lakekatherine Eastern redbud Cercis canadensis Leaves Changing Color (Late) 41.678000000000000 -87.802600000000000 24935
Wed Nov 06 00:00:00 GMT 2013 lakekatherine Eastern redbud Cercis canadensis Leaves Dropping (Late) 41.678000000000000 -87.802600000000000 24936
Wed Nov 06 00:00:00 GMT 2013 lakekatherine Eastern redbud Cercis canadensis Flowers (None) 41.678000000000000 -87.802600000000000 24937
Wed Nov 06 00:00:00 GMT 2013 lakekatherine Eastern redbud Cercis canadensis Fruit (None) 41.678000000000000 -87.802600000000000 24938
Mon Aug 26 00:00:00 GMT 2013 Angelyn Eastern redbud Cercis canadensis First Ripe Fruit 35.619100000000000 -82.765100000000000 25612
Mon Sep 09 00:00:00 GMT 2013 Angelyn Eastern redbud Cercis canadensis Full Fruiting 35.619100000000000 -82.765100000000000 25613
Mon Oct 07 00:00:00 GMT 2013 Angelyn Eastern redbud Cercis canadensis 50% Color 35.619100000000000 -82.765100000000000 25614
Wed Oct 23 00:00:00 GMT 2013 Angelyn Eastern redbud Cercis canadensis 50% Leaf Fall 35.619100000000000 -82.765100000000000 25615
Sat Mar 22 00:00:00 GMT 2014 clipper327 Eastern redbud Cercis canadensis Leaves Unfolding (None) 39.583800000000000 -77.034400000000000 27391
Sat Mar 22 00:00:00 GMT 2014 clipper327 Eastern redbud Cercis canadensis Leaves Changing Color (None) 39.583800000000000 -77.034400000000000 27392
Sat Mar 22 00:00:00 GMT 2014 clipper327 Eastern redbud Cercis canadensis Leaves Dropping (None) 39.583800000000000 -77.034400000000000 27393
Sat Mar 22 00:00:00 GMT 2014 clipper327 Eastern redbud Cercis canadensis Flowers (None) 39.583800000000000 -77.034400000000000 27394
Sat Mar 22 00:00:00 GMT 2014 clipper327 Eastern redbud Cercis canadensis Fruit (None) 39.583800000000000 -77.034400000000000 27395
Sat Mar 15 00:00:00 GMT 2014 madzmado Eastern redbud Cercis canadensis Bud Burst 36.919300000000000 -88.522600000000000 27524
Thu Mar 27 00:00:00 GMT 2014 pghbotanicgarden Eastern redbud Cercis canadensis Leaves Unfolding (None) 40.417100000000000 -80.169300000000000 27603
Thu Mar 27 00:00:00 GMT 2014 pghbotanicgarden Eastern redbud Cercis canadensis Leaves Changing Color (None) 40.417100000000000 -80.169300000000000 27604
Thu Mar 27 00:00:00 GMT 2014 pghbotanicgarden Eastern redbud Cercis canadensis Leaves Dropping (None) 40.417100000000000 -80.169300000000000 27605
Thu Mar 27 00:00:00 GMT 2014 pghbotanicgarden Eastern redbud Cercis canadensis Flowers (None) 40.417100000000000 -80.169300000000000 27606
Thu Mar 27 00:00:00 GMT 2014 pghbotanicgarden Eastern redbud Cercis canadensis Fruit (None) 40.417100000000000 -80.169300000000000 27607
Tue Apr 01 00:00:00 GMT 2014 bhfirehock Eastern redbud Cercis canadensis Bud Burst 35.142200000000000 -89.914700000000000 28010
Wed Apr 02 00:00:00 GMT 2014 mgavazzi Eastern redbud Cercis canadensis First Flower 35.729700000000000 -78.813700000000000 28082
Thu Apr 03 00:00:00 GMT 2014 JSPARKMAN0005 Eastern redbud Cercis canadensis Leaves Unfolding (None) 37.457040000000000 -82.818770000000000 28059
Thu Apr 03 00:00:00 GMT 2014 JSPARKMAN0005 Eastern redbud Cercis canadensis Leaves Changing Color (None) 37.457040000000000 -82.818770000000000 28060
Thu Apr 03 00:00:00 GMT 2014 JSPARKMAN0005 Eastern redbud Cercis canadensis Leaves Dropping (None) 37.457040000000000 -82.818770000000000 28061
Thu Apr 03 00:00:00 GMT 2014 JSPARKMAN0005 Eastern redbud Cercis canadensis Flowers (None) 37.457040000000000 -82.818770000000000 28062
Thu Apr 03 00:00:00 GMT 2014 JSPARKMAN0005 Eastern redbud Cercis canadensis Fruit (None) 37.457040000000000 -82.818770000000000 28063
Thu Apr 03 00:00:00 GMT 2014 bhfirehock Eastern redbud Cercis canadensis Full Flower 35.142200000000000 -89.914700000000000 28133
Thu Apr 10 00:00:00 GMT 2014 Bngo_The_Francis_Parker_School_reporter16 Eastern redbud Cercis canadensis Leaves Unfolding (Middle) 32.791423000000000 -117.167816000000000 28713
Thu Apr 10 00:00:00 GMT 2014 Bngo_The_Francis_Parker_School_reporter16 Eastern redbud Cercis canadensis Leaves Changing Color (Middle) 32.791423000000000 -117.167816000000000 28714
Thu Apr 10 00:00:00 GMT 2014 Bngo_The_Francis_Parker_School_reporter16 Eastern redbud Cercis canadensis Leaves Dropping (Early) 32.791423000000000 -117.167816000000000 28715
Thu Apr 10 00:00:00 GMT 2014 Bngo_The_Francis_Parker_School_reporter16 Eastern redbud Cercis canadensis Flowers (None) 32.791423000000000 -117.167816000000000 28716
Thu Apr 10 00:00:00 GMT 2014 Bngo_The_Francis_Parker_School_reporter16 Eastern redbud Cercis canadensis Fruit (None) 32.791423000000000 -117.167816000000000 28717
Thu Apr 03 00:00:00 GMT 2014 lprice Eastern redbud Cercis canadensis Bud Burst 37.186750000000000 -86.100540000000000 28812
Sun Apr 06 00:00:00 GMT 2014 lprice Eastern redbud Cercis canadensis First Flower 37.186750000000000 -86.100540000000000 28813
Tue Apr 01 00:00:00 GMT 2014 kmoconnor Eastern redbud Cercis canadensis Bud Burst 38.491900000000000 -77.562700000000000 28872
Sat Apr 12 00:00:00 GMT 2014 kmoconnor Eastern redbud Cercis canadensis First Flower 38.491900000000000 -77.562700000000000 28873
Sat Apr 12 00:00:00 GMT 2014 greendragon Eastern redbud Cercis canadensis Bud Burst 37.662400000000000 -89.250700000000000 29235
Mon Apr 14 00:00:00 GMT 2014 kmoconnor Eastern redbud Cercis canadensis First Leaf 38.491900000000000 -77.562700000000000 29259
Mon Apr 14 00:00:00 GMT 2014 kmoconnor Eastern redbud Cercis canadensis Full Flower 38.491900000000000 -77.562700000000000 29260
Thu Apr 03 00:00:00 GMT 2014 kimladd Eastern redbud Cercis canadensis Leaves Unfolding (None) 39.175409000000000 -86.530173000000000 29137
Thu Apr 03 00:00:00 GMT 2014 kimladd Eastern redbud Cercis canadensis Leaves Changing Color (None) 39.175409000000000 -86.530173000000000 29138
Thu Apr 03 00:00:00 GMT 2014 kimladd Eastern redbud Cercis canadensis Leaves Dropping (None) 39.175409000000000 -86.530173000000000 29139
Thu Apr 03 00:00:00 GMT 2014 kimladd Eastern redbud Cercis canadensis Flowers (Early) 39.175409000000000 -86.530173000000000 29140
Thu Apr 03 00:00:00 GMT 2014 kimladd Eastern redbud Cercis canadensis Fruit (None) 39.175409000000000 -86.530173000000000 29141
Wed Apr 09 00:00:00 GMT 2014 nen Eastern redbud Cercis canadensis First Flower 38.100000000000000 -78.489600000000000 29327
Mon Apr 07 00:00:00 GMT 2014 bettyh Eastern redbud Cercis canadensis Bud Burst 38.920400000000000 -77.276500000000000 29528
Sun Apr 13 00:00:00 GMT 2014 bettyh Eastern redbud Cercis canadensis Full Flower 38.920400000000000 -77.276500000000000 29529
Wed Apr 16 00:00:00 GMT 2014 celiac Eastern redbud Cercis canadensis Bud Burst 41.744000000000000 -74.086000000000000 29559
Thu Apr 17 00:00:00 GMT 2014 greendragon Eastern redbud Cercis canadensis Full Flower 37.662400000000000 -89.250700000000000 29671
Fri Apr 11 00:00:00 GMT 2014 sengstrom_Lawrence_Academy_reporter4 Eastern redbud Cercis canadensis Bud Burst 42.603900000000000 -71.566200000000000 29697
Sun Apr 20 00:00:00 GMT 2014 Mango55 Eastern redbud Cercis canadensis Bud Burst 40.208200000000000 -76.771900000000000 29822
Fri Apr 18 00:00:00 GMT 2014 bhfirehock Eastern redbud Cercis canadensis All Leaves Unfolded 35.142200000000000 -89.914700000000000 30332
Tue Apr 01 00:00:00 GMT 2014 saldavis2000_University_of_Indianapolis_reporter2 Eastern redbud Cercis canadensis Bud Burst 39.708050000000000 -86.137350000000000 30440
Fri Apr 18 00:00:00 GMT 2014 saldavis2000_University_of_Indianapolis_reporter2 Eastern redbud Cercis canadensis First Leaf 39.708050000000000 -86.137350000000000 30441
Mon Apr 21 00:00:00 GMT 2014 saldavis2000_University_of_Indianapolis_reporter2 Eastern redbud Cercis canadensis First Flower 39.708050000000000 -86.137350000000000 30442
Wed Apr 23 00:00:00 GMT 2014 Mango55 Eastern redbud Cercis canadensis First Flower 40.208200000000000 -76.771900000000000 30547
Sun Apr 27 00:00:00 GMT 2014 saldavis2000_University_of_Indianapolis_reporter3 Eastern redbud Cercis canadensis Bud Burst 39.708050000000000 -86.137350000000000 30692
Sun Apr 27 00:00:00 GMT 2014 leisteda Eastern redbud Cercis canadensis Bud Burst 40.449010000000000 -80.203160000000000 30702
Mon Apr 21 00:00:00 GMT 2014 nen Eastern redbud Cercis canadensis First Leaf 38.100000000000000 -78.489600000000000 30705
Tue Apr 22 00:00:00 GMT 2014 laurob_St._John's_University__reporter13 Eastern redbud Cercis canadensis Bud Burst 40.721400000000000 -73.793200000000000 30857
Thu Apr 24 00:00:00 GMT 2014 pghbotanicgarden Eastern redbud Cercis canadensis Bud Burst 40.417200000000000 -80.169800000000000 31279
Thu May 01 00:00:00 GMT 2014 Mango55 Eastern redbud Cercis canadensis Full Flower 40.208200000000000 -76.771900000000000 31297
Sat May 03 00:00:00 GMT 2014 celiac Eastern redbud Cercis canadensis First Leaf 41.744000000000000 -74.086000000000000 31374
Sat May 03 00:00:00 GMT 2014 celiac Eastern redbud Cercis canadensis First Flower 41.744000000000000 -74.086000000000000 31375
Sun May 04 00:00:00 GMT 2014 greendragon Eastern redbud Cercis canadensis All Leaves Unfolded 37.662400000000000 -89.250700000000000 31441
Mon May 05 00:00:00 GMT 2014 APadilla_Carl_Schurz_Park_-_Southern_End_5Z_reporter6 Eastern redbud Cercis canadensis First Leaf 40.775130000000000 -73.943700000000000 31461
Mon May 05 00:00:00 GMT 2014 APadilla_Carl_Schurz_Park_-_Southern_End_5Z_reporter6 Eastern redbud Cercis canadensis First Flower 40.775130000000000 -73.943700000000000 31462
Mon May 05 00:00:00 GMT 2014 APadilla_Carl_Schurz_Park_-_Southern_End_5Z_reporter2 Eastern redbud Cercis canadensis First Leaf 40.775130000000000 -73.943700000000000 31482
Mon May 05 00:00:00 GMT 2014 APadilla_Carl_Schurz_Park_-_Southern_End_5Z_reporter14 Eastern redbud Cercis canadensis First Leaf 40.775130000000000 -73.943700000000000 31478
Mon May 05 00:00:00 GMT 2014 APadilla_Carl_Schurz_Park_-_Southern_End_5Z_reporter14 Eastern redbud Cercis canadensis First Flower 40.775130000000000 -73.943700000000000 31479
Mon May 05 00:00:00 GMT 2014 APadilla_Carl_Schurz_Park_-_Southern_End_5Z_reporter9 Eastern redbud Cercis canadensis First Leaf 40.775130000000000 -73.943700000000000 31492
Mon May 05 00:00:00 GMT 2014 APadilla_Carl_Schurz_Park_-_Southern_End_5Z_reporter9 Eastern redbud Cercis canadensis First Flower 40.775130000000000 -73.943700000000000 31493
Mon May 05 00:00:00 GMT 2014 APadilla_Carl_Schurz_Park_-_Southern_End_5Z_reporter9 Eastern redbud Cercis canadensis First Leaf 40.775130000000000 -73.943700000000000 31490
Mon May 05 00:00:00 GMT 2014 APadilla_Carl_Schurz_Park_-_Southern_End_5Z_reporter9 Eastern redbud Cercis canadensis First Flower 40.775130000000000 -73.943700000000000 31491
Fri Apr 11 00:00:00 GMT 2014 mgavazzi Eastern redbud Cercis canadensis First Leaf 35.729700000000000 -78.813700000000000 31522
Mon Apr 21 00:00:00 GMT 2014 mgavazzi Eastern redbud Cercis canadensis All Leaves Unfolded 35.729700000000000 -78.813700000000000 31523
Sun Apr 06 00:00:00 GMT 2014 mgavazzi Eastern redbud Cercis canadensis Full Flower 35.729700000000000 -78.813700000000000 31524
Mon May 05 00:00:00 GMT 2014 APadilla_Carl_Schurz_Park_-_Southern_End_5Z_reporter5 Eastern redbud Cercis canadensis First Leaf 40.775130000000000 -73.943700000000000 31483
Mon May 05 00:00:00 GMT 2014 APadilla_Carl_Schurz_Park_-_Southern_End_5Z_reporter5 Eastern redbud Cercis canadensis First Flower 40.775130000000000 -73.943700000000000 31484
Tue May 06 00:00:00 GMT 2014 Mango55 Eastern redbud Cercis canadensis First Leaf 40.208200000000000 -76.771900000000000 31630
Mon May 05 00:00:00 GMT 2014 laurob_St._John's_University__reporter13 Eastern redbud Cercis canadensis First Leaf 40.721400000000000 -73.793200000000000 31635
Fri May 02 00:00:00 GMT 2014 laurob_St._John's_University__reporter13 Eastern redbud Cercis canadensis First Flower 40.721400000000000 -73.793200000000000 31636
Fri May 09 00:00:00 GMT 2014 celiac Eastern redbud Cercis canadensis Full Flower 41.744000000000000 -74.086000000000000 32116
Fri May 16 00:00:00 GMT 2014 leisteda Eastern redbud Cercis canadensis First Leaf 40.449010000000000 -80.203160000000000 32462
Fri May 09 00:00:00 GMT 2014 sengstrom_Lawrence_Academy_reporter4 Eastern redbud Cercis canadensis First Flower 42.603900000000000 -71.566200000000000 32484
Sun Apr 27 00:00:00 GMT 2014 leisteda Eastern redbud Cercis canadensis First Flower 40.449010000000000 -80.203160000000000 32969
Sat May 03 00:00:00 GMT 2014 leisteda Eastern redbud Cercis canadensis Full Flower 40.449010000000000 -80.203160000000000 32970
Sat May 24 00:00:00 GMT 2014 leisteda Eastern redbud Cercis canadensis All Leaves Unfolded 40.449010000000000 -80.203160000000000 32971
Sun Jun 01 00:00:00 GMT 2014 bayfawn Eastern redbud Cercis canadensis First Ripe Fruit 39.448260000000000 -76.267280000000000 33121
Thu May 15 00:00:00 GMT 2014 Mango55 Eastern redbud Cercis canadensis All Leaves Unfolded 40.208200000000000 -76.771900000000000 33169
Thu May 01 00:00:00 GMT 2014 ecm Eastern redbud Cercis canadensis Bud Burst 42.056500000000000 -80.103660000000000 33811
Thu May 15 00:00:00 GMT 2014 ecm Eastern redbud Cercis canadensis First Leaf 42.056500000000000 -80.103660000000000 33812
Sun May 18 00:00:00 GMT 2014 ecm Eastern redbud Cercis canadensis All Leaves Unfolded 42.056500000000000 -80.103660000000000 33813
Sat May 10 00:00:00 GMT 2014 ecm Eastern redbud Cercis canadensis First Flower 42.056500000000000 -80.103660000000000 33814
Mon May 12 00:00:00 GMT 2014 ecm Eastern redbud Cercis canadensis Full Flower 42.056500000000000 -80.103660000000000 33815
Sat Jun 07 00:00:00 GMT 2014 ecm Eastern redbud Cercis canadensis First Ripe Fruit 42.056500000000000 -80.103660000000000 33816
Sun Jun 08 00:00:00 GMT 2014 bayfawn Eastern redbud Cercis canadensis Full Fruiting 39.448260000000000 -76.267280000000000 34224
Mon Sep 01 00:00:00 GMT 2014 cbbartle Eastern redbud Cercis canadensis All Leaves Unfolded 39.167250000000000 -86.511950000000000 35174
Mon Sep 22 00:00:00 GMT 2014 mrsfrey Eastern redbud Cercis canadensis Leaves Unfolding (None) 41.131790000000000 -73.521880000000000 35637
Mon Sep 22 00:00:00 GMT 2014 mrsfrey Eastern redbud Cercis canadensis Leaves Changing Color (None) 41.131790000000000 -73.521880000000000 35638
Mon Sep 22 00:00:00 GMT 2014 mrsfrey Eastern redbud Cercis canadensis Leaves Dropping (None) 41.131790000000000 -73.521880000000000 35639
Mon Sep 22 00:00:00 GMT 2014 mrsfrey Eastern redbud Cercis canadensis Flowers (None) 41.131790000000000 -73.521880000000000 35640
Mon Sep 22 00:00:00 GMT 2014 mrsfrey Eastern redbud Cercis canadensis Fruit (Late) 41.131790000000000 -73.521880000000000 35641
Wed Sep 24 00:00:00 GMT 2014 KChapman Eastern redbud Cercis canadensis Leaves Unfolding (Late) 41.677778000000000 -87.802500000000000 35680
Wed Sep 24 00:00:00 GMT 2014 KChapman Eastern redbud Cercis canadensis Leaves Changing Color (None) 41.677778000000000 -87.802500000000000 35681
Wed Sep 24 00:00:00 GMT 2014 KChapman Eastern redbud Cercis canadensis Leaves Dropping (None) 41.677778000000000 -87.802500000000000 35682
Wed Sep 24 00:00:00 GMT 2014 KChapman Eastern redbud Cercis canadensis Flowers (None) 41.677778000000000 -87.802500000000000 35683
Wed Sep 24 00:00:00 GMT 2014 KChapman Eastern redbud Cercis canadensis Fruit (None) 41.677778000000000 -87.802500000000000 35684
Thu Oct 02 00:00:00 GMT 2014 celiac Eastern redbud Cercis canadensis Full Fruiting 41.744000000000000 -74.086000000000000 35928
Thu Oct 02 00:00:00 GMT 2014 celiac Eastern redbud Cercis canadensis 50% Color 41.744000000000000 -74.086000000000000 35929
Tue Oct 07 00:00:00 GMT 2014 jlsnyder335_4H_reporter25 Eastern redbud Cercis canadensis Leaves Unfolding (Late) 36.041550000000000 -79.377100000000000 36354
Tue Oct 07 00:00:00 GMT 2014 jlsnyder335_4H_reporter25 Eastern redbud Cercis canadensis Leaves Changing Color (Middle) 36.041550000000000 -79.377100000000000 36355
Tue Oct 07 00:00:00 GMT 2014 jlsnyder335_4H_reporter25 Eastern redbud Cercis canadensis Leaves Dropping (Early) 36.041550000000000 -79.377100000000000 36356
Tue Oct 07 00:00:00 GMT 2014 jlsnyder335_4H_reporter25 Eastern redbud Cercis canadensis Flowers (None) 36.041550000000000 -79.377100000000000 36357
Tue Oct 07 00:00:00 GMT 2014 jlsnyder335_4H_reporter25 Eastern redbud Cercis canadensis Fruit (None) 36.041550000000000 -79.377100000000000 36358
Wed Oct 08 00:00:00 GMT 2014 KChapman Eastern redbud Cercis canadensis Leaves Unfolding (Late) 41.677500000000000 -87.806667000000000 36431
Wed Oct 08 00:00:00 GMT 2014 KChapman Eastern redbud Cercis canadensis Leaves Changing Color (Early) 41.677500000000000 -87.806667000000000 36432
Wed Oct 08 00:00:00 GMT 2014 KChapman Eastern redbud Cercis canadensis Leaves Dropping (Early) 41.677500000000000 -87.806667000000000 36433
Wed Oct 08 00:00:00 GMT 2014 KChapman Eastern redbud Cercis canadensis Flowers (None) 41.677500000000000 -87.806667000000000 36434
Wed Oct 08 00:00:00 GMT 2014 KChapman Eastern redbud Cercis canadensis Fruit (None) 41.677500000000000 -87.806667000000000 36435
Wed Oct 08 00:00:00 GMT 2014 KChapman Eastern redbud Cercis canadensis Leaves Unfolding (Late) 41.677778000000000 -87.802500000000000 36421
Wed Oct 08 00:00:00 GMT 2014 KChapman Eastern redbud Cercis canadensis Leaves Changing Color (Early) 41.677778000000000 -87.802500000000000 36422
Wed Oct 08 00:00:00 GMT 2014 KChapman Eastern redbud Cercis canadensis Leaves Dropping (Early) 41.677778000000000 -87.802500000000000 36423
Wed Oct 08 00:00:00 GMT 2014 KChapman Eastern redbud Cercis canadensis Flowers (None) 41.677778000000000 -87.802500000000000 36424
Wed Oct 08 00:00:00 GMT 2014 KChapman Eastern redbud Cercis canadensis Fruit (None) 41.677778000000000 -87.802500000000000 36425
Mon Sep 22 00:00:00 GMT 2014 ccullen0009 Eastern redbud Cercis canadensis Bud Burst 32.931400000000000 -96.450940000000000 36818
Mon Sep 22 00:00:00 GMT 2014 ccullen0009 Eastern redbud Cercis canadensis First Leaf 32.931400000000000 -96.450940000000000 36819
Mon Sep 22 00:00:00 GMT 2014 ccullen0009 Eastern redbud Cercis canadensis All Leaves Unfolded 32.931400000000000 -96.450940000000000 36820
Mon Sep 22 00:00:00 GMT 2014 ccullen0009 Eastern redbud Cercis canadensis First Flower 32.931400000000000 -96.450940000000000 36821
Mon Sep 29 00:00:00 GMT 2014 ccullen0009 Eastern redbud Cercis canadensis Full Flower 32.931400000000000 -96.450940000000000 36822
Mon Sep 22 00:00:00 GMT 2014 ccullen0009 Eastern redbud Cercis canadensis Bud Burst 32.931400000000000 -96.450940000000000 36842
Mon Sep 22 00:00:00 GMT 2014 ccullen0009 Eastern redbud Cercis canadensis First Leaf 32.931400000000000 -96.450940000000000 36843
Mon Sep 22 00:00:00 GMT 2014 ccullen0009 Eastern redbud Cercis canadensis All Leaves Unfolded 32.931400000000000 -96.450940000000000 36844
Mon Sep 22 00:00:00 GMT 2014 ccullen0009 Eastern redbud Cercis canadensis First Flower 32.931400000000000 -96.450940000000000 36845
Mon Sep 29 00:00:00 GMT 2014 ccullen0009 Eastern redbud Cercis canadensis Full Flower 32.931400000000000 -96.450940000000000 36846
Mon Sep 22 00:00:00 GMT 2014 ccullen0009 Eastern redbud Cercis canadensis Leaves Unfolding (Early) 32.931400000000000 -96.450940000000000 36850
Mon Sep 22 00:00:00 GMT 2014 ccullen0009 Eastern redbud Cercis canadensis Leaves Changing Color (None) 32.931400000000000 -96.450940000000000 36851
Mon Sep 22 00:00:00 GMT 2014 ccullen0009 Eastern redbud Cercis canadensis Leaves Dropping (None) 32.931400000000000 -96.450940000000000 36852
Mon Sep 22 00:00:00 GMT 2014 ccullen0009 Eastern redbud Cercis canadensis Flowers (Early) 32.931400000000000 -96.450940000000000 36853
Mon Sep 22 00:00:00 GMT 2014 ccullen0009 Eastern redbud Cercis canadensis Fruit (None) 32.931400000000000 -96.450940000000000 36854
Mon Sep 22 00:00:00 GMT 2014 ccullen0009 Eastern redbud Cercis canadensis Leaves Unfolding (Early) 32.931400000000000 -96.450940000000000 36870
Mon Sep 22 00:00:00 GMT 2014 ccullen0009 Eastern redbud Cercis canadensis Leaves Changing Color (Early) 32.931400000000000 -96.450940000000000 36871
Mon Sep 22 00:00:00 GMT 2014 ccullen0009 Eastern redbud Cercis canadensis Leaves Dropping (None) 32.931400000000000 -96.450940000000000 36872
Mon Sep 22 00:00:00 GMT 2014 ccullen0009 Eastern redbud Cercis canadensis Flowers (Middle) 32.931400000000000 -96.450940000000000 36873
Mon Sep 22 00:00:00 GMT 2014 ccullen0009 Eastern redbud Cercis canadensis Fruit (None) 32.931400000000000 -96.450940000000000 36874
Mon Sep 22 00:00:00 GMT 2014 ccullen0009 Eastern redbud Cercis canadensis Leaves Unfolding (Early) 32.931400000000000 -96.450940000000000 36860
Mon Sep 22 00:00:00 GMT 2014 ccullen0009 Eastern redbud Cercis canadensis Leaves Changing Color (None) 32.931400000000000 -96.450940000000000 36861
Mon Sep 22 00:00:00 GMT 2014 ccullen0009 Eastern redbud Cercis canadensis Leaves Dropping (None) 32.931400000000000 -96.450940000000000 36862
Mon Sep 22 00:00:00 GMT 2014 ccullen0009 Eastern redbud Cercis canadensis Flowers (Middle) 32.931400000000000 -96.450940000000000 36863
Mon Sep 22 00:00:00 GMT 2014 ccullen0009 Eastern redbud Cercis canadensis Fruit (None) 32.931400000000000 -96.450940000000000 36864
Mon Sep 22 00:00:00 GMT 2014 ccullen0009 Eastern redbud Cercis canadensis Bud Burst 32.931400000000000 -96.450940000000000 36834
Mon Sep 22 00:00:00 GMT 2014 ccullen0009 Eastern redbud Cercis canadensis First Leaf 32.931400000000000 -96.450940000000000 36835
Mon Sep 22 00:00:00 GMT 2014 ccullen0009 Eastern redbud Cercis canadensis All Leaves Unfolded 32.931400000000000 -96.450940000000000 36836
Mon Sep 22 00:00:00 GMT 2014 ccullen0009 Eastern redbud Cercis canadensis First Flower 32.931400000000000 -96.450940000000000 36837
Mon Sep 22 00:00:00 GMT 2014 ccullen0009 Eastern redbud Cercis canadensis Bud Burst 32.931400000000000 -96.450940000000000 36826
Mon Sep 22 00:00:00 GMT 2014 ccullen0009 Eastern redbud Cercis canadensis First Leaf 32.931400000000000 -96.450940000000000 36827
Mon Sep 22 00:00:00 GMT 2014 ccullen0009 Eastern redbud Cercis canadensis All Leaves Unfolded 32.931400000000000 -96.450940000000000 36828
Mon Sep 22 00:00:00 GMT 2014 ccullen0009 Eastern redbud Cercis canadensis First Flower 32.931400000000000 -96.450940000000000 36829
Mon Sep 29 00:00:00 GMT 2014 ccullen0009 Eastern redbud Cercis canadensis Full Flower 32.931400000000000 -96.450940000000000 36838
Mon Sep 29 00:00:00 GMT 2014 ccullen0009 Eastern redbud Cercis canadensis Full Flower 32.931400000000000 -96.450940000000000 36830
Wed Oct 15 00:00:00 GMT 2014 KChapman Eastern redbud Cercis canadensis Leaves Unfolding (Late) 41.677778000000000 -87.802500000000000 37601
Wed Oct 15 00:00:00 GMT 2014 KChapman Eastern redbud Cercis canadensis Leaves Changing Color (Middle) 41.677778000000000 -87.802500000000000 37602
Wed Oct 15 00:00:00 GMT 2014 KChapman Eastern redbud Cercis canadensis Leaves Dropping (Early) 41.677778000000000 -87.802500000000000 37603
Wed Oct 15 00:00:00 GMT 2014 KChapman Eastern redbud Cercis canadensis Flowers (None) 41.677778000000000 -87.802500000000000 37604
Wed Oct 15 00:00:00 GMT 2014 KChapman Eastern redbud Cercis canadensis Fruit (None) 41.677778000000000 -87.802500000000000 37605
Wed Oct 15 00:00:00 GMT 2014 KChapman Eastern redbud Cercis canadensis Leaves Unfolding (Late) 41.677500000000000 -87.806667000000000 37606
Wed Oct 15 00:00:00 GMT 2014 KChapman Eastern redbud Cercis canadensis Leaves Changing Color (Late) 41.677500000000000 -87.806667000000000 37607
Wed Oct 15 00:00:00 GMT 2014 KChapman Eastern redbud Cercis canadensis Leaves Dropping (Early) 41.677500000000000 -87.806667000000000 37608
Wed Oct 15 00:00:00 GMT 2014 KChapman Eastern redbud Cercis canadensis Flowers (None) 41.677500000000000 -87.806667000000000 37609
Wed Oct 15 00:00:00 GMT 2014 KChapman Eastern redbud Cercis canadensis Fruit (None) 41.677500000000000 -87.806667000000000 37610
Thu Oct 16 00:00:00 GMT 2014 mrsfrey Eastern redbud Cercis canadensis 50% Color 41.131790000000000 -73.521880000000000 39123
Mon Oct 20 00:00:00 GMT 2014 celiac Eastern redbud Cercis canadensis 50% Leaf Fall 41.744000000000000 -74.086000000000000 39328
Wed Oct 29 00:00:00 GMT 2014 mrsfrey Eastern redbud Cercis canadensis 50% Leaf Fall 41.131790000000000 -73.521880000000000 39517
Wed Oct 22 00:00:00 GMT 2014 KChapman Eastern redbud Cercis canadensis Leaves Unfolding (Late) 41.677500000000000 -87.806667000000000 39728
Wed Oct 22 00:00:00 GMT 2014 KChapman Eastern redbud Cercis canadensis Leaves Changing Color (Late) 41.677500000000000 -87.806667000000000 39729
Wed Oct 22 00:00:00 GMT 2014 KChapman Eastern redbud Cercis canadensis Leaves Dropping (Middle) 41.677500000000000 -87.806667000000000 39730
Wed Oct 22 00:00:00 GMT 2014 KChapman Eastern redbud Cercis canadensis Flowers (None) 41.677500000000000 -87.806667000000000 39731
Wed Oct 22 00:00:00 GMT 2014 KChapman Eastern redbud Cercis canadensis Fruit (None) 41.677500000000000 -87.806667000000000 39732
Wed Oct 22 00:00:00 GMT 2014 KChapman Eastern redbud Cercis canadensis Leaves Unfolding (Late) 41.677780000000000 -87.802500000000000 39723
Wed Oct 22 00:00:00 GMT 2014 KChapman Eastern redbud Cercis canadensis Leaves Changing Color (Late) 41.677780000000000 -87.802500000000000 39724
Wed Oct 22 00:00:00 GMT 2014 KChapman Eastern redbud Cercis canadensis Leaves Dropping (Early) 41.677780000000000 -87.802500000000000 39725
Wed Oct 22 00:00:00 GMT 2014 KChapman Eastern redbud Cercis canadensis Flowers (None) 41.677780000000000 -87.802500000000000 39726
Wed Oct 22 00:00:00 GMT 2014 KChapman Eastern redbud Cercis canadensis Fruit (None) 41.677780000000000 -87.802500000000000 39727
Wed Oct 15 00:00:00 GMT 2014 lsmith0549 Eastern redbud Cercis canadensis Leaves Unfolding (None) 38.639670000000000 -83.735130000000000 41980
Wed Oct 15 00:00:00 GMT 2014 lsmith0549 Eastern redbud Cercis canadensis Leaves Changing Color (Late) 38.639670000000000 -83.735130000000000 41981
Wed Oct 15 00:00:00 GMT 2014 lsmith0549 Eastern redbud Cercis canadensis Leaves Dropping (None) 38.639670000000000 -83.735130000000000 41982
Wed Oct 15 00:00:00 GMT 2014 lsmith0549 Eastern redbud Cercis canadensis Leaves Unfolding (None) 38.639674000000000 -83.734910000000000 41970
Wed Oct 15 00:00:00 GMT 2014 lsmith0549 Eastern redbud Cercis canadensis Leaves Changing Color (Late) 38.639674000000000 -83.734910000000000 41971
Wed Oct 15 00:00:00 GMT 2014 lsmith0549 Eastern redbud Cercis canadensis Leaves Dropping (None) 38.639674000000000 -83.734910000000000 41972
Wed Oct 15 00:00:00 GMT 2014 lsmith0549 Eastern redbud Cercis canadensis Flowers (None) 38.639674000000000 -83.734910000000000 41973
Wed Oct 15 00:00:00 GMT 2014 lsmith0549 Eastern redbud Cercis canadensis Flowers (None) 38.639670000000000 -83.735130000000000 41983
Wed Oct 15 00:00:00 GMT 2014 lsmith0549 Eastern redbud Cercis canadensis Fruit (None) 38.639670000000000 -83.735130000000000 41984
Wed Oct 15 00:00:00 GMT 2014 lsmith0549 Eastern redbud Cercis canadensis Fruit (None) 38.639674000000000 -83.734910000000000 41974
Wed Oct 15 00:00:00 GMT 2014 lsmith0549 Eastern redbud Cercis canadensis Leaves Unfolding (None) 38.687490000000000 -83.777190000000000 41975
Wed Oct 15 00:00:00 GMT 2014 lsmith0549 Eastern redbud Cercis canadensis Leaves Changing Color (Late) 38.687490000000000 -83.777190000000000 41976
Wed Oct 15 00:00:00 GMT 2014 lsmith0549 Eastern redbud Cercis canadensis Leaves Dropping (None) 38.687490000000000 -83.777190000000000 41977
Wed Oct 15 00:00:00 GMT 2014 lsmith0549 Eastern redbud Cercis canadensis Flowers (None) 38.687490000000000 -83.777190000000000 41978
Wed Oct 15 00:00:00 GMT 2014 lsmith0549 Eastern redbud Cercis canadensis Fruit (None) 38.687490000000000 -83.777190000000000 41979
Wed Nov 05 00:00:00 GMT 2014 KChapman Eastern redbud Cercis canadensis Leaves Unfolding (Late) 41.677778000000000 -87.802500000000000 41990
Wed Nov 05 00:00:00 GMT 2014 KChapman Eastern redbud Cercis canadensis Leaves Changing Color (Late) 41.677778000000000 -87.802500000000000 41991
Wed Nov 05 00:00:00 GMT 2014 KChapman Eastern redbud Cercis canadensis Leaves Dropping (Late) 41.677778000000000 -87.802500000000000 41992
Wed Nov 05 00:00:00 GMT 2014 KChapman Eastern redbud Cercis canadensis Flowers (None) 41.677778000000000 -87.802500000000000 41993
Wed Nov 05 00:00:00 GMT 2014 KChapman Eastern redbud Cercis canadensis Fruit (None) 41.677778000000000 -87.802500000000000 41994
Wed Nov 05 00:00:00 GMT 2014 KChapman Eastern redbud Cercis canadensis Leaves Unfolding (Late) 41.677500000000000 -87.806667000000000 41995
Wed Nov 05 00:00:00 GMT 2014 KChapman Eastern redbud Cercis canadensis Leaves Changing Color (Middle) 41.677500000000000 -87.806667000000000 41996
Wed Nov 05 00:00:00 GMT 2014 KChapman Eastern redbud Cercis canadensis Leaves Dropping (Early) 41.677500000000000 -87.806667000000000 41997
Wed Nov 05 00:00:00 GMT 2014 KChapman Eastern redbud Cercis canadensis Flowers (None) 41.677500000000000 -87.806667000000000 41998
Wed Nov 05 00:00:00 GMT 2014 KChapman Eastern redbud Cercis canadensis Fruit (None) 41.677500000000000 -87.806667000000000 41999
Wed Jan 14 00:00:00 GMT 2015 LGNatureSchool1 Eastern redbud Cercis canadensis First Flower 28.102410000000000 -82.451644000000000 42825
Tue Feb 10 00:00:00 GMT 2015 LGNatureSchool1 Eastern redbud Cercis canadensis Full Flower 28.102410000000000 -82.451644000000000 44009
Thu Feb 19 00:00:00 GMT 2015 Biology1B11am Eastern redbud Cercis canadensis Leaves Unfolding (None) 36.812377000000000 -119.747500000000000 44370
Thu Feb 19 00:00:00 GMT 2015 Biology1B11am Eastern redbud Cercis canadensis Leaves Changing Color (None) 36.812377000000000 -119.747500000000000 44371
Thu Feb 19 00:00:00 GMT 2015 Biology1B11am Eastern redbud Cercis canadensis Leaves Dropping (None) 36.812377000000000 -119.747500000000000 44372
Thu Feb 19 00:00:00 GMT 2015 Biology1B11am Eastern redbud Cercis canadensis Flowers (Middle) 36.812377000000000 -119.747500000000000 44373
Thu Feb 19 00:00:00 GMT 2015 Biology1B11am Eastern redbud Cercis canadensis Fruit (None) 36.812377000000000 -119.747500000000000 44374
Fri Feb 27 00:00:00 GMT 2015 fwitt11 Eastern redbud Cercis canadensis Leaves Unfolding (None) 35.534968000000000 -98.706000000000000 44411
Fri Feb 27 00:00:00 GMT 2015 fwitt11 Eastern redbud Cercis canadensis Leaves Changing Color (None) 35.534968000000000 -98.706000000000000 44412
Fri Feb 27 00:00:00 GMT 2015 fwitt11 Eastern redbud Cercis canadensis Leaves Dropping (None) 35.534968000000000 -98.706000000000000 44413
Fri Feb 27 00:00:00 GMT 2015 fwitt11 Eastern redbud Cercis canadensis Flowers (None) 35.534968000000000 -98.706000000000000 44414
Fri Feb 27 00:00:00 GMT 2015 fwitt11 Eastern redbud Cercis canadensis Fruit (None) 35.534968000000000 -98.706000000000000 44415
Mon Mar 02 00:00:00 GMT 2015 fwitt11 Eastern redbud Cercis canadensis Leaves Unfolding (None) 35.535079000000000 -98.706343000000000 44526
Mon Mar 02 00:00:00 GMT 2015 fwitt11 Eastern redbud Cercis canadensis Leaves Changing Color (None) 35.535079000000000 -98.706343000000000 44527
Mon Mar 02 00:00:00 GMT 2015 fwitt11 Eastern redbud Cercis canadensis Leaves Dropping (None) 35.535079000000000 -98.706343000000000 44528
Mon Mar 02 00:00:00 GMT 2015 fwitt11 Eastern redbud Cercis canadensis Flowers (None) 35.535079000000000 -98.706343000000000 44529
Mon Mar 02 00:00:00 GMT 2015 fwitt11 Eastern redbud Cercis canadensis Fruit (None) 35.535079000000000 -98.706343000000000 44530
Fri Mar 06 00:00:00 GMT 2015 reimerd Eastern redbud Cercis canadensis Leaves Unfolding (Early) 36.789491000000000 -119.771576000000000 44613
Fri Mar 06 00:00:00 GMT 2015 reimerd Eastern redbud Cercis canadensis Leaves Changing Color (None) 36.789491000000000 -119.771576000000000 44614
Fri Mar 06 00:00:00 GMT 2015 reimerd Eastern redbud Cercis canadensis Leaves Dropping (None) 36.789491000000000 -119.771576000000000 44615
Fri Mar 06 00:00:00 GMT 2015 reimerd Eastern redbud Cercis canadensis Flowers (Middle) 36.789491000000000 -119.771576000000000 44616
Fri Mar 06 00:00:00 GMT 2015 reimerd Eastern redbud Cercis canadensis Fruit (Early) 36.789491000000000 -119.771576000000000 44617
Sat Mar 14 00:00:00 GMT 2015 botanicalmoment Eastern redbud Cercis canadensis Leaves Unfolding (None) 36.041836000000000 -78.954706000000000 44886
Sat Mar 14 00:00:00 GMT 2015 botanicalmoment Eastern redbud Cercis canadensis Leaves Changing Color (None) 36.041836000000000 -78.954706000000000 44887
Sat Mar 14 00:00:00 GMT 2015 botanicalmoment Eastern redbud Cercis canadensis Leaves Dropping (None) 36.041836000000000 -78.954706000000000 44888
Sat Mar 14 00:00:00 GMT 2015 botanicalmoment Eastern redbud Cercis canadensis Flowers (Middle) 36.041836000000000 -78.954706000000000 44889
Sat Mar 14 00:00:00 GMT 2015 botanicalmoment Eastern redbud Cercis canadensis Fruit (None) 36.041836000000000 -78.954706000000000 44890
Sun Mar 15 00:00:00 GMT 2015 marturano Eastern redbud Cercis canadensis Bud Burst 33.974710000000000 -80.894240000000000 44931
Sun Mar 22 00:00:00 GMT 2015 slarnold23 Eastern redbud Cercis canadensis Leaves Unfolding (None) 33.415323000000000 -83.388484000000000 45248
Sun Mar 22 00:00:00 GMT 2015 slarnold23 Eastern redbud Cercis canadensis Leaves Changing Color (None) 33.415323000000000 -83.388484000000000 45249
Sun Mar 22 00:00:00 GMT 2015 slarnold23 Eastern redbud Cercis canadensis Leaves Dropping (None) 33.415323000000000 -83.388484000000000 45250
Sun Mar 22 00:00:00 GMT 2015 slarnold23 Eastern redbud Cercis canadensis Flowers (Middle) 33.415323000000000 -83.388484000000000 45251
Sun Mar 22 00:00:00 GMT 2015 slarnold23 Eastern redbud Cercis canadensis Fruit (None) 33.415323000000000 -83.388484000000000 45252
Mon Mar 23 00:00:00 GMT 2015 AndrewBurnes Eastern redbud Cercis canadensis Bud Burst 33.833421000000000 -84.303546000000000 45277
Mon Mar 23 00:00:00 GMT 2015 AndrewBurnes Eastern redbud Cercis canadensis First Leaf 33.833421000000000 -84.303546000000000 45278
Sun Mar 15 00:00:00 GMT 2015 Angelyn Eastern redbud Cercis canadensis Bud Burst 35.619100000000000 -82.765100000000000 45262
Thu Mar 26 00:00:00 GMT 2015 hern1770 Eastern redbud Cercis canadensis Leaves Unfolding (None) 39.533340000000000 -95.148730000000000 45363
Thu Mar 26 00:00:00 GMT 2015 hern1770 Eastern redbud Cercis canadensis Leaves Changing Color (None) 39.533340000000000 -95.148730000000000 45364
Thu Mar 26 00:00:00 GMT 2015 hern1770 Eastern redbud Cercis canadensis Leaves Dropping (None) 39.533340000000000 -95.148730000000000 45365
Thu Mar 26 00:00:00 GMT 2015 hern1770 Eastern redbud Cercis canadensis Flowers (None) 39.533340000000000 -95.148730000000000 45366
Thu Mar 26 00:00:00 GMT 2015 hern1770 Eastern redbud Cercis canadensis Fruit (None) 39.533340000000000 -95.148730000000000 45367
Sun Mar 29 00:00:00 GMT 2015 slarnold23 Eastern redbud Cercis canadensis Leaves Unfolding (Early) 33.422845000000000 -83.388205000000000 45467
Sun Mar 29 00:00:00 GMT 2015 slarnold23 Eastern redbud Cercis canadensis Leaves Changing Color (None) 33.422845000000000 -83.388205000000000 45468
Sun Mar 29 00:00:00 GMT 2015 slarnold23 Eastern redbud Cercis canadensis Leaves Dropping (None) 33.422845000000000 -83.388205000000000 45469
Sun Mar 29 00:00:00 GMT 2015 slarnold23 Eastern redbud Cercis canadensis Flowers (Late) 33.422845000000000 -83.388205000000000 45470
Sun Mar 29 00:00:00 GMT 2015 slarnold23 Eastern redbud Cercis canadensis Fruit (Early) 33.422845000000000 -83.388205000000000 45471
Sun Mar 29 00:00:00 GMT 2015 bayfawn Eastern redbud Cercis canadensis Bud Burst 39.448260000000000 -76.267280000000000 45474
Mon Mar 30 00:00:00 GMT 2015 EmilyOaks Eastern redbud Cercis canadensis Leaves Unfolding (None) 42.021760000000000 -87.745750000000000 45500
Mon Mar 30 00:00:00 GMT 2015 EmilyOaks Eastern redbud Cercis canadensis Leaves Changing Color (None) 42.021760000000000 -87.745750000000000 45501
Mon Mar 30 00:00:00 GMT 2015 EmilyOaks Eastern redbud Cercis canadensis Leaves Dropping (None) 42.021760000000000 -87.745750000000000 45502
Mon Mar 30 00:00:00 GMT 2015 EmilyOaks Eastern redbud Cercis canadensis Flowers (None) 42.021760000000000 -87.745750000000000 45503
Mon Mar 30 00:00:00 GMT 2015 EmilyOaks Eastern redbud Cercis canadensis Fruit (None) 42.021760000000000 -87.745750000000000 45504
Fri Mar 27 00:00:00 GMT 2015 marturano Eastern redbud Cercis canadensis First Flower 33.974710000000000 -80.894240000000000 45515
Mon Mar 30 00:00:00 GMT 2015 marturano Eastern redbud Cercis canadensis Full Flower 33.974710000000000 -80.894240000000000 45516
Thu Apr 02 00:00:00 GMT 2015 fwitt11 Eastern redbud Cercis canadensis Leaves Unfolding (Middle) 35.534939000000000 -98.706000000000000 45584
Thu Apr 02 00:00:00 GMT 2015 fwitt11 Eastern redbud Cercis canadensis Leaves Changing Color (None) 35.534939000000000 -98.706000000000000 45585
Thu Apr 02 00:00:00 GMT 2015 fwitt11 Eastern redbud Cercis canadensis Leaves Dropping (None) 35.534939000000000 -98.706000000000000 45586
Thu Apr 02 00:00:00 GMT 2015 fwitt11 Eastern redbud Cercis canadensis Flowers (None) 35.534939000000000 -98.706000000000000 45587
Thu Apr 02 00:00:00 GMT 2015 fwitt11 Eastern redbud Cercis canadensis Fruit (None) 35.534939000000000 -98.706000000000000 45588
Fri Apr 03 00:00:00 GMT 2015 AndrewBurnes Eastern redbud Cercis canadensis First Flower 33.833421000000000 -84.303546000000000 45598
Fri Apr 03 00:00:00 GMT 2015 AndrewBurnes Eastern redbud Cercis canadensis Full Flower 33.833421000000000 -84.303546000000000 45599
Fri Apr 03 00:00:00 GMT 2015 Angelyn Eastern redbud Cercis canadensis First Flower 35.619100000000000 -82.765100000000000 45602
Wed Apr 01 00:00:00 GMT 2015 SJean Eastern redbud Cercis canadensis First Flower 36.901313000000000 -88.036215000000000 45608
Mon Apr 06 00:00:00 GMT 2015 Angelyn Eastern redbud Cercis canadensis Full Flower 35.619100000000000 -82.765100000000000 45637
Thu Mar 12 00:00:00 GMT 2015 brandymurray Eastern redbud Cercis canadensis Leaves Unfolding (None) 36.812171000000000 -119.747436000000000 45923
Thu Mar 12 00:00:00 GMT 2015 brandymurray Eastern redbud Cercis canadensis Leaves Changing Color (None) 36.812171000000000 -119.747436000000000 45924
Thu Mar 12 00:00:00 GMT 2015 brandymurray Eastern redbud Cercis canadensis Leaves Dropping (None) 36.812171000000000 -119.747436000000000 45925
Thu Mar 12 00:00:00 GMT 2015 brandymurray Eastern redbud Cercis canadensis Flowers (Early) 36.812171000000000 -119.747436000000000 45926
Thu Mar 12 00:00:00 GMT 2015 brandymurray Eastern redbud Cercis canadensis Fruit (None) 36.812171000000000 -119.747436000000000 45927
Thu Feb 26 00:00:00 GMT 2015 brandymurray Eastern redbud Cercis canadensis Leaves Unfolding (None) 36.812205000000000 -119.747436000000000 45913
Thu Feb 26 00:00:00 GMT 2015 brandymurray Eastern redbud Cercis canadensis Leaves Changing Color (None) 36.812205000000000 -119.747436000000000 45914
Thu Feb 26 00:00:00 GMT 2015 brandymurray Eastern redbud Cercis canadensis Leaves Dropping (Late) 36.812205000000000 -119.747436000000000 45915
Thu Feb 26 00:00:00 GMT 2015 brandymurray Eastern redbud Cercis canadensis Flowers (None) 36.812205000000000 -119.747436000000000 45916
Thu Feb 26 00:00:00 GMT 2015 brandymurray Eastern redbud Cercis canadensis Fruit (None) 36.812205000000000 -119.747436000000000 45917
Fri Mar 06 00:00:00 GMT 2015 brandymurray Eastern redbud Cercis canadensis Leaves Unfolding (None) 36.812274000000000 -119.747436000000000 45918
Fri Mar 06 00:00:00 GMT 2015 brandymurray Eastern redbud Cercis canadensis Leaves Changing Color (None) 36.812274000000000 -119.747436000000000 45919
Thu Feb 19 00:00:00 GMT 2015 brandymurray Eastern redbud Cercis canadensis Leaves Unfolding (None) 36.812136000000000 -119.747436000000000 45903
Thu Feb 19 00:00:00 GMT 2015 brandymurray Eastern redbud Cercis canadensis Leaves Changing Color (None) 36.812136000000000 -119.747436000000000 45904
Fri Mar 06 00:00:00 GMT 2015 brandymurray Eastern redbud Cercis canadensis Leaves Dropping (None) 36.812274000000000 -119.747436000000000 45920
Fri Mar 06 00:00:00 GMT 2015 brandymurray Eastern redbud Cercis canadensis Flowers (None) 36.812274000000000 -119.747436000000000 45921
Fri Mar 06 00:00:00 GMT 2015 brandymurray Eastern redbud Cercis canadensis Fruit (None) 36.812274000000000 -119.747436000000000 45922
Thu Feb 19 00:00:00 GMT 2015 brandymurray Eastern redbud Cercis canadensis Leaves Dropping (Late) 36.812136000000000 -119.747436000000000 45905
Thu Feb 19 00:00:00 GMT 2015 brandymurray Eastern redbud Cercis canadensis Flowers (None) 36.812136000000000 -119.747436000000000 45906
Thu Feb 19 00:00:00 GMT 2015 brandymurray Eastern redbud Cercis canadensis Fruit (None) 36.812136000000000 -119.747436000000000 45907
Tue Feb 24 00:00:00 GMT 2015 brandymurray Eastern redbud Cercis canadensis Leaves Unfolding (None) 36.812171000000000 -119.747393000000000 45908
Tue Feb 24 00:00:00 GMT 2015 brandymurray Eastern redbud Cercis canadensis Leaves Changing Color (None) 36.812171000000000 -119.747393000000000 45909
Tue Feb 24 00:00:00 GMT 2015 brandymurray Eastern redbud Cercis canadensis Leaves Dropping (Late) 36.812171000000000 -119.747393000000000 45910
Tue Feb 24 00:00:00 GMT 2015 brandymurray Eastern redbud Cercis canadensis Flowers (None) 36.812171000000000 -119.747393000000000 45911
Tue Feb 24 00:00:00 GMT 2015 brandymurray Eastern redbud Cercis canadensis Fruit (None) 36.812171000000000 -119.747393000000000 45912
Tue Mar 17 00:00:00 GMT 2015 brandymurray Eastern redbud Cercis canadensis Leaves Unfolding (Early) 36.812240000000000 -119.747393000000000 45928
Tue Mar 17 00:00:00 GMT 2015 brandymurray Eastern redbud Cercis canadensis Leaves Changing Color (None) 36.812240000000000 -119.747393000000000 45929
Tue Mar 17 00:00:00 GMT 2015 brandymurray Eastern redbud Cercis canadensis Leaves Dropping (None) 36.812240000000000 -119.747393000000000 45930
Tue Mar 17 00:00:00 GMT 2015 brandymurray Eastern redbud Cercis canadensis Flowers (Middle) 36.812240000000000 -119.747393000000000 45931
Tue Mar 17 00:00:00 GMT 2015 brandymurray Eastern redbud Cercis canadensis Fruit (None) 36.812240000000000 -119.747393000000000 45932
Mon Apr 06 00:00:00 GMT 2015 SJean Eastern redbud Cercis canadensis Full Flower 36.901313000000000 -88.036215000000000 45962
Wed Apr 08 00:00:00 GMT 2015 reimerd Eastern redbud Cercis canadensis Leaves Unfolding (Middle) 36.738884000000000 -119.750977000000000 45980
Wed Apr 08 00:00:00 GMT 2015 reimerd Eastern redbud Cercis canadensis Leaves Changing Color (None) 36.738884000000000 -119.750977000000000 45981
Wed Apr 08 00:00:00 GMT 2015 reimerd Eastern redbud Cercis canadensis Leaves Dropping (None) 36.738884000000000 -119.750977000000000 45982
Wed Apr 08 00:00:00 GMT 2015 reimerd Eastern redbud Cercis canadensis Flowers (Middle) 36.738884000000000 -119.750977000000000 45983
Wed Apr 08 00:00:00 GMT 2015 reimerd Eastern redbud Cercis canadensis Fruit (Middle) 36.738884000000000 -119.750977000000000 45984
Thu Mar 26 00:00:00 GMT 2015 JoshuaWood Eastern redbud Cercis canadensis Leaves Unfolding (Middle) 36.811700000000000 -119.749650000000000 46008
Thu Mar 26 00:00:00 GMT 2015 JoshuaWood Eastern redbud Cercis canadensis Leaves Changing Color (None) 36.811700000000000 -119.749650000000000 46009
Thu Mar 26 00:00:00 GMT 2015 JoshuaWood Eastern redbud Cercis canadensis Leaves Dropping (None) 36.811700000000000 -119.749650000000000 46010
Thu Mar 26 00:00:00 GMT 2015 JoshuaWood Eastern redbud Cercis canadensis Flowers (Late) 36.811700000000000 -119.749650000000000 46011
Thu Mar 26 00:00:00 GMT 2015 JoshuaWood Eastern redbud Cercis canadensis Fruit (Middle) 36.811700000000000 -119.749650000000000 46012
Thu Feb 26 00:00:00 GMT 2015 JoshuaWood Eastern redbud Cercis canadensis Leaves Unfolding (None) 36.811700000000000 -119.749650000000000 45988
Thu Feb 26 00:00:00 GMT 2015 JoshuaWood Eastern redbud Cercis canadensis Leaves Changing Color (None) 36.811700000000000 -119.749650000000000 45989
Thu Feb 26 00:00:00 GMT 2015 JoshuaWood Eastern redbud Cercis canadensis Leaves Dropping (None) 36.811700000000000 -119.749650000000000 45990
Thu Feb 26 00:00:00 GMT 2015 JoshuaWood Eastern redbud Cercis canadensis Flowers (Early) 36.811700000000000 -119.749650000000000 45991
Thu Feb 26 00:00:00 GMT 2015 JoshuaWood Eastern redbud Cercis canadensis Fruit (None) 36.811700000000000 -119.749650000000000 45992
Thu Mar 19 00:00:00 GMT 2015 JoshuaWood Eastern redbud Cercis canadensis Leaves Unfolding (Early) 36.811700000000000 -119.749650000000000 46003
Thu Mar 19 00:00:00 GMT 2015 JoshuaWood Eastern redbud Cercis canadensis Leaves Changing Color (None) 36.811700000000000 -119.749650000000000 46004
Thu Mar 19 00:00:00 GMT 2015 JoshuaWood Eastern redbud Cercis canadensis Leaves Dropping (None) 36.811700000000000 -119.749650000000000 46005
Thu Mar 19 00:00:00 GMT 2015 JoshuaWood Eastern redbud Cercis canadensis Flowers (Middle) 36.811700000000000 -119.749650000000000 46006
Thu Mar 19 00:00:00 GMT 2015 JoshuaWood Eastern redbud Cercis canadensis Fruit (Early) 36.811700000000000 -119.749650000000000 46007
Thu Mar 05 00:00:00 GMT 2015 JoshuaWood Eastern redbud Cercis canadensis Leaves Unfolding (None) 36.811700000000000 -119.749650000000000 45993
Thu Mar 05 00:00:00 GMT 2015 JoshuaWood Eastern redbud Cercis canadensis Leaves Changing Color (None) 36.811700000000000 -119.749650000000000 45994
Thu Mar 05 00:00:00 GMT 2015 JoshuaWood Eastern redbud Cercis canadensis Leaves Dropping (None) 36.811700000000000 -119.749650000000000 45995
Thu Mar 05 00:00:00 GMT 2015 JoshuaWood Eastern redbud Cercis canadensis Flowers (Middle) 36.811700000000000 -119.749650000000000 45996
Thu Mar 05 00:00:00 GMT 2015 JoshuaWood Eastern redbud Cercis canadensis Fruit (None) 36.811700000000000 -119.749650000000000 45997
Thu Mar 12 00:00:00 GMT 2015 JoshuaWood Eastern redbud Cercis canadensis Leaves Unfolding (None) 36.811700000000000 -119.749650000000000 45998
Thu Mar 12 00:00:00 GMT 2015 JoshuaWood Eastern redbud Cercis canadensis Leaves Changing Color (None) 36.811700000000000 -119.749650000000000 45999
Thu Mar 12 00:00:00 GMT 2015 JoshuaWood Eastern redbud Cercis canadensis Leaves Dropping (None) 36.811700000000000 -119.749650000000000 46000
Thu Mar 12 00:00:00 GMT 2015 JoshuaWood Eastern redbud Cercis canadensis Flowers (Middle) 36.811700000000000 -119.749650000000000 46001
Thu Mar 12 00:00:00 GMT 2015 JoshuaWood Eastern redbud Cercis canadensis Fruit (None) 36.811700000000000 -119.749650000000000 46002
Sun Mar 15 00:00:00 GMT 2015 lindsayhobson Eastern redbud Cercis canadensis First Leaf 36.811700000000000 -119.749650000000000 46056
Fri Mar 20 00:00:00 GMT 2015 lindsayhobson Eastern redbud Cercis canadensis All Leaves Unfolded 36.811700000000000 -119.749650000000000 46057
Wed Mar 25 00:00:00 GMT 2015 lindsayhobson Eastern redbud Cercis canadensis First Flower 36.811700000000000 -119.749650000000000 46058
Wed Mar 25 00:00:00 GMT 2015 lindsayhobson Eastern redbud Cercis canadensis Full Flower 36.811700000000000 -119.749650000000000 46059
Thu Feb 19 00:00:00 GMT 2015 lindsayhobson Eastern redbud Cercis canadensis Bud Burst 36.811700000000000 -119.749650000000000 46055
Tue Mar 03 00:00:00 GMT 2015 projectbudburst1 Eastern redbud Cercis canadensis Leaves Unfolding (None) 36.811650000000000 -119.749590000000000 46141
Tue Mar 03 00:00:00 GMT 2015 projectbudburst1 Eastern redbud Cercis canadensis Leaves Changing Color (None) 36.811650000000000 -119.749590000000000 46142
Tue Mar 03 00:00:00 GMT 2015 projectbudburst1 Eastern redbud Cercis canadensis Leaves Dropping (None) 36.811650000000000 -119.749590000000000 46143
Tue Mar 03 00:00:00 GMT 2015 projectbudburst1 Eastern redbud Cercis canadensis Flowers (Early) 36.811650000000000 -119.749590000000000 46144
Tue Mar 03 00:00:00 GMT 2015 projectbudburst1 Eastern redbud Cercis canadensis Fruit (None) 36.811650000000000 -119.749590000000000 46145
Tue Apr 07 00:00:00 GMT 2015 alyssa_vw Eastern redbud Cercis canadensis Leaves Unfolding (Late) 36.811700000000000 -119.749650000000000 46131
Tue Mar 17 00:00:00 GMT 2015 alyssa_vw Eastern redbud Cercis canadensis Leaves Unfolding (Early) 36.811700000000000 -119.749650000000000 46121
Tue Mar 17 00:00:00 GMT 2015 alyssa_vw Eastern redbud Cercis canadensis Leaves Changing Color (None) 36.811700000000000 -119.749650000000000 46122
Tue Mar 17 00:00:00 GMT 2015 alyssa_vw Eastern redbud Cercis canadensis Leaves Dropping (None) 36.811700000000000 -119.749650000000000 46123
Tue Mar 17 00:00:00 GMT 2015 alyssa_vw Eastern redbud Cercis canadensis Flowers (Late) 36.811700000000000 -119.749650000000000 46124
Tue Mar 17 00:00:00 GMT 2015 alyssa_vw Eastern redbud Cercis canadensis Fruit (None) 36.811700000000000 -119.749650000000000 46125
Thu Feb 26 00:00:00 GMT 2015 alyssa_vw Eastern redbud Cercis canadensis Leaves Unfolding (Early) 36.811700000000000 -119.749650000000000 46136
Thu Feb 26 00:00:00 GMT 2015 alyssa_vw Eastern redbud Cercis canadensis Leaves Changing Color (None) 36.811700000000000 -119.749650000000000 46137
Thu Feb 26 00:00:00 GMT 2015 alyssa_vw Eastern redbud Cercis canadensis Leaves Dropping (None) 36.811700000000000 -119.749650000000000 46138
Tue Apr 07 00:00:00 GMT 2015 alyssa_vw Eastern redbud Cercis canadensis Leaves Changing Color (Late) 36.811700000000000 -119.749650000000000 46132
Tue Apr 07 00:00:00 GMT 2015 alyssa_vw Eastern redbud Cercis canadensis Leaves Dropping (None) 36.811700000000000 -119.749650000000000 46133
Tue Apr 07 00:00:00 GMT 2015 alyssa_vw Eastern redbud Cercis canadensis Flowers (None) 36.811700000000000 -119.749650000000000 46134
Thu Feb 26 00:00:00 GMT 2015 alyssa_vw Eastern redbud Cercis canadensis Flowers (Early) 36.811700000000000 -119.749650000000000 46139
Thu Feb 26 00:00:00 GMT 2015 alyssa_vw Eastern redbud Cercis canadensis Fruit (None) 36.811700000000000 -119.749650000000000 46140
Tue Apr 07 00:00:00 GMT 2015 alyssa_vw Eastern redbud Cercis canadensis Fruit (Early) 36.811700000000000 -119.749650000000000 46135
Tue Feb 24 00:00:00 GMT 2015 alyssa_vw Eastern redbud Cercis canadensis Bud Burst 36.811700000000000 -119.749650000000000 46100
Thu Feb 26 00:00:00 GMT 2015 alyssa_vw Eastern redbud Cercis canadensis First Leaf 36.811700000000000 -119.749650000000000 46101
Tue Mar 24 00:00:00 GMT 2015 alyssa_vw Eastern redbud Cercis canadensis All Leaves Unfolded 36.811700000000000 -119.749650000000000 46102
Thu Feb 19 00:00:00 GMT 2015 alyssa_vw Eastern redbud Cercis canadensis First Flower 36.811700000000000 -119.749650000000000 46103
Tue Mar 10 00:00:00 GMT 2015 alyssa_vw Eastern redbud Cercis canadensis Full Flower 36.811700000000000 -119.749650000000000 46104
Tue Mar 10 00:00:00 GMT 2015 alyssa_vw Eastern redbud Cercis canadensis Leaves Unfolding (None) 36.811700000000000 -119.749650000000000 46116
Tue Mar 10 00:00:00 GMT 2015 alyssa_vw Eastern redbud Cercis canadensis Leaves Changing Color (None) 36.811700000000000 -119.749650000000000 46117
Tue Mar 10 00:00:00 GMT 2015 alyssa_vw Eastern redbud Cercis canadensis Leaves Dropping (None) 36.811700000000000 -119.749650000000000 46118
Tue Mar 10 00:00:00 GMT 2015 alyssa_vw Eastern redbud Cercis canadensis Flowers (Middle) 36.811700000000000 -119.749650000000000 46119
Tue Mar 10 00:00:00 GMT 2015 alyssa_vw Eastern redbud Cercis canadensis Fruit (None) 36.811700000000000 -119.749650000000000 46120
Tue Mar 24 00:00:00 GMT 2015 alyssa_vw Eastern redbud Cercis canadensis Leaves Unfolding (Middle) 36.811700000000000 -119.749650000000000 46126
Tue Mar 24 00:00:00 GMT 2015 alyssa_vw Eastern redbud Cercis canadensis Leaves Changing Color (None) 36.811700000000000 -119.749650000000000 46127
Tue Mar 24 00:00:00 GMT 2015 alyssa_vw Eastern redbud Cercis canadensis Leaves Dropping (None) 36.811700000000000 -119.749650000000000 46128
Tue Mar 24 00:00:00 GMT 2015 alyssa_vw Eastern redbud Cercis canadensis Flowers (Late) 36.811700000000000 -119.749650000000000 46129
Tue Mar 24 00:00:00 GMT 2015 alyssa_vw Eastern redbud Cercis canadensis Fruit (None) 36.811700000000000 -119.749650000000000 46130
Thu Feb 19 00:00:00 GMT 2015 alyssa_vw Eastern redbud Cercis canadensis Leaves Unfolding (None) 36.811700000000000 -119.749650000000000 46106
Thu Feb 19 00:00:00 GMT 2015 alyssa_vw Eastern redbud Cercis canadensis Leaves Changing Color (None) 36.811700000000000 -119.749650000000000 46107
Thu Feb 19 00:00:00 GMT 2015 alyssa_vw Eastern redbud Cercis canadensis Leaves Dropping (None) 36.811700000000000 -119.749650000000000 46108
Thu Feb 19 00:00:00 GMT 2015 alyssa_vw Eastern redbud Cercis canadensis Flowers (Early) 36.811700000000000 -119.749650000000000 46109
Thu Feb 19 00:00:00 GMT 2015 alyssa_vw Eastern redbud Cercis canadensis Fruit (None) 36.811700000000000 -119.749650000000000 46110
Tue Mar 03 00:00:00 GMT 2015 alyssa_vw Eastern redbud Cercis canadensis Leaves Unfolding (None) 36.811700000000000 -119.749650000000000 46111
Tue Mar 03 00:00:00 GMT 2015 alyssa_vw Eastern redbud Cercis canadensis Leaves Changing Color (None) 36.811700000000000 -119.749650000000000 46112
Tue Mar 03 00:00:00 GMT 2015 alyssa_vw Eastern redbud Cercis canadensis Leaves Dropping (None) 36.811700000000000 -119.749650000000000 46113
Tue Mar 03 00:00:00 GMT 2015 alyssa_vw Eastern redbud Cercis canadensis Flowers (Early) 36.811700000000000 -119.749650000000000 46114
Tue Mar 03 00:00:00 GMT 2015 alyssa_vw Eastern redbud Cercis canadensis Fruit (None) 36.811700000000000 -119.749650000000000 46115
Thu Feb 26 00:00:00 GMT 2015 projectbudburst1 Eastern redbud Cercis canadensis Leaves Unfolding (Early) 36.811650000000000 -119.749590000000000 46045
Thu Feb 26 00:00:00 GMT 2015 projectbudburst1 Eastern redbud Cercis canadensis Leaves Changing Color (None) 36.811650000000000 -119.749590000000000 46046
Thu Feb 26 00:00:00 GMT 2015 projectbudburst1 Eastern redbud Cercis canadensis Leaves Dropping (None) 36.811650000000000 -119.749590000000000 46047
Thu Feb 26 00:00:00 GMT 2015 projectbudburst1 Eastern redbud Cercis canadensis Flowers (Middle) 36.811650000000000 -119.749590000000000 46048
Thu Feb 26 00:00:00 GMT 2015 projectbudburst1 Eastern redbud Cercis canadensis Fruit (None) 36.811650000000000 -119.749590000000000 46049
Thu Mar 12 00:00:00 GMT 2015 projectbudburst1 Eastern redbud Cercis canadensis Leaves Unfolding (Late) 36.811700000000000 -119.749650000000000 46050
Thu Mar 12 00:00:00 GMT 2015 projectbudburst1 Eastern redbud Cercis canadensis Leaves Changing Color (None) 36.811700000000000 -119.749650000000000 46051
Thu Mar 12 00:00:00 GMT 2015 projectbudburst1 Eastern redbud Cercis canadensis Leaves Dropping (None) 36.811700000000000 -119.749650000000000 46052
Thu Mar 12 00:00:00 GMT 2015 projectbudburst1 Eastern redbud Cercis canadensis Flowers (Late) 36.811700000000000 -119.749650000000000 46053
Thu Mar 12 00:00:00 GMT 2015 projectbudburst1 Eastern redbud Cercis canadensis Fruit (None) 36.811700000000000 -119.749650000000000 46054
Thu Feb 19 00:00:00 GMT 2015 projectbudburst1 Eastern redbud Cercis canadensis Leaves Unfolding (None) 36.811501000000000 -119.753530000000000 46040
Thu Feb 19 00:00:00 GMT 2015 projectbudburst1 Eastern redbud Cercis canadensis Leaves Changing Color (None) 36.811501000000000 -119.753530000000000 46041
Thu Feb 19 00:00:00 GMT 2015 projectbudburst1 Eastern redbud Cercis canadensis Leaves Dropping (None) 36.811501000000000 -119.753530000000000 46042
Thu Feb 19 00:00:00 GMT 2015 projectbudburst1 Eastern redbud Cercis canadensis Flowers (Early) 36.811501000000000 -119.753530000000000 46043
Thu Feb 19 00:00:00 GMT 2015 projectbudburst1 Eastern redbud Cercis canadensis Fruit (None) 36.811501000000000 -119.753530000000000 46044
Tue Mar 24 00:00:00 GMT 2015 projectbudburst1 Eastern redbud Cercis canadensis Leaves Unfolding (Middle) 36.811650000000000 -119.749590000000000 46156
Tue Mar 24 00:00:00 GMT 2015 projectbudburst1 Eastern redbud Cercis canadensis Leaves Changing Color (None) 36.811650000000000 -119.749590000000000 46157
Tue Mar 24 00:00:00 GMT 2015 projectbudburst1 Eastern redbud Cercis canadensis Leaves Dropping (None) 36.811650000000000 -119.749590000000000 46158
Tue Mar 24 00:00:00 GMT 2015 projectbudburst1 Eastern redbud Cercis canadensis Flowers (None) 36.811650000000000 -119.749590000000000 46159
Tue Mar 24 00:00:00 GMT 2015 projectbudburst1 Eastern redbud Cercis canadensis Fruit (None) 36.811650000000000 -119.749590000000000 46160
Tue Mar 10 00:00:00 GMT 2015 projectbudburst1 Eastern redbud Cercis canadensis Leaves Unfolding (None) 36.811650000000000 -119.749590000000000 46146
Tue Mar 10 00:00:00 GMT 2015 projectbudburst1 Eastern redbud Cercis canadensis Leaves Changing Color (None) 36.811650000000000 -119.749590000000000 46147
Tue Mar 10 00:00:00 GMT 2015 projectbudburst1 Eastern redbud Cercis canadensis Leaves Dropping (None) 36.811650000000000 -119.749590000000000 46148
Tue Mar 10 00:00:00 GMT 2015 projectbudburst1 Eastern redbud Cercis canadensis Flowers (Middle) 36.811650000000000 -119.749590000000000 46149
Tue Mar 10 00:00:00 GMT 2015 projectbudburst1 Eastern redbud Cercis canadensis Fruit (None) 36.811650000000000 -119.749590000000000 46150
Tue Mar 17 00:00:00 GMT 2015 projectbudburst1 Eastern redbud Cercis canadensis Leaves Unfolding (Early) 36.811650000000000 -119.749590000000000 46151
Tue Mar 17 00:00:00 GMT 2015 projectbudburst1 Eastern redbud Cercis canadensis Leaves Changing Color (None) 36.811650000000000 -119.749590000000000 46152
Tue Mar 17 00:00:00 GMT 2015 projectbudburst1 Eastern redbud Cercis canadensis Leaves Dropping (None) 36.811650000000000 -119.749590000000000 46153
Tue Mar 17 00:00:00 GMT 2015 projectbudburst1 Eastern redbud Cercis canadensis Flowers (Late) 36.811650000000000 -119.749590000000000 46154
Tue Mar 17 00:00:00 GMT 2015 projectbudburst1 Eastern redbud Cercis canadensis Fruit (None) 36.811650000000000 -119.749590000000000 46155
Mon Apr 06 00:00:00 GMT 2015 projectbudburst1 Eastern redbud Cercis canadensis Leaves Unfolding (Late) 36.811650000000000 -119.749590000000000 46161
Mon Apr 06 00:00:00 GMT 2015 projectbudburst1 Eastern redbud Cercis canadensis Leaves Changing Color (None) 36.811650000000000 -119.749590000000000 46162
Mon Apr 06 00:00:00 GMT 2015 projectbudburst1 Eastern redbud Cercis canadensis Leaves Dropping (None) 36.811650000000000 -119.749590000000000 46163
Mon Apr 06 00:00:00 GMT 2015 projectbudburst1 Eastern redbud Cercis canadensis Flowers (Late) 36.811650000000000 -119.749590000000000 46164
Mon Apr 06 00:00:00 GMT 2015 projectbudburst1 Eastern redbud Cercis canadensis Fruit (Early) 36.811650000000000 -119.749590000000000 46165
Tue Apr 07 00:00:00 GMT 2015 LauraTibbs Eastern redbud Cercis canadensis First Flower 39.574410000000000 -95.113240000000000 46201
Fri Apr 10 00:00:00 GMT 2015 LauraTibbs Eastern redbud Cercis canadensis Full Flower 39.574410000000000 -95.113240000000000 46202
Fri Apr 10 00:00:00 GMT 2015 LauraTibbs Eastern redbud Cercis canadensis Leaves Unfolding (None) 39.575461000000000 -95.109093000000000 46196
Fri Apr 10 00:00:00 GMT 2015 LauraTibbs Eastern redbud Cercis canadensis Leaves Changing Color (None) 39.575461000000000 -95.109093000000000 46197
Fri Apr 10 00:00:00 GMT 2015 LauraTibbs Eastern redbud Cercis canadensis Leaves Dropping (None) 39.575461000000000 -95.109093000000000 46198
Fri Apr 10 00:00:00 GMT 2015 LauraTibbs Eastern redbud Cercis canadensis Flowers (Middle) 39.575461000000000 -95.109093000000000 46199
Fri Apr 10 00:00:00 GMT 2015 LauraTibbs Eastern redbud Cercis canadensis Fruit (None) 39.575461000000000 -95.109093000000000 46200
Mon Apr 06 00:00:00 GMT 2015 marturano Eastern redbud Cercis canadensis First Leaf 33.974710000000000 -80.894240000000000 46262
Wed Mar 25 00:00:00 GMT 2015 nickip94 Eastern redbud Cercis canadensis Bud Burst 39.172762000000000 -86.520692000000000 46285
Mon Apr 06 00:00:00 GMT 2015 smramp Eastern redbud Cercis canadensis Bud Burst 39.165330000000000 -86.526390000000000 46326
Mon Mar 30 00:00:00 GMT 2015 smramp Eastern redbud Cercis canadensis First Leaf 39.165330000000000 -86.526390000000000 46327
Mon Apr 13 00:00:00 GMT 2015 savmadden Eastern redbud Cercis canadensis Leaves Dropping (None) 39.165439000000000 -86.517055000000000 46568
Mon Apr 13 00:00:00 GMT 2015 savmadden Eastern redbud Cercis canadensis Flowers (Middle) 39.165439000000000 -86.517055000000000 46569
Mon Apr 13 00:00:00 GMT 2015 savmadden Eastern redbud Cercis canadensis Fruit (None) 39.165439000000000 -86.517055000000000 46570
Sun Apr 05 00:00:00 GMT 2015 skinney5 Eastern redbud Cercis canadensis Bud Burst 39.165330000000000 -86.526390000000000 46591
Mon Apr 13 00:00:00 GMT 2015 savmadden Eastern redbud Cercis canadensis Leaves Unfolding (Early) 39.165439000000000 -86.517055000000000 46566
Mon Apr 13 00:00:00 GMT 2015 savmadden Eastern redbud Cercis canadensis Leaves Changing Color (None) 39.165439000000000 -86.517055000000000 46567
Sun Mar 29 00:00:00 GMT 2015 kimokkyol Eastern redbud Cercis canadensis Bud Burst 39.164290000000000 -86.525600000000000 46621
Thu Apr 02 00:00:00 GMT 2015 kimokkyol Eastern redbud Cercis canadensis First Leaf 39.164290000000000 -86.525600000000000 46622
Wed Apr 08 00:00:00 GMT 2015 kimokkyol Eastern redbud Cercis canadensis All Leaves Unfolded 39.164290000000000 -86.525600000000000 46623
Thu Apr 02 00:00:00 GMT 2015 kimokkyol Eastern redbud Cercis canadensis First Flower 39.164290000000000 -86.525600000000000 46624
Wed Apr 08 00:00:00 GMT 2015 kimokkyol Eastern redbud Cercis canadensis Full Flower 39.164290000000000 -86.525600000000000 46625
Tue Apr 07 00:00:00 GMT 2015 kimokkyol Eastern redbud Cercis canadensis First Ripe Fruit 39.164290000000000 -86.525600000000000 46626
Wed Apr 08 00:00:00 GMT 2015 kimokkyol Eastern redbud Cercis canadensis Full Fruiting 39.164290000000000 -86.525600000000000 46627
Thu Apr 02 00:00:00 GMT 2015 vigsmith Eastern redbud Cercis canadensis Bud Burst 39.182240000000000 -86.528621000000000 46444
Fri Apr 10 00:00:00 GMT 2015 vigsmith Eastern redbud Cercis canadensis First Leaf 39.182240000000000 -86.528621000000000 46445
Tue Feb 03 00:00:00 GMT 2015 smramp Eastern redbud Cercis canadensis Bud Burst 39.165330000000000 -86.526390000000000 46473
Fri Apr 10 00:00:00 GMT 2015 eaaldrid Eastern redbud Cercis canadensis Leaves Unfolding (Early) 39.164540000000000 -86.519630000000000 46675
Fri Apr 10 00:00:00 GMT 2015 eaaldrid Eastern redbud Cercis canadensis Leaves Changing Color (None) 39.164540000000000 -86.519630000000000 46676
Fri Apr 10 00:00:00 GMT 2015 eaaldrid Eastern redbud Cercis canadensis Leaves Dropping (None) 39.164540000000000 -86.519630000000000 46677
Fri Apr 10 00:00:00 GMT 2015 eaaldrid Eastern redbud Cercis canadensis Flowers (None) 39.164540000000000 -86.519630000000000 46678
Fri Apr 10 00:00:00 GMT 2015 eaaldrid Eastern redbud Cercis canadensis Fruit (None) 39.164540000000000 -86.519630000000000 46679
Tue Apr 14 00:00:00 GMT 2015 doumanation12 Eastern redbud Cercis canadensis Leaves Unfolding (None) 41.401128000000000 -92.922910000000000 46795
Tue Apr 14 00:00:00 GMT 2015 doumanation12 Eastern redbud Cercis canadensis Leaves Changing Color (None) 41.401128000000000 -92.922910000000000 46796
Tue Apr 14 00:00:00 GMT 2015 doumanation12 Eastern redbud Cercis canadensis Leaves Dropping (None) 41.401128000000000 -92.922910000000000 46797
Tue Apr 14 00:00:00 GMT 2015 doumanation12 Eastern redbud Cercis canadensis Flowers (Early) 41.401128000000000 -92.922910000000000 46798
Tue Apr 14 00:00:00 GMT 2015 doumanation12 Eastern redbud Cercis canadensis Fruit (None) 41.401128000000000 -92.922910000000000 46799
Wed Apr 08 00:00:00 GMT 2015 ahauv Eastern redbud Cercis canadensis Bud Burst 40.830764000000000 -96.666745000000000 46783
Wed Apr 08 00:00:00 GMT 2015 ahauv Eastern redbud Cercis canadensis First Leaf 40.830764000000000 -96.666745000000000 46784
Mon Apr 13 00:00:00 GMT 2015 ahauv Eastern redbud Cercis canadensis All Leaves Unfolded 40.830764000000000 -96.666745000000000 46785
Tue Apr 07 00:00:00 GMT 2015 ahauv Eastern redbud Cercis canadensis First Flower 40.830764000000000 -96.666745000000000 46786
Thu Apr 09 00:00:00 GMT 2015 ahauv Eastern redbud Cercis canadensis Full Flower 40.830764000000000 -96.666745000000000 46787
Wed Apr 15 00:00:00 GMT 2015 tdefries Eastern redbud Cercis canadensis Leaves Unfolding (Early) 40.008370000000000 -105.285140000000000 46811
Wed Apr 15 00:00:00 GMT 2015 tdefries Eastern redbud Cercis canadensis Leaves Changing Color (None) 40.008370000000000 -105.285140000000000 46812
Wed Apr 15 00:00:00 GMT 2015 tdefries Eastern redbud Cercis canadensis Leaves Dropping (None) 40.008370000000000 -105.285140000000000 46813
Wed Apr 15 00:00:00 GMT 2015 tdefries Eastern redbud Cercis canadensis Flowers (Middle) 40.008370000000000 -105.285140000000000 46814
Wed Apr 15 00:00:00 GMT 2015 tdefries Eastern redbud Cercis canadensis Fruit (None) 40.008370000000000 -105.285140000000000 46815
Thu Apr 16 00:00:00 GMT 2015 capetrow Eastern redbud Cercis canadensis Bud Burst 40.108332000000000 -75.722567000000000 46849
Thu Feb 19 00:00:00 GMT 2015 vd7001 Eastern redbud Cercis canadensis Bud Burst 36.811650000000000 -119.749590000000000 46841
Fri Apr 03 00:00:00 GMT 2015 vd7001 Eastern redbud Cercis canadensis All Leaves Unfolded 36.811650000000000 -119.749590000000000 46842
Thu Feb 19 00:00:00 GMT 2015 vd7001 Eastern redbud Cercis canadensis First Flower 36.811650000000000 -119.749590000000000 46843
Wed Mar 04 00:00:00 GMT 2015 vd7001 Eastern redbud Cercis canadensis Full Flower 36.811650000000000 -119.749590000000000 46844
Wed Apr 15 00:00:00 GMT 2015 Angelyn Eastern redbud Cercis canadensis All Leaves Unfolded 35.619100000000000 -82.765100000000000 46875
Sun Apr 19 00:00:00 GMT 2015 bayfawn Eastern redbud Cercis canadensis First Flower 39.448260000000000 -76.267280000000000 46962
Mon Apr 13 00:00:00 GMT 2015 meghan21 Eastern redbud Cercis canadensis Leaves Unfolding (Early) 39.585380000000000 -95.118230000000000 46998
Mon Apr 13 00:00:00 GMT 2015 meghan21 Eastern redbud Cercis canadensis Leaves Changing Color (None) 39.585380000000000 -95.118230000000000 46999
Mon Apr 13 00:00:00 GMT 2015 meghan21 Eastern redbud Cercis canadensis Leaves Dropping (None) 39.585380000000000 -95.118230000000000 47000
Mon Apr 13 00:00:00 GMT 2015 meghan21 Eastern redbud Cercis canadensis Flowers (Middle) 39.585380000000000 -95.118230000000000 47001
Mon Apr 13 00:00:00 GMT 2015 meghan21 Eastern redbud Cercis canadensis Fruit (None) 39.585380000000000 -95.118230000000000 47002
Mon Apr 20 00:00:00 GMT 2015 larkine1 Eastern redbud Cercis canadensis Leaves Unfolding (Middle) 41.401111000000000 -92.922500000000000 47087
Mon Apr 20 00:00:00 GMT 2015 larkine1 Eastern redbud Cercis canadensis Leaves Changing Color (None) 41.401111000000000 -92.922500000000000 47088
Mon Apr 20 00:00:00 GMT 2015 larkine1 Eastern redbud Cercis canadensis Leaves Dropping (Early) 41.401111000000000 -92.922500000000000 47089
Mon Apr 20 00:00:00 GMT 2015 larkine1 Eastern redbud Cercis canadensis Flowers (Early) 41.401111000000000 -92.922500000000000 47090
Mon Apr 20 00:00:00 GMT 2015 larkine1 Eastern redbud Cercis canadensis Fruit (None) 41.401111000000000 -92.922500000000000 47091
Mon Apr 20 00:00:00 GMT 2015 AndrewBurnes Eastern redbud Cercis canadensis All Leaves Unfolded 33.833421000000000 -84.303546000000000 47016
Sun Apr 19 00:00:00 GMT 2015 heinemannmary Eastern redbud Cercis canadensis Leaves Unfolding (Early) 38.548434000000000 -90.634632000000000 47148
Sun Apr 19 00:00:00 GMT 2015 heinemannmary Eastern redbud Cercis canadensis Leaves Changing Color (None) 38.548434000000000 -90.634632000000000 47149
Sun Apr 19 00:00:00 GMT 2015 heinemannmary Eastern redbud Cercis canadensis Leaves Dropping (None) 38.548434000000000 -90.634632000000000 47150
Sun Apr 19 00:00:00 GMT 2015 heinemannmary Eastern redbud Cercis canadensis Flowers (Middle) 38.548434000000000 -90.634632000000000 47151
Sun Apr 19 00:00:00 GMT 2015 heinemannmary Eastern redbud Cercis canadensis Fruit (None) 38.548434000000000 -90.634632000000000 47152
Thu Feb 19 00:00:00 GMT 2015 serounmouradian Eastern redbud Cercis canadensis Bud Burst 36.484400000000000 -119.445200000000000 47257
Thu Mar 05 00:00:00 GMT 2015 serounmouradian Eastern redbud Cercis canadensis First Leaf 36.484400000000000 -119.445200000000000 47258
Mon Mar 16 00:00:00 GMT 2015 serounmouradian Eastern redbud Cercis canadensis All Leaves Unfolded 36.484400000000000 -119.445200000000000 47259
Fri Mar 27 00:00:00 GMT 2015 serounmouradian Eastern redbud Cercis canadensis First Flower 36.484400000000000 -119.445200000000000 47260
Wed Apr 01 00:00:00 GMT 2015 serounmouradian Eastern redbud Cercis canadensis Full Flower 36.484400000000000 -119.445200000000000 47261
Thu Apr 09 00:00:00 GMT 2015 serounmouradian Eastern redbud Cercis canadensis First Ripe Fruit 36.484400000000000 -119.445200000000000 47262
Wed Apr 15 00:00:00 GMT 2015 serounmouradian Eastern redbud Cercis canadensis Full Fruiting 36.484400000000000 -119.445200000000000 47263
Thu Feb 19 00:00:00 GMT 2015 biology Eastern redbud Cercis canadensis Bud Burst 36.813300000000000 -119.750000000000000 47677
Mon Mar 23 00:00:00 GMT 2015 biology Eastern redbud Cercis canadensis First Leaf 36.813300000000000 -119.750000000000000 47678
Mon Apr 06 00:00:00 GMT 2015 biology Eastern redbud Cercis canadensis All Leaves Unfolded 36.813300000000000 -119.750000000000000 47679
Mon Feb 23 00:00:00 GMT 2015 biology Eastern redbud Cercis canadensis First Flower 36.813300000000000 -119.750000000000000 47680
Mon Mar 23 00:00:00 GMT 2015 biology Eastern redbud Cercis canadensis Full Flower 36.813300000000000 -119.750000000000000 47681
Fri Apr 24 00:00:00 GMT 2015 biology Eastern redbud Cercis canadensis First Ripe Fruit 36.813300000000000 -119.750000000000000 47682
Fri Apr 24 00:00:00 GMT 2015 nouthao Eastern redbud Cercis canadensis Leaves Unfolding (Early) 36.812332000000000 -119.747565000000000 47691
Fri Apr 24 00:00:00 GMT 2015 nouthao Eastern redbud Cercis canadensis Leaves Changing Color (Early) 36.812332000000000 -119.747565000000000 47692
Fri Apr 24 00:00:00 GMT 2015 nouthao Eastern redbud Cercis canadensis Leaves Dropping (Early) 36.812332000000000 -119.747565000000000 47693
Fri Apr 24 00:00:00 GMT 2015 nouthao Eastern redbud Cercis canadensis Flowers (Middle) 36.812332000000000 -119.747565000000000 47694
Fri Apr 24 00:00:00 GMT 2015 nouthao Eastern redbud Cercis canadensis Fruit (Early) 36.812332000000000 -119.747565000000000 47695
Thu Feb 19 00:00:00 GMT 2015 Group777 Eastern redbud Cercis canadensis Bud Burst 36.811700000000000 -119.749650000000000 47698
Thu Feb 26 00:00:00 GMT 2015 Group777 Eastern redbud Cercis canadensis First Leaf 36.811700000000000 -119.749650000000000 47699
Thu Mar 05 00:00:00 GMT 2015 Group777 Eastern redbud Cercis canadensis All Leaves Unfolded 36.811700000000000 -119.749650000000000 47700
Thu Mar 12 00:00:00 GMT 2015 Group777 Eastern redbud Cercis canadensis First Flower 36.811700000000000 -119.749650000000000 47701
Thu Mar 19 00:00:00 GMT 2015 Group777 Eastern redbud Cercis canadensis Full Flower 36.811700000000000 -119.749650000000000 47702
Thu Mar 26 00:00:00 GMT 2015 Group777 Eastern redbud Cercis canadensis First Ripe Fruit 36.811700000000000 -119.749650000000000 47703
Thu Apr 02 00:00:00 GMT 2015 Group777 Eastern redbud Cercis canadensis Full Fruiting 36.811700000000000 -119.749650000000000 47704
Thu Apr 09 00:00:00 GMT 2015 Group777 Eastern redbud Cercis canadensis 50% Color 36.811700000000000 -119.749650000000000 47705
Thu Apr 16 00:00:00 GMT 2015 Group777 Eastern redbud Cercis canadensis 50% Leaf Fall 36.811700000000000 -119.749650000000000 47706
Thu Apr 16 00:00:00 GMT 2015 KChapman Eastern redbud Cercis canadensis Leaves Unfolding (None) 41.678000000000000 -87.802500000000000 47723
Thu Apr 16 00:00:00 GMT 2015 KChapman Eastern redbud Cercis canadensis Leaves Changing Color (None) 41.678000000000000 -87.802500000000000 47724
Thu Apr 16 00:00:00 GMT 2015 KChapman Eastern redbud Cercis canadensis Leaves Dropping (None) 41.678000000000000 -87.802500000000000 47725
Thu Apr 16 00:00:00 GMT 2015 KChapman Eastern redbud Cercis canadensis Flowers (Early) 41.678000000000000 -87.802500000000000 47726
Thu Apr 16 00:00:00 GMT 2015 KChapman Eastern redbud Cercis canadensis Fruit (None) 41.678000000000000 -87.802500000000000 47727
Sat Apr 25 00:00:00 GMT 2015 brandymurray Eastern redbud Cercis canadensis Leaves Unfolding (Late) 36.812171000000000 -119.747393000000000 47806
Sat Apr 25 00:00:00 GMT 2015 brandymurray Eastern redbud Cercis canadensis Leaves Changing Color (None) 36.812171000000000 -119.747393000000000 47807
Sat Apr 25 00:00:00 GMT 2015 brandymurray Eastern redbud Cercis canadensis Leaves Dropping (None) 36.812171000000000 -119.747393000000000 47808
Sat Apr 25 00:00:00 GMT 2015 brandymurray Eastern redbud Cercis canadensis Flowers (Late) 36.812171000000000 -119.747393000000000 47809
Sat Apr 25 00:00:00 GMT 2015 brandymurray Eastern redbud Cercis canadensis Fruit (Middle) 36.812171000000000 -119.747393000000000 47810
Thu Mar 19 00:00:00 GMT 2015 hall1697 Eastern redbud Cercis canadensis Bud Burst 39.572385000000000 -95.113857000000000 48013
Thu Mar 19 00:00:00 GMT 2015 hall1697 Eastern redbud Cercis canadensis Bud Burst 39.572385000000000 -95.113857000000000 48015
Mon Apr 06 00:00:00 GMT 2015 hall1697 Eastern redbud Cercis canadensis First Flower 39.572385000000000 -95.113857000000000 48016
Tue Mar 17 00:00:00 GMT 2015 hall1697 Eastern redbud Cercis canadensis Bud Burst 39.572385000000000 -95.113857000000000 48017
Thu Feb 19 00:00:00 GMT 2015 Dadiaz05 Eastern redbud Cercis canadensis Leaves Unfolding (None) 36.812274000000000 -119.747458000000000 48128
Thu Feb 19 00:00:00 GMT 2015 Dadiaz05 Eastern redbud Cercis canadensis Leaves Changing Color (None) 36.812274000000000 -119.747458000000000 48129
Thu Feb 19 00:00:00 GMT 2015 Dadiaz05 Eastern redbud Cercis canadensis Leaves Dropping (None) 36.812274000000000 -119.747458000000000 48130
Thu Feb 19 00:00:00 GMT 2015 Dadiaz05 Eastern redbud Cercis canadensis Flowers (Early) 36.812274000000000 -119.747458000000000 48131
Thu Feb 19 00:00:00 GMT 2015 Dadiaz05 Eastern redbud Cercis canadensis Fruit (None) 36.812274000000000 -119.747458000000000 48132
Tue Feb 17 00:00:00 GMT 2015 kirstenchristina Eastern redbud Cercis canadensis Bud Burst 36.811650000000000 -119.749590000000000 48166
Tue Mar 10 00:00:00 GMT 2015 kirstenchristina Eastern redbud Cercis canadensis First Leaf 36.811650000000000 -119.749590000000000 48167
Tue Apr 07 00:00:00 GMT 2015 kirstenchristina Eastern redbud Cercis canadensis All Leaves Unfolded 36.811650000000000 -119.749590000000000 48168
Tue Mar 10 00:00:00 GMT 2015 kirstenchristina Eastern redbud Cercis canadensis First Flower 36.811650000000000 -119.749590000000000 48169
Tue Mar 24 00:00:00 GMT 2015 kirstenchristina Eastern redbud Cercis canadensis Full Flower 36.811650000000000 -119.749590000000000 48170
Tue Apr 28 00:00:00 GMT 2015 q200ack Eastern redbud Cercis canadensis Leaves Unfolding (Early) 41.676350000000000 -86.251990000000000 48219
Tue Apr 28 00:00:00 GMT 2015 q200ack Eastern redbud Cercis canadensis Leaves Changing Color (Early) 41.676350000000000 -86.251990000000000 48220
Tue Apr 28 00:00:00 GMT 2015 q200ack Eastern redbud Cercis canadensis Leaves Dropping (None) 41.676350000000000 -86.251990000000000 48221
Tue Apr 28 00:00:00 GMT 2015 q200ack Eastern redbud Cercis canadensis Flowers (Early) 41.676350000000000 -86.251990000000000 48222
Tue Apr 28 00:00:00 GMT 2015 q200ack Eastern redbud Cercis canadensis Fruit (None) 41.676350000000000 -86.251990000000000 48223
Tue Apr 21 00:00:00 GMT 2015 alyssa_vw Eastern redbud Cercis canadensis Leaves Unfolding (Late) 36.811700000000000 -119.749650000000000 48241
Tue Apr 21 00:00:00 GMT 2015 alyssa_vw Eastern redbud Cercis canadensis Leaves Changing Color (None) 36.811700000000000 -119.749650000000000 48242
Tue Apr 21 00:00:00 GMT 2015 alyssa_vw Eastern redbud Cercis canadensis Leaves Dropping (None) 36.811700000000000 -119.749650000000000 48243
Tue Apr 21 00:00:00 GMT 2015 alyssa_vw Eastern redbud Cercis canadensis Flowers (None) 36.811700000000000 -119.749650000000000 48244
Tue Apr 21 00:00:00 GMT 2015 alyssa_vw Eastern redbud Cercis canadensis Fruit (Middle) 36.811700000000000 -119.749650000000000 48245
Mon Feb 23 00:00:00 GMT 2015 biology1b Eastern redbud Cercis canadensis Leaves Dropping (None) 36.813300000000000 -119.750000000000000 48553
Thu Feb 19 00:00:00 GMT 2015 biology1b Eastern redbud Cercis canadensis Leaves Unfolding (None) 36.813300000000000 -119.750000000000000 48530
Thu Feb 19 00:00:00 GMT 2015 biology1b Eastern redbud Cercis canadensis Leaves Changing Color (None) 36.813300000000000 -119.750000000000000 48531
Thu Feb 19 00:00:00 GMT 2015 biology1b Eastern redbud Cercis canadensis Leaves Unfolding (None) 36.813300000000000 -119.750000000000000 48532
Thu Feb 19 00:00:00 GMT 2015 biology1b Eastern redbud Cercis canadensis Leaves Unfolding (None) 36.813300000000000 -119.750000000000000 48533
Thu Feb 19 00:00:00 GMT 2015 biology1b Eastern redbud Cercis canadensis Leaves Changing Color (None) 36.813300000000000 -119.750000000000000 48534
Thu Feb 19 00:00:00 GMT 2015 biology1b Eastern redbud Cercis canadensis Leaves Unfolding (None) 36.813300000000000 -119.750000000000000 48535
Thu Feb 19 00:00:00 GMT 2015 biology1b Eastern redbud Cercis canadensis Leaves Dropping (None) 36.813300000000000 -119.750000000000000 48536
Thu Feb 19 00:00:00 GMT 2015 biology1b Eastern redbud Cercis canadensis Leaves Dropping (None) 36.813300000000000 -119.750000000000000 48537
Thu Feb 19 00:00:00 GMT 2015 biology1b Eastern redbud Cercis canadensis Leaves Changing Color (None) 36.813300000000000 -119.750000000000000 48538
Thu Feb 19 00:00:00 GMT 2015 biology1b Eastern redbud Cercis canadensis Leaves Changing Color (None) 36.813300000000000 -119.750000000000000 48539
Thu Feb 19 00:00:00 GMT 2015 biology1b Eastern redbud Cercis canadensis Flowers (Early) 36.813300000000000 -119.750000000000000 48540
Thu Feb 19 00:00:00 GMT 2015 biology1b Eastern redbud Cercis canadensis Leaves Dropping (None) 36.813300000000000 -119.750000000000000 48541
Thu Feb 19 00:00:00 GMT 2015 biology1b Eastern redbud Cercis canadensis Leaves Dropping (None) 36.813300000000000 -119.750000000000000 48542
Thu Feb 19 00:00:00 GMT 2015 biology1b Eastern redbud Cercis canadensis Fruit (None) 36.813300000000000 -119.750000000000000 48543
Thu Feb 19 00:00:00 GMT 2015 biology1b Eastern redbud Cercis canadensis Flowers (Early) 36.813300000000000 -119.750000000000000 48544
Thu Feb 19 00:00:00 GMT 2015 biology1b Eastern redbud Cercis canadensis Flowers (Early) 36.813300000000000 -119.750000000000000 48545
Thu Feb 19 00:00:00 GMT 2015 biology1b Eastern redbud Cercis canadensis Fruit (None) 36.813300000000000 -119.750000000000000 48546
Thu Feb 19 00:00:00 GMT 2015 biology1b Eastern redbud Cercis canadensis Fruit (None) 36.813300000000000 -119.750000000000000 48547
Thu Feb 19 00:00:00 GMT 2015 biology1b Eastern redbud Cercis canadensis Leaves Unfolding (None) 36.813300000000000 -119.750000000000000 48526
Thu Feb 19 00:00:00 GMT 2015 biology1b Eastern redbud Cercis canadensis Leaves Changing Color (None) 36.813300000000000 -119.750000000000000 48527
Thu Feb 19 00:00:00 GMT 2015 biology1b Eastern redbud Cercis canadensis Leaves Dropping (None) 36.813300000000000 -119.750000000000000 48528
Thu Feb 19 00:00:00 GMT 2015 biology1b Eastern redbud Cercis canadensis Flowers (Early) 36.813300000000000 -119.750000000000000 48529
Mon Mar 02 00:00:00 GMT 2015 biology1b Eastern redbud Cercis canadensis Leaves Unfolding (Early) 36.813300000000000 -119.750000000000000 48548
Mon Mar 02 00:00:00 GMT 2015 biology1b Eastern redbud Cercis canadensis Leaves Changing Color (None) 36.813300000000000 -119.750000000000000 48549
Mon Mar 02 00:00:00 GMT 2015 biology1b Eastern redbud Cercis canadensis Leaves Dropping (None) 36.813300000000000 -119.750000000000000 48550
Mon Mar 02 00:00:00 GMT 2015 biology1b Eastern redbud Cercis canadensis Flowers (Early) 36.813300000000000 -119.750000000000000 48551
Mon Mar 02 00:00:00 GMT 2015 biology1b Eastern redbud Cercis canadensis Fruit (None) 36.813300000000000 -119.750000000000000 48552
Thu Feb 19 00:00:00 GMT 2015 biology1b Eastern redbud Cercis canadensis Flowers (Early) 36.813300000000000 -119.750000000000000 48555
Thu Feb 19 00:00:00 GMT 2015 biology Eastern redbud Cercis canadensis Leaves Unfolding (None) 36.813300000000000 -119.746220000000000 48514
Thu Feb 19 00:00:00 GMT 2015 biology Eastern redbud Cercis canadensis Leaves Changing Color (None) 36.813300000000000 -119.746220000000000 48515
Thu Feb 19 00:00:00 GMT 2015 biology Eastern redbud Cercis canadensis Leaves Dropping (None) 36.813300000000000 -119.746220000000000 48516
Thu Feb 19 00:00:00 GMT 2015 biology Eastern redbud Cercis canadensis Flowers (None) 36.813300000000000 -119.746220000000000 48517
Thu Feb 19 00:00:00 GMT 2015 biology Eastern redbud Cercis canadensis Fruit (None) 36.813300000000000 -119.746220000000000 48518
Thu Feb 19 00:00:00 GMT 2015 biology1b Eastern redbud Cercis canadensis Fruit (None) 36.813300000000000 -119.750000000000000 48554
Mon Feb 23 00:00:00 GMT 2015 biology1b Eastern redbud Cercis canadensis Leaves Unfolding (None) 36.813300000000000 -119.750000000000000 48524
Mon Feb 23 00:00:00 GMT 2015 biology1b Eastern redbud Cercis canadensis Leaves Changing Color (None) 36.813300000000000 -119.750000000000000 48525
Mon Feb 23 00:00:00 GMT 2015 biology Eastern redbud Cercis canadensis Leaves Unfolding (None) 36.813300000000000 -119.750000000000000 48556
Mon Feb 23 00:00:00 GMT 2015 biology Eastern redbud Cercis canadensis Leaves Changing Color (None) 36.813300000000000 -119.750000000000000 48557
Mon Feb 23 00:00:00 GMT 2015 biology Eastern redbud Cercis canadensis Leaves Changing Color (None) 36.813300000000000 -119.750000000000000 48580
Mon Apr 27 00:00:00 GMT 2015 biology Eastern redbud Cercis canadensis Leaves Unfolding (Late) 36.813300000000000 -119.750000000000000 48617
Mon Apr 27 00:00:00 GMT 2015 biology Eastern redbud Cercis canadensis Leaves Changing Color (None) 36.813300000000000 -119.750000000000000 48618
Mon Apr 27 00:00:00 GMT 2015 biology Eastern redbud Cercis canadensis Leaves Dropping (None) 36.813300000000000 -119.750000000000000 48619
Mon Apr 27 00:00:00 GMT 2015 biology Eastern redbud Cercis canadensis Flowers (None) 36.813300000000000 -119.750000000000000 48620
Mon Apr 27 00:00:00 GMT 2015 biology Eastern redbud Cercis canadensis Fruit (Middle) 36.813300000000000 -119.750000000000000 48621
Mon Mar 16 00:00:00 GMT 2015 biology Eastern redbud Cercis canadensis Leaves Unfolding (None) 36.813300000000000 -119.750000000000000 48581
Mon Mar 16 00:00:00 GMT 2015 biology Eastern redbud Cercis canadensis Leaves Changing Color (None) 36.813300000000000 -119.750000000000000 48582
Mon Mar 16 00:00:00 GMT 2015 biology Eastern redbud Cercis canadensis Leaves Dropping (None) 36.813300000000000 -119.750000000000000 48583
Mon Mar 16 00:00:00 GMT 2015 biology Eastern redbud Cercis canadensis Flowers (Middle) 36.813300000000000 -119.750000000000000 48584
Mon Mar 16 00:00:00 GMT 2015 biology Eastern redbud Cercis canadensis Fruit (None) 36.813300000000000 -119.750000000000000 48585
Mon Mar 02 00:00:00 GMT 2015 biology Eastern redbud Cercis canadensis Leaves Unfolding (None) 36.813300000000000 -119.750000000000000 48569
Mon Mar 02 00:00:00 GMT 2015 biology Eastern redbud Cercis canadensis Leaves Changing Color (None) 36.813300000000000 -119.750000000000000 48570
Thu Apr 30 00:00:00 GMT 2015 biology Eastern redbud Cercis canadensis Leaves Unfolding (Late) 36.813300000000000 -119.750000000000000 48597
Mon Mar 02 00:00:00 GMT 2015 biology Eastern redbud Cercis canadensis Leaves Dropping (None) 36.813300000000000 -119.750000000000000 48571
Mon Mar 02 00:00:00 GMT 2015 biology Eastern redbud Cercis canadensis Flowers (Early) 36.813300000000000 -119.750000000000000 48572
Mon Mar 02 00:00:00 GMT 2015 biology Eastern redbud Cercis canadensis Fruit (None) 36.813300000000000 -119.750000000000000 48573
Thu Apr 30 00:00:00 GMT 2015 biology Eastern redbud Cercis canadensis Leaves Changing Color (None) 36.813300000000000 -119.750000000000000 48598
Thu Apr 30 00:00:00 GMT 2015 biology Eastern redbud Cercis canadensis Leaves Dropping (None) 36.813300000000000 -119.750000000000000 48599
Thu Apr 30 00:00:00 GMT 2015 biology Eastern redbud Cercis canadensis Flowers (None) 36.813300000000000 -119.750000000000000 48600
Mon Feb 23 00:00:00 GMT 2015 biology Eastern redbud Cercis canadensis Leaves Unfolding (None) 36.813300000000000 -119.750000000000000 48558
Mon Feb 23 00:00:00 GMT 2015 biology Eastern redbud Cercis canadensis Leaves Changing Color (None) 36.813300000000000 -119.750000000000000 48559
Mon Feb 23 00:00:00 GMT 2015 biology Eastern redbud Cercis canadensis Leaves Dropping (None) 36.813300000000000 -119.750000000000000 48560
Mon Mar 23 00:00:00 GMT 2015 biology Eastern redbud Cercis canadensis Leaves Unfolding (Early) 36.813300000000000 -119.750000000000000 48586
Mon Mar 23 00:00:00 GMT 2015 biology Eastern redbud Cercis canadensis Leaves Changing Color (None) 36.813300000000000 -119.750000000000000 48587
Mon Feb 23 00:00:00 GMT 2015 biology Eastern redbud Cercis canadensis Leaves Dropping (None) 36.813300000000000 -119.750000000000000 48562
Mon Feb 23 00:00:00 GMT 2015 biology Eastern redbud Cercis canadensis Flowers (Early) 36.813300000000000 -119.750000000000000 48563
Mon Feb 23 00:00:00 GMT 2015 biology Eastern redbud Cercis canadensis Fruit (None) 36.813300000000000 -119.750000000000000 48564
Mon Mar 23 00:00:00 GMT 2015 biology Eastern redbud Cercis canadensis Leaves Dropping (None) 36.813300000000000 -119.750000000000000 48588
Mon Mar 23 00:00:00 GMT 2015 biology Eastern redbud Cercis canadensis Flowers (Middle) 36.813300000000000 -119.750000000000000 48589
Mon Mar 23 00:00:00 GMT 2015 biology Eastern redbud Cercis canadensis Fruit (None) 36.813300000000000 -119.750000000000000 48590
Mon Apr 20 00:00:00 GMT 2015 biology Eastern redbud Cercis canadensis Leaves Unfolding (Late) 36.813300000000000 -119.750000000000000 48612
Mon Apr 20 00:00:00 GMT 2015 biology Eastern redbud Cercis canadensis Leaves Changing Color (None) 36.813300000000000 -119.750000000000000 48613
Mon Apr 20 00:00:00 GMT 2015 biology Eastern redbud Cercis canadensis Leaves Dropping (None) 36.813300000000000 -119.750000000000000 48614
Mon Apr 20 00:00:00 GMT 2015 biology Eastern redbud Cercis canadensis Flowers (None) 36.813300000000000 -119.750000000000000 48615
Mon Apr 20 00:00:00 GMT 2015 biology Eastern redbud Cercis canadensis Fruit (Middle) 36.813300000000000 -119.750000000000000 48616
Thu Feb 19 00:00:00 GMT 2015 lopez12 Eastern redbud Cercis canadensis Bud Burst 36.811650000000000 -119.749590000000000 48465
Sat Mar 21 00:00:00 GMT 2015 lopez12 Eastern redbud Cercis canadensis First Leaf 36.811650000000000 -119.749590000000000 48466
Thu Apr 02 00:00:00 GMT 2015 lopez12 Eastern redbud Cercis canadensis All Leaves Unfolded 36.811650000000000 -119.749590000000000 48467
Thu Mar 12 00:00:00 GMT 2015 lopez12 Eastern redbud Cercis canadensis First Flower 36.811650000000000 -119.749590000000000 48468
Mon Mar 16 00:00:00 GMT 2015 lopez12 Eastern redbud Cercis canadensis Full Flower 36.811650000000000 -119.749590000000000 48469
Wed Apr 01 00:00:00 GMT 2015 lopez12 Eastern redbud Cercis canadensis First Ripe Fruit 36.811650000000000 -119.749590000000000 48470
Fri Apr 24 00:00:00 GMT 2015 lopez12 Eastern redbud Cercis canadensis Full Fruiting 36.811650000000000 -119.749590000000000 48471
Sat Mar 21 00:00:00 GMT 2015 lopez12 Eastern redbud Cercis canadensis 50% Color 36.811650000000000 -119.749590000000000 48472
Thu Feb 19 00:00:00 GMT 2015 xiong12 Eastern redbud Cercis canadensis Bud Burst 36.810830000000000 -119.746220000000000 48565
Thu Feb 19 00:00:00 GMT 2015 xiong12 Eastern redbud Cercis canadensis First Leaf 36.810830000000000 -119.746220000000000 48566
Thu Feb 19 00:00:00 GMT 2015 xiong12 Eastern redbud Cercis canadensis First Flower 36.810830000000000 -119.746220000000000 48567
Thu Feb 19 00:00:00 GMT 2015 xiong12 Eastern redbud Cercis canadensis 50% Leaf Fall 36.810830000000000 -119.746220000000000 48568
Thu Apr 30 00:00:00 GMT 2015 lopez12 Eastern redbud Cercis canadensis Leaves Unfolding (Late) 36.811650000000000 -119.749590000000000 48460
Thu Apr 30 00:00:00 GMT 2015 lopez12 Eastern redbud Cercis canadensis Leaves Changing Color (None) 36.811650000000000 -119.749590000000000 48461
Thu Apr 30 00:00:00 GMT 2015 lopez12 Eastern redbud Cercis canadensis Leaves Dropping (Late) 36.811650000000000 -119.749590000000000 48462
Thu Apr 30 00:00:00 GMT 2015 lopez12 Eastern redbud Cercis canadensis Flowers (Early) 36.811650000000000 -119.749590000000000 48463
Thu Apr 30 00:00:00 GMT 2015 lopez12 Eastern redbud Cercis canadensis Fruit (Middle) 36.811650000000000 -119.749590000000000 48464
Thu Apr 30 00:00:00 GMT 2015 biology Eastern redbud Cercis canadensis Fruit (None) 36.813300000000000 -119.750000000000000 48622
Mon Feb 23 00:00:00 GMT 2015 biology Eastern redbud Cercis canadensis Flowers (Early) 36.813300000000000 -119.750000000000000 48574
Wed Feb 18 00:00:00 GMT 2015 xiong12 Eastern redbud Cercis canadensis Full Fruiting 36.810830000000000 -119.746220000000000 48629
Mon Apr 13 00:00:00 GMT 2015 biology Eastern redbud Cercis canadensis Leaves Unfolding (Late) 36.813300000000000 -119.750000000000000 48607
Mon Apr 13 00:00:00 GMT 2015 biology Eastern redbud Cercis canadensis Leaves Changing Color (None) 36.813300000000000 -119.750000000000000 48608
Mon Apr 13 00:00:00 GMT 2015 biology Eastern redbud Cercis canadensis Leaves Dropping (None) 36.813300000000000 -119.750000000000000 48609
Mon Apr 13 00:00:00 GMT 2015 biology Eastern redbud Cercis canadensis Flowers (None) 36.813300000000000 -119.750000000000000 48610
Mon Apr 13 00:00:00 GMT 2015 biology Eastern redbud Cercis canadensis Fruit (Early) 36.813300000000000 -119.750000000000000 48611
Mon Mar 09 00:00:00 GMT 2015 biology Eastern redbud Cercis canadensis Leaves Unfolding (None) 36.813300000000000 -119.750000000000000 48575
Mon Mar 09 00:00:00 GMT 2015 biology Eastern redbud Cercis canadensis Leaves Changing Color (None) 36.813300000000000 -119.750000000000000 48576
Mon Mar 09 00:00:00 GMT 2015 biology Eastern redbud Cercis canadensis Leaves Dropping (None) 36.813300000000000 -119.750000000000000 48577
Mon Mar 09 00:00:00 GMT 2015 biology Eastern redbud Cercis canadensis Flowers (Middle) 36.813300000000000 -119.750000000000000 48578
Mon Mar 09 00:00:00 GMT 2015 biology Eastern redbud Cercis canadensis Fruit (None) 36.813300000000000 -119.750000000000000 48579
Tue Mar 31 00:00:00 GMT 2015 xiong12 Eastern redbud Cercis canadensis All Leaves Unfolded 36.810830000000000 -119.746220000000000 48630
Mon Feb 23 00:00:00 GMT 2015 biology Eastern redbud Cercis canadensis Leaves Unfolding (None) 36.813300000000000 -119.750000000000000 48561
Wed Mar 11 00:00:00 GMT 2015 xiong12 Eastern redbud Cercis canadensis Full Flower 36.810830000000000 -119.746220000000000 48591
Mon Mar 30 00:00:00 GMT 2015 biology Eastern redbud Cercis canadensis Leaves Unfolding (Middle) 36.813300000000000 -119.750000000000000 48592
Mon Mar 30 00:00:00 GMT 2015 biology Eastern redbud Cercis canadensis Leaves Changing Color (None) 36.813300000000000 -119.750000000000000 48593
Mon Mar 30 00:00:00 GMT 2015 biology Eastern redbud Cercis canadensis Leaves Dropping (None) 36.813300000000000 -119.750000000000000 48594
Mon Mar 30 00:00:00 GMT 2015 biology Eastern redbud Cercis canadensis Flowers (Late) 36.813300000000000 -119.750000000000000 48595
Mon Mar 30 00:00:00 GMT 2015 biology Eastern redbud Cercis canadensis Fruit (None) 36.813300000000000 -119.750000000000000 48596
Thu Feb 12 00:00:00 GMT 2015 xiong12 Eastern redbud Cercis canadensis First Ripe Fruit 36.810830000000000 -119.746220000000000 48628
Thu Apr 30 00:00:00 GMT 2015 NancyR Eastern redbud Cercis canadensis Leaves Unfolding (Late) 40.000000000000000 -100.000000000000000 48647
Thu Apr 30 00:00:00 GMT 2015 NancyR Eastern redbud Cercis canadensis Leaves Changing Color (None) 40.000000000000000 -100.000000000000000 48648
Thu Apr 30 00:00:00 GMT 2015 NancyR Eastern redbud Cercis canadensis Leaves Dropping (None) 40.000000000000000 -100.000000000000000 48649
Thu Apr 30 00:00:00 GMT 2015 NancyR Eastern redbud Cercis canadensis Flowers (Late) 40.000000000000000 -100.000000000000000 48650
Thu Apr 30 00:00:00 GMT 2015 NancyR Eastern redbud Cercis canadensis Fruit (None) 40.000000000000000 -100.000000000000000 48651
Thu Apr 30 00:00:00 GMT 2015 NancyR Eastern redbud Cercis canadensis Leaves Unfolding (Middle) 40.000000000000000 -100.000000000000000 48637
Thu Apr 30 00:00:00 GMT 2015 NancyR Eastern redbud Cercis canadensis Leaves Changing Color (None) 40.000000000000000 -100.000000000000000 48638
Thu Apr 30 00:00:00 GMT 2015 NancyR Eastern redbud Cercis canadensis Leaves Dropping (None) 40.000000000000000 -100.000000000000000 48639
Thu Apr 30 00:00:00 GMT 2015 NancyR Eastern redbud Cercis canadensis Flowers (Middle) 40.000000000000000 -100.000000000000000 48640
Thu Apr 30 00:00:00 GMT 2015 NancyR Eastern redbud Cercis canadensis Fruit (None) 40.000000000000000 -100.000000000000000 48641
Wed Mar 18 00:00:00 GMT 2015 NancyR Eastern redbud Cercis canadensis Leaves Unfolding (Middle) 40.000000000000000 -100.000000000000000 48642
Wed Mar 18 00:00:00 GMT 2015 NancyR Eastern redbud Cercis canadensis Leaves Changing Color (None) 40.000000000000000 -100.000000000000000 48643
Wed Mar 18 00:00:00 GMT 2015 NancyR Eastern redbud Cercis canadensis Leaves Dropping (None) 40.000000000000000 -100.000000000000000 48644
Wed Mar 18 00:00:00 GMT 2015 NancyR Eastern redbud Cercis canadensis Flowers (Middle) 40.000000000000000 -100.000000000000000 48645
Wed Mar 18 00:00:00 GMT 2015 NancyR Eastern redbud Cercis canadensis Fruit (None) 40.000000000000000 -100.000000000000000 48646
Tue Mar 03 00:00:00 GMT 2015 NancyR Eastern redbud Cercis canadensis Leaves Unfolding (Early) 40.000000000000000 -100.000000000000000 48632
Tue Mar 03 00:00:00 GMT 2015 NancyR Eastern redbud Cercis canadensis Leaves Changing Color (None) 40.000000000000000 -100.000000000000000 48633
Tue Mar 03 00:00:00 GMT 2015 NancyR Eastern redbud Cercis canadensis Leaves Dropping (None) 40.000000000000000 -100.000000000000000 48634
Tue Mar 03 00:00:00 GMT 2015 NancyR Eastern redbud Cercis canadensis Flowers (Early) 40.000000000000000 -100.000000000000000 48635
Tue Mar 03 00:00:00 GMT 2015 NancyR Eastern redbud Cercis canadensis Fruit (None) 40.000000000000000 -100.000000000000000 48636
Thu Mar 12 00:00:00 GMT 2015 Dadiaz05 Eastern redbud Cercis canadensis Leaves Changing Color (Early) 36.812171000000000 -119.747672000000000 48679
Thu Feb 26 00:00:00 GMT 2015 Dadiaz05 Eastern redbud Cercis canadensis Fruit (None) 36.812171000000000 -119.747672000000000 48667
Thu Mar 12 00:00:00 GMT 2015 Dadiaz05 Eastern redbud Cercis canadensis Leaves Unfolding (Early) 36.812171000000000 -119.747672000000000 48680
Thu Apr 02 00:00:00 GMT 2015 Dadiaz05 Eastern redbud Cercis canadensis Fruit (Early) 36.812205000000000 -119.747758000000000 48725
Thu Mar 12 00:00:00 GMT 2015 Dadiaz05 Eastern redbud Cercis canadensis Leaves Changing Color (Early) 36.812171000000000 -119.747672000000000 48681
Thu Mar 05 00:00:00 GMT 2015 Dadiaz05 Eastern redbud Cercis canadensis Leaves Unfolding (Early) 36.812171000000000 -119.747672000000000 48668
Thu Mar 12 00:00:00 GMT 2015 Dadiaz05 Eastern redbud Cercis canadensis Leaves Unfolding (Early) 36.812171000000000 -119.747672000000000 48678
Thu Mar 05 00:00:00 GMT 2015 Dadiaz05 Eastern redbud Cercis canadensis Leaves Changing Color (Early) 36.812171000000000 -119.747672000000000 48669
Thu Mar 19 00:00:00 GMT 2015 Dadiaz05 Eastern redbud Cercis canadensis Leaves Unfolding (Early) 36.812205000000000 -119.747758000000000 48716
Thu Mar 05 00:00:00 GMT 2015 Dadiaz05 Eastern redbud Cercis canadensis Leaves Unfolding (Early) 36.812171000000000 -119.747672000000000 48670
Thu Mar 05 00:00:00 GMT 2015 Dadiaz05 Eastern redbud Cercis canadensis Leaves Changing Color (Early) 36.812171000000000 -119.747672000000000 48671
Thu Apr 16 00:00:00 GMT 2015 Dadiaz05 Eastern redbud Cercis canadensis Leaves Unfolding (Middle) 36.812205000000000 -119.747758000000000 48731
Thu Apr 16 00:00:00 GMT 2015 Dadiaz05 Eastern redbud Cercis canadensis Leaves Changing Color (Middle) 36.812205000000000 -119.747758000000000 48732
Thu Apr 30 00:00:00 GMT 2015 Dadiaz05 Eastern redbud Cercis canadensis Leaves Unfolding (Early) 36.812171000000000 -119.747672000000000 48684
Thu Apr 16 00:00:00 GMT 2015 Dadiaz05 Eastern redbud Cercis canadensis Leaves Dropping (Early) 36.812205000000000 -119.747758000000000 48733
Thu Apr 16 00:00:00 GMT 2015 Dadiaz05 Eastern redbud Cercis canadensis Flowers (Middle) 36.812205000000000 -119.747758000000000 48734
Thu Apr 16 00:00:00 GMT 2015 Dadiaz05 Eastern redbud Cercis canadensis Fruit (Middle) 36.812205000000000 -119.747758000000000 48735
Thu Apr 30 00:00:00 GMT 2015 Dadiaz05 Eastern redbud Cercis canadensis Leaves Unfolding (Early) 36.812171000000000 -119.747672000000000 48685
Thu Apr 30 00:00:00 GMT 2015 Dadiaz05 Eastern redbud Cercis canadensis Leaves Unfolding (Early) 36.812171000000000 -119.747672000000000 48686
Thu Apr 30 00:00:00 GMT 2015 Dadiaz05 Eastern redbud Cercis canadensis Leaves Unfolding (Early) 36.812171000000000 -119.747672000000000 48687
Thu Mar 05 00:00:00 GMT 2015 Dadiaz05 Eastern redbud Cercis canadensis Leaves Dropping (Early) 36.812171000000000 -119.747672000000000 48672
Thu Mar 05 00:00:00 GMT 2015 Dadiaz05 Eastern redbud Cercis canadensis Leaves Dropping (Early) 36.812171000000000 -119.747672000000000 48673
Thu Mar 05 00:00:00 GMT 2015 Dadiaz05 Eastern redbud Cercis canadensis Flowers (Early) 36.812171000000000 -119.747672000000000 48674
Thu Mar 05 00:00:00 GMT 2015 Dadiaz05 Eastern redbud Cercis canadensis Fruit (None) 36.812171000000000 -119.747672000000000 48675
Thu Mar 19 00:00:00 GMT 2015 Dadiaz05 Eastern redbud Cercis canadensis Leaves Changing Color (Early) 36.812205000000000 -119.747758000000000 48717
Thu Mar 19 00:00:00 GMT 2015 Dadiaz05 Eastern redbud Cercis canadensis Leaves Dropping (Early) 36.812205000000000 -119.747758000000000 48718
Thu Mar 19 00:00:00 GMT 2015 Dadiaz05 Eastern redbud Cercis canadensis Flowers (Early) 36.812205000000000 -119.747758000000000 48719
Thu Mar 19 00:00:00 GMT 2015 Dadiaz05 Eastern redbud Cercis canadensis Fruit (Early) 36.812205000000000 -119.747758000000000 48720
Thu Apr 30 00:00:00 GMT 2015 Dadiaz05 Eastern redbud Cercis canadensis Leaves Unfolding (Early) 36.812171000000000 -119.747672000000000 48688
Thu Apr 30 00:00:00 GMT 2015 Dadiaz05 Eastern redbud Cercis canadensis Leaves Unfolding (Early) 36.812171000000000 -119.747672000000000 48689
Thu Mar 05 00:00:00 GMT 2015 Dadiaz05 Eastern redbud Cercis canadensis Flowers (Early) 36.812171000000000 -119.747672000000000 48676
Thu Apr 30 00:00:00 GMT 2015 Dadiaz05 Eastern redbud Cercis canadensis Leaves Unfolding (Early) 36.812171000000000 -119.747672000000000 48682
Thu Apr 30 00:00:00 GMT 2015 Dadiaz05 Eastern redbud Cercis canadensis Leaves Changing Color (Early) 36.812171000000000 -119.747672000000000 48683
Thu Feb 26 00:00:00 GMT 2015 Dadiaz05 Eastern redbud Cercis canadensis Leaves Unfolding (Early) 36.812171000000000 -119.747672000000000 48663
Thu Apr 23 00:00:00 GMT 2015 Dadiaz05 Eastern redbud Cercis canadensis Leaves Unfolding (Late) 36.812205000000000 -119.747758000000000 48736
Thu Feb 26 00:00:00 GMT 2015 Dadiaz05 Eastern redbud Cercis canadensis Leaves Changing Color (None) 36.812171000000000 -119.747672000000000 48664
Thu Feb 26 00:00:00 GMT 2015 Dadiaz05 Eastern redbud Cercis canadensis Leaves Dropping (Early) 36.812171000000000 -119.747672000000000 48665
Thu Mar 12 00:00:00 GMT 2015 Dadiaz05 Eastern redbud Cercis canadensis Leaves Dropping (Early) 36.812171000000000 -119.747672000000000 48690
Thu Apr 30 00:00:00 GMT 2015 Dadiaz05 Eastern redbud Cercis canadensis Leaves Changing Color (Early) 36.812171000000000 -119.747672000000000 48691
Thu Apr 30 00:00:00 GMT 2015 Dadiaz05 Eastern redbud Cercis canadensis Leaves Changing Color (Early) 36.812171000000000 -119.747672000000000 48692
Thu Apr 30 00:00:00 GMT 2015 Dadiaz05 Eastern redbud Cercis canadensis Leaves Changing Color (Early) 36.812171000000000 -119.747672000000000 48693
Thu Apr 30 00:00:00 GMT 2015 Dadiaz05 Eastern redbud Cercis canadensis Leaves Unfolding (Early) 36.812171000000000 -119.747672000000000 48694
Thu Apr 30 00:00:00 GMT 2015 Dadiaz05 Eastern redbud Cercis canadensis Leaves Dropping (Early) 36.812171000000000 -119.747672000000000 48695
Thu Apr 30 00:00:00 GMT 2015 Dadiaz05 Eastern redbud Cercis canadensis Leaves Changing Color (Early) 36.812171000000000 -119.747672000000000 48696
Thu Apr 30 00:00:00 GMT 2015 Dadiaz05 Eastern redbud Cercis canadensis Leaves Changing Color (Early) 36.812171000000000 -119.747672000000000 48697
Thu Mar 05 00:00:00 GMT 2015 Dadiaz05 Eastern redbud Cercis canadensis Fruit (None) 36.812171000000000 -119.747672000000000 48677
Thu Apr 09 00:00:00 GMT 2015 Dadiaz05 Eastern redbud Cercis canadensis Leaves Unfolding (Middle) 36.812205000000000 -119.747758000000000 48726
Thu Apr 09 00:00:00 GMT 2015 Dadiaz05 Eastern redbud Cercis canadensis Leaves Changing Color (Early) 36.812205000000000 -119.747758000000000 48727
Thu Apr 09 00:00:00 GMT 2015 Dadiaz05 Eastern redbud Cercis canadensis Leaves Dropping (Early) 36.812205000000000 -119.747758000000000 48728
Thu Apr 30 00:00:00 GMT 2015 Dadiaz05 Eastern redbud Cercis canadensis Leaves Dropping (Early) 36.812171000000000 -119.747672000000000 48698
Thu Apr 30 00:00:00 GMT 2015 Dadiaz05 Eastern redbud Cercis canadensis Leaves Dropping (Early) 36.812171000000000 -119.747672000000000 48699
Thu Apr 30 00:00:00 GMT 2015 Dadiaz05 Eastern redbud Cercis canadensis Leaves Dropping (Early) 36.812171000000000 -119.747672000000000 48700
Thu Apr 30 00:00:00 GMT 2015 Dadiaz05 Eastern redbud Cercis canadensis Leaves Dropping (Early) 36.812171000000000 -119.747672000000000 48701
Thu Apr 30 00:00:00 GMT 2015 Dadiaz05 Eastern redbud Cercis canadensis Leaves Dropping (Early) 36.812171000000000 -119.747672000000000 48702
Thu Apr 30 00:00:00 GMT 2015 Dadiaz05 Eastern redbud Cercis canadensis Flowers (Early) 36.812171000000000 -119.747672000000000 48703
Thu Apr 30 00:00:00 GMT 2015 Dadiaz05 Eastern redbud Cercis canadensis Leaves Changing Color (Early) 36.812171000000000 -119.747672000000000 48704
Thu Apr 30 00:00:00 GMT 2015 Dadiaz05 Eastern redbud Cercis canadensis Flowers (Early) 36.812171000000000 -119.747672000000000 48705
Thu Apr 09 00:00:00 GMT 2015 Dadiaz05 Eastern redbud Cercis canadensis Flowers (Middle) 36.812205000000000 -119.747758000000000 48729
Thu Apr 09 00:00:00 GMT 2015 Dadiaz05 Eastern redbud Cercis canadensis Fruit (Middle) 36.812205000000000 -119.747758000000000 48730
Thu Apr 23 00:00:00 GMT 2015 Dadiaz05 Eastern redbud Cercis canadensis Leaves Changing Color (Late) 36.812205000000000 -119.747758000000000 48737
Thu Apr 23 00:00:00 GMT 2015 Dadiaz05 Eastern redbud Cercis canadensis Leaves Dropping (Late) 36.812205000000000 -119.747758000000000 48738
Thu Apr 30 00:00:00 GMT 2015 Dadiaz05 Eastern redbud Cercis canadensis Flowers (Early) 36.812171000000000 -119.747672000000000 48706
Thu Apr 30 00:00:00 GMT 2015 Dadiaz05 Eastern redbud Cercis canadensis Flowers (Early) 36.812171000000000 -119.747672000000000 48707
Thu Apr 30 00:00:00 GMT 2015 Dadiaz05 Eastern redbud Cercis canadensis Flowers (Early) 36.812171000000000 -119.747672000000000 48708
Thu Apr 30 00:00:00 GMT 2015 Dadiaz05 Eastern redbud Cercis canadensis Fruit (Early) 36.812171000000000 -119.747672000000000 48709
Thu Apr 30 00:00:00 GMT 2015 Dadiaz05 Eastern redbud Cercis canadensis Flowers (Early) 36.812171000000000 -119.747672000000000 48710
Thu Apr 30 00:00:00 GMT 2015 Dadiaz05 Eastern redbud Cercis canadensis Fruit (Early) 36.812171000000000 -119.747672000000000 48711
Thu Apr 30 00:00:00 GMT 2015 Dadiaz05 Eastern redbud Cercis canadensis Fruit (Early) 36.812171000000000 -119.747672000000000 48712
Thu Apr 30 00:00:00 GMT 2015 Dadiaz05 Eastern redbud Cercis canadensis Fruit (Early) 36.812171000000000 -119.747672000000000 48713
Thu Feb 26 00:00:00 GMT 2015 Dadiaz05 Eastern redbud Cercis canadensis Flowers (None) 36.812171000000000 -119.747672000000000 48666
Thu Apr 02 00:00:00 GMT 2015 Dadiaz05 Eastern redbud Cercis canadensis Leaves Unfolding (Middle) 36.812205000000000 -119.747758000000000 48721
Thu Apr 02 00:00:00 GMT 2015 Dadiaz05 Eastern redbud Cercis canadensis Leaves Changing Color (Early) 36.812205000000000 -119.747758000000000 48722
Thu Apr 23 00:00:00 GMT 2015 Dadiaz05 Eastern redbud Cercis canadensis Flowers (Late) 36.812205000000000 -119.747758000000000 48739
Thu Apr 23 00:00:00 GMT 2015 Dadiaz05 Eastern redbud Cercis canadensis Fruit (Late) 36.812205000000000 -119.747758000000000 48740
Thu Apr 30 00:00:00 GMT 2015 Dadiaz05 Eastern redbud Cercis canadensis Fruit (Early) 36.812171000000000 -119.747672000000000 48714
Thu Apr 02 00:00:00 GMT 2015 Dadiaz05 Eastern redbud Cercis canadensis Leaves Dropping (Early) 36.812205000000000 -119.747758000000000 48723
Thu Apr 02 00:00:00 GMT 2015 Dadiaz05 Eastern redbud Cercis canadensis Flowers (Middle) 36.812205000000000 -119.747758000000000 48724
Sat Mar 07 00:00:00 GMT 2015 georgia21 Eastern redbud Cercis canadensis Bud Burst 33.998804000000000 -81.022933000000000 48776
Tue Mar 24 00:00:00 GMT 2015 georgia21 Eastern redbud Cercis canadensis First Leaf 33.998804000000000 -81.022933000000000 48777
Sat Apr 04 00:00:00 GMT 2015 georgia21 Eastern redbud Cercis canadensis All Leaves Unfolded 33.998804000000000 -81.022933000000000 48778
Wed Mar 11 00:00:00 GMT 2015 georgia21 Eastern redbud Cercis canadensis First Flower 33.998804000000000 -81.022933000000000 48779
Wed Mar 18 00:00:00 GMT 2015 georgia21 Eastern redbud Cercis canadensis Full Flower 33.998804000000000 -81.022933000000000 48780
Wed Apr 22 00:00:00 GMT 2015 georgia21 Eastern redbud Cercis canadensis First Ripe Fruit 33.998804000000000 -81.022933000000000 48781
Tue Apr 28 00:00:00 GMT 2015 georgia21 Eastern redbud Cercis canadensis Full Fruiting 33.998804000000000 -81.022933000000000 48782
Thu Apr 30 00:00:00 GMT 2015 Dadiaz05 Eastern redbud Cercis canadensis Flowers (Early) 36.812171000000000 -119.747672000000000 48783
Thu Apr 30 00:00:00 GMT 2015 Dadiaz05 Eastern redbud Cercis canadensis Leaves Dropping (Early) 36.812171000000000 -119.747672000000000 48784
Thu Apr 30 00:00:00 GMT 2015 Dadiaz05 Eastern redbud Cercis canadensis Fruit (Early) 36.812171000000000 -119.747672000000000 48785
Thu Apr 30 00:00:00 GMT 2015 Dadiaz05 Eastern redbud Cercis canadensis Leaves Changing Color (Early) 36.812171000000000 -119.747672000000000 48786
Fri May 01 00:00:00 GMT 2015 AndrewBurnes Eastern redbud Cercis canadensis First Ripe Fruit 33.833421000000000 -84.303546000000000 48806
Sun Apr 12 00:00:00 GMT 2015 central Eastern redbud Cercis canadensis Leaves Unfolding (Early) 42.042940000000000 -94.029666000000000 48982
Sun Apr 12 00:00:00 GMT 2015 central Eastern redbud Cercis canadensis Leaves Changing Color (None) 42.042940000000000 -94.029666000000000 48983
Sun Apr 12 00:00:00 GMT 2015 central Eastern redbud Cercis canadensis Leaves Dropping (None) 42.042940000000000 -94.029666000000000 48984
Sun Apr 12 00:00:00 GMT 2015 central Eastern redbud Cercis canadensis Flowers (Early) 42.042940000000000 -94.029666000000000 48985
Sun Apr 12 00:00:00 GMT 2015 central Eastern redbud Cercis canadensis Fruit (None) 42.042940000000000 -94.029666000000000 48986
Mon Apr 27 00:00:00 GMT 2015 LurieGarden Eastern redbud Cercis canadensis Bud Burst 41.881384000000000 -87.621610000000000 49045
Sun May 03 00:00:00 GMT 2015 LurieGarden Eastern redbud Cercis canadensis First Flower 41.881384000000000 -87.621610000000000 49046
Wed Apr 15 00:00:00 GMT 2015 pearsong1 Eastern redbud Cercis canadensis Leaves Unfolding (Early) 41.402143000000000 -92.921602000000000 49059
Wed Apr 15 00:00:00 GMT 2015 pearsong1 Eastern redbud Cercis canadensis Leaves Changing Color (None) 41.402143000000000 -92.921602000000000 49060
Wed Apr 15 00:00:00 GMT 2015 pearsong1 Eastern redbud Cercis canadensis Leaves Dropping (None) 41.402143000000000 -92.921602000000000 49061
Wed Apr 15 00:00:00 GMT 2015 pearsong1 Eastern redbud Cercis canadensis Flowers (None) 41.402143000000000 -92.921602000000000 49062
Wed Apr 15 00:00:00 GMT 2015 pearsong1 Eastern redbud Cercis canadensis Fruit (None) 41.402143000000000 -92.921602000000000 49063
Thu Apr 16 00:00:00 GMT 2015 JoshuaWood Eastern redbud Cercis canadensis Leaves Unfolding (Late) 36.811700000000000 -119.749650000000000 49136
Thu Apr 16 00:00:00 GMT 2015 JoshuaWood Eastern redbud Cercis canadensis Leaves Changing Color (None) 36.811700000000000 -119.749650000000000 49137
Thu Apr 16 00:00:00 GMT 2015 JoshuaWood Eastern redbud Cercis canadensis Leaves Dropping (None) 36.811700000000000 -119.749650000000000 49138
Thu Apr 16 00:00:00 GMT 2015 JoshuaWood Eastern redbud Cercis canadensis Flowers (None) 36.811700000000000 -119.749650000000000 49139
Thu Apr 16 00:00:00 GMT 2015 JoshuaWood Eastern redbud Cercis canadensis Fruit (Middle) 36.811700000000000 -119.749650000000000 49140
Thu Apr 09 00:00:00 GMT 2015 JoshuaWood Eastern redbud Cercis canadensis Leaves Unfolding (Late) 36.811700000000000 -119.749650000000000 49127
Thu Apr 09 00:00:00 GMT 2015 JoshuaWood Eastern redbud Cercis canadensis Leaves Changing Color (None) 36.811700000000000 -119.749650000000000 49128
Thu Apr 09 00:00:00 GMT 2015 JoshuaWood Eastern redbud Cercis canadensis Leaves Dropping (None) 36.811700000000000 -119.749650000000000 49129
Thu Apr 09 00:00:00 GMT 2015 JoshuaWood Eastern redbud Cercis canadensis Flowers (None) 36.811700000000000 -119.749650000000000 49130
Thu Apr 09 00:00:00 GMT 2015 JoshuaWood Eastern redbud Cercis canadensis Fruit (Middle) 36.811700000000000 -119.749650000000000 49131
Thu Apr 23 00:00:00 GMT 2015 JoshuaWood Eastern redbud Cercis canadensis Leaves Unfolding (Late) 36.811700000000000 -119.749650000000000 49143
Thu Apr 23 00:00:00 GMT 2015 JoshuaWood Eastern redbud Cercis canadensis Leaves Changing Color (None) 36.811700000000000 -119.749650000000000 49144
Thu Apr 23 00:00:00 GMT 2015 JoshuaWood Eastern redbud Cercis canadensis Leaves Dropping (None) 36.811700000000000 -119.749650000000000 49145
Thu Apr 23 00:00:00 GMT 2015 JoshuaWood Eastern redbud Cercis canadensis Flowers (None) 36.811700000000000 -119.749650000000000 49146
Thu Apr 23 00:00:00 GMT 2015 JoshuaWood Eastern redbud Cercis canadensis Fruit (Middle) 36.811700000000000 -119.749650000000000 49147
Thu Apr 30 00:00:00 GMT 2015 JoshuaWood Eastern redbud Cercis canadensis Leaves Unfolding (Late) 36.811700000000000 -119.749650000000000 49150
Thu Apr 30 00:00:00 GMT 2015 JoshuaWood Eastern redbud Cercis canadensis Leaves Changing Color (None) 36.811700000000000 -119.749650000000000 49151
Thu Apr 30 00:00:00 GMT 2015 JoshuaWood Eastern redbud Cercis canadensis Leaves Dropping (None) 36.811700000000000 -119.749650000000000 49152
Thu Apr 30 00:00:00 GMT 2015 JoshuaWood Eastern redbud Cercis canadensis Flowers (None) 36.811700000000000 -119.749650000000000 49153
Thu Apr 30 00:00:00 GMT 2015 JoshuaWood Eastern redbud Cercis canadensis Fruit (Middle) 36.811700000000000 -119.749650000000000 49154
Tue May 05 00:00:00 GMT 2015 JoshuaWood Eastern redbud Cercis canadensis Leaves Unfolding (Late) 36.811700000000000 -119.749650000000000 49185
Tue May 05 00:00:00 GMT 2015 JoshuaWood Eastern redbud Cercis canadensis Leaves Changing Color (None) 36.811700000000000 -119.749650000000000 49186
Tue May 05 00:00:00 GMT 2015 JoshuaWood Eastern redbud Cercis canadensis Leaves Dropping (None) 36.811700000000000 -119.749650000000000 49187
Tue May 05 00:00:00 GMT 2015 JoshuaWood Eastern redbud Cercis canadensis Flowers (None) 36.811700000000000 -119.749650000000000 49188
Tue May 05 00:00:00 GMT 2015 JoshuaWood Eastern redbud Cercis canadensis Fruit (Middle) 36.811700000000000 -119.749650000000000 49189
Tue May 05 00:00:00 GMT 2015 reimerd Eastern redbud Cercis canadensis Leaves Unfolding (Late) 40.000000000000000 -100.000000000000000 49008
Tue May 05 00:00:00 GMT 2015 reimerd Eastern redbud Cercis canadensis Leaves Changing Color (None) 40.000000000000000 -100.000000000000000 49009
Tue May 05 00:00:00 GMT 2015 reimerd Eastern redbud Cercis canadensis Leaves Dropping (None) 40.000000000000000 -100.000000000000000 49010
Tue May 05 00:00:00 GMT 2015 reimerd Eastern redbud Cercis canadensis Flowers (Late) 40.000000000000000 -100.000000000000000 49011
Tue May 05 00:00:00 GMT 2015 reimerd Eastern redbud Cercis canadensis Fruit (Late) 40.000000000000000 -100.000000000000000 49012
Tue Apr 28 00:00:00 GMT 2015 kaitlinkaalberg Eastern redbud Cercis canadensis Leaves Unfolding (Middle) 41.400831000000000 -92.923373000000000 49190
Tue Apr 28 00:00:00 GMT 2015 kaitlinkaalberg Eastern redbud Cercis canadensis Leaves Changing Color (None) 41.400831000000000 -92.923373000000000 49191
Tue Apr 28 00:00:00 GMT 2015 kaitlinkaalberg Eastern redbud Cercis canadensis Leaves Dropping (None) 41.400831000000000 -92.923373000000000 49192
Tue Apr 28 00:00:00 GMT 2015 kaitlinkaalberg Eastern redbud Cercis canadensis Flowers (None) 41.400831000000000 -92.923373000000000 49193
Tue Apr 28 00:00:00 GMT 2015 kaitlinkaalberg Eastern redbud Cercis canadensis Fruit (None) 41.400831000000000 -92.923373000000000 49194
Tue May 05 00:00:00 GMT 2015 kaitlinkaalberg Eastern redbud Cercis canadensis Leaves Unfolding (Middle) 41.400831000000000 -92.923373000000000 49195
Tue May 05 00:00:00 GMT 2015 kaitlinkaalberg Eastern redbud Cercis canadensis Leaves Changing Color (None) 41.400831000000000 -92.923373000000000 49196
Tue May 05 00:00:00 GMT 2015 kaitlinkaalberg Eastern redbud Cercis canadensis Leaves Dropping (None) 41.400831000000000 -92.923373000000000 49197
Tue May 05 00:00:00 GMT 2015 kaitlinkaalberg Eastern redbud Cercis canadensis Flowers (None) 41.400831000000000 -92.923373000000000 49198
Tue May 05 00:00:00 GMT 2015 kaitlinkaalberg Eastern redbud Cercis canadensis Fruit (None) 41.400831000000000 -92.923373000000000 49199
Tue May 05 00:00:00 GMT 2015 kaitlinkaalberg Eastern redbud Cercis canadensis Leaves Unfolding (Middle) 41.400831000000000 -92.923373000000000 49200
Tue May 05 00:00:00 GMT 2015 kaitlinkaalberg Eastern redbud Cercis canadensis Leaves Changing Color (None) 41.400831000000000 -92.923373000000000 49201
Tue May 05 00:00:00 GMT 2015 kaitlinkaalberg Eastern redbud Cercis canadensis Leaves Dropping (None) 41.400831000000000 -92.923373000000000 49202
Tue May 05 00:00:00 GMT 2015 kaitlinkaalberg Eastern redbud Cercis canadensis Flowers (None) 41.400831000000000 -92.923373000000000 49203
Tue May 05 00:00:00 GMT 2015 kaitlinkaalberg Eastern redbud Cercis canadensis Fruit (None) 41.400831000000000 -92.923373000000000 49204
Fri May 01 00:00:00 GMT 2015 nflower Eastern redbud Cercis canadensis First Flower 40.371500000000000 -75.352100000000000 49030
Wed May 06 00:00:00 GMT 2015 laurob_St._John's_University__reporter13 Eastern redbud Cercis canadensis Leaves Unfolding (None) 40.725640000000000 -73.791910000000000 49223
Wed May 06 00:00:00 GMT 2015 laurob_St._John's_University__reporter13 Eastern redbud Cercis canadensis Leaves Changing Color (None) 40.725640000000000 -73.791910000000000 49224
Wed May 06 00:00:00 GMT 2015 laurob_St._John's_University__reporter13 Eastern redbud Cercis canadensis Leaves Dropping (None) 40.725640000000000 -73.791910000000000 49225
Wed May 06 00:00:00 GMT 2015 laurob_St._John's_University__reporter13 Eastern redbud Cercis canadensis Flowers (Early) 40.725640000000000 -73.791910000000000 49226
Wed May 06 00:00:00 GMT 2015 laurob_St._John's_University__reporter13 Eastern redbud Cercis canadensis Fruit (None) 40.725640000000000 -73.791910000000000 49227
Mon Apr 13 00:00:00 GMT 2015 laurob_St._John's_University__reporter13 Eastern redbud Cercis canadensis Bud Burst 40.721400000000000 -73.793200000000000 49220
Tue Apr 28 00:00:00 GMT 2015 laurob_St._John's_University__reporter13 Eastern redbud Cercis canadensis First Flower 40.721400000000000 -73.793200000000000 49221
Sun May 03 00:00:00 GMT 2015 laurob_St._John's_University__reporter13 Eastern redbud Cercis canadensis Full Flower 40.721400000000000 -73.793200000000000 49222
Wed May 06 00:00:00 GMT 2015 palm_shelby Eastern redbud Cercis canadensis Leaves Unfolding (Early) 41.400936000000000 -92.922295000000000 49281
Wed May 06 00:00:00 GMT 2015 palm_shelby Eastern redbud Cercis canadensis Leaves Changing Color (None) 41.400936000000000 -92.922295000000000 49282
Wed May 06 00:00:00 GMT 2015 palm_shelby Eastern redbud Cercis canadensis Leaves Dropping (None) 41.400936000000000 -92.922295000000000 49283
Wed May 06 00:00:00 GMT 2015 palm_shelby Eastern redbud Cercis canadensis Flowers (None) 41.400936000000000 -92.922295000000000 49284
Wed May 06 00:00:00 GMT 2015 palm_shelby Eastern redbud Cercis canadensis Fruit (None) 41.400936000000000 -92.922295000000000 49285
Fri May 01 00:00:00 GMT 2015 mrsfrey Eastern redbud Cercis canadensis Bud Burst 41.131790000000000 -73.521880000000000 49230
Sat Apr 18 00:00:00 GMT 2015 leisteda Eastern redbud Cercis canadensis Bud Burst 40.449010000000000 -80.203160000000000 49324
Sat Apr 25 00:00:00 GMT 2015 leisteda Eastern redbud Cercis canadensis First Flower 40.449010000000000 -80.203160000000000 49322
Sat May 02 00:00:00 GMT 2015 leisteda Eastern redbud Cercis canadensis Full Flower 40.449010000000000 -80.203160000000000 49323
Thu May 07 00:00:00 GMT 2015 mrsfrey Eastern redbud Cercis canadensis First Leaf 41.131790000000000 -73.521880000000000 49358
Wed Apr 15 00:00:00 GMT 2015 salvuccij Eastern redbud Cercis canadensis Leaves Unfolding (Middle) 41.400880000000000 -92.923371000000000 49499
Wed Apr 15 00:00:00 GMT 2015 salvuccij Eastern redbud Cercis canadensis Leaves Changing Color (Middle) 41.400880000000000 -92.923371000000000 49500
Wed Apr 15 00:00:00 GMT 2015 salvuccij Eastern redbud Cercis canadensis Leaves Dropping (Middle) 41.400880000000000 -92.923371000000000 49501
Wed Apr 15 00:00:00 GMT 2015 salvuccij Eastern redbud Cercis canadensis Flowers (Middle) 41.400880000000000 -92.923371000000000 49502
Wed Apr 15 00:00:00 GMT 2015 salvuccij Eastern redbud Cercis canadensis Fruit (None) 41.400880000000000 -92.923371000000000 49503
Sat Apr 25 00:00:00 GMT 2015 bayfawn Eastern redbud Cercis canadensis Full Flower 39.448260000000000 -76.267280000000000 49523
Tue Apr 21 00:00:00 GMT 2015 csg Eastern redbud Cercis canadensis Leaves Unfolding (Middle) 36.812171000000000 -119.746728000000000 50245
Tue Apr 21 00:00:00 GMT 2015 csg Eastern redbud Cercis canadensis Leaves Changing Color (Late) 36.812171000000000 -119.746728000000000 50246
Tue Apr 21 00:00:00 GMT 2015 csg Eastern redbud Cercis canadensis Leaves Dropping (Middle) 36.812171000000000 -119.746728000000000 50247
Tue Apr 21 00:00:00 GMT 2015 csg Eastern redbud Cercis canadensis Flowers (Middle) 36.812171000000000 -119.746728000000000 50248
Tue Apr 21 00:00:00 GMT 2015 csg Eastern redbud Cercis canadensis Fruit (Middle) 36.812171000000000 -119.746728000000000 50249
Tue Mar 17 00:00:00 GMT 2015 csg Eastern redbud Cercis canadensis Leaves Unfolding (Early) 36.812171000000000 -119.746728000000000 50255
Tue Mar 17 00:00:00 GMT 2015 csg Eastern redbud Cercis canadensis Leaves Changing Color (Early) 36.812171000000000 -119.746728000000000 50256
Tue Mar 17 00:00:00 GMT 2015 csg Eastern redbud Cercis canadensis Leaves Dropping (Middle) 36.812171000000000 -119.746728000000000 50257
Tue Mar 17 00:00:00 GMT 2015 csg Eastern redbud Cercis canadensis Flowers (None) 36.812171000000000 -119.746728000000000 50258
Tue Mar 17 00:00:00 GMT 2015 csg Eastern redbud Cercis canadensis Fruit (None) 36.812171000000000 -119.746728000000000 50259
Tue Apr 07 00:00:00 GMT 2015 csg Eastern redbud Cercis canadensis Leaves Unfolding (Middle) 36.812171000000000 -119.746728000000000 50235
Tue Apr 07 00:00:00 GMT 2015 csg Eastern redbud Cercis canadensis Leaves Changing Color (Middle) 36.812171000000000 -119.746728000000000 50236
Tue Apr 07 00:00:00 GMT 2015 csg Eastern redbud Cercis canadensis Leaves Dropping (Middle) 36.812171000000000 -119.746728000000000 50237
Tue Apr 07 00:00:00 GMT 2015 csg Eastern redbud Cercis canadensis Flowers (Early) 36.812171000000000 -119.746728000000000 50238
Tue Apr 07 00:00:00 GMT 2015 csg Eastern redbud Cercis canadensis Fruit (Early) 36.812171000000000 -119.746728000000000 50239
Tue Mar 24 00:00:00 GMT 2015 csg Eastern redbud Cercis canadensis Leaves Unfolding (Early) 36.812171000000000 -119.746728000000000 50225
Tue Mar 24 00:00:00 GMT 2015 csg Eastern redbud Cercis canadensis Leaves Changing Color (Middle) 36.812171000000000 -119.746728000000000 50226
Tue Mar 24 00:00:00 GMT 2015 csg Eastern redbud Cercis canadensis Leaves Dropping (Early) 36.812171000000000 -119.746728000000000 50227
Tue Mar 24 00:00:00 GMT 2015 csg Eastern redbud Cercis canadensis Flowers (Early) 36.812171000000000 -119.746728000000000 50228
Tue Mar 24 00:00:00 GMT 2015 csg Eastern redbud Cercis canadensis Fruit (Early) 36.812171000000000 -119.746728000000000 50229
Tue Mar 31 00:00:00 GMT 2015 csg Eastern redbud Cercis canadensis Leaves Unfolding (Early) 36.812171000000000 -119.746728000000000 50230
Tue Mar 31 00:00:00 GMT 2015 csg Eastern redbud Cercis canadensis Leaves Changing Color (Middle) 36.812171000000000 -119.746728000000000 50231
Tue Mar 31 00:00:00 GMT 2015 csg Eastern redbud Cercis canadensis Leaves Dropping (Early) 36.812171000000000 -119.746728000000000 50232
Tue Mar 31 00:00:00 GMT 2015 csg Eastern redbud Cercis canadensis Flowers (Early) 36.812171000000000 -119.746728000000000 50233
Tue Mar 31 00:00:00 GMT 2015 csg Eastern redbud Cercis canadensis Fruit (Early) 36.812171000000000 -119.746728000000000 50234
Tue Apr 14 00:00:00 GMT 2015 csg Eastern redbud Cercis canadensis Leaves Unfolding (Middle) 36.812171000000000 -119.746728000000000 50240
Tue Apr 14 00:00:00 GMT 2015 csg Eastern redbud Cercis canadensis Leaves Changing Color (Middle) 36.812171000000000 -119.746728000000000 50241
Tue Apr 14 00:00:00 GMT 2015 csg Eastern redbud Cercis canadensis Leaves Dropping (Middle) 36.812171000000000 -119.746728000000000 50242
Tue Apr 14 00:00:00 GMT 2015 csg Eastern redbud Cercis canadensis Flowers (Middle) 36.812171000000000 -119.746728000000000 50243
Tue Apr 14 00:00:00 GMT 2015 csg Eastern redbud Cercis canadensis Fruit (Middle) 36.812171000000000 -119.746728000000000 50244
Tue Apr 28 00:00:00 GMT 2015 csg Eastern redbud Cercis canadensis Leaves Unfolding (Late) 36.812171000000000 -119.746728000000000 50250
Tue Apr 28 00:00:00 GMT 2015 csg Eastern redbud Cercis canadensis Leaves Changing Color (Middle) 36.812171000000000 -119.746728000000000 50251
Tue Apr 28 00:00:00 GMT 2015 csg Eastern redbud Cercis canadensis Leaves Dropping (Middle) 36.812171000000000 -119.746728000000000 50252
Tue Apr 28 00:00:00 GMT 2015 csg Eastern redbud Cercis canadensis Flowers (Middle) 36.812171000000000 -119.746728000000000 50253
Tue Apr 28 00:00:00 GMT 2015 csg Eastern redbud Cercis canadensis Fruit (Middle) 36.812171000000000 -119.746728000000000 50254
Sat May 09 00:00:00 GMT 2015 leisteda Eastern redbud Cercis canadensis First Leaf 40.449010000000000 -80.203160000000000 50273
Tue May 05 00:00:00 GMT 2015 msgh_92 Eastern redbud Cercis canadensis Leaves Unfolding (Late) 36.812274000000000 -119.747629000000000 50219
Tue May 05 00:00:00 GMT 2015 msgh_92 Eastern redbud Cercis canadensis Leaves Changing Color (Late) 36.812274000000000 -119.747629000000000 50220
Tue May 05 00:00:00 GMT 2015 msgh_92 Eastern redbud Cercis canadensis Leaves Dropping (None) 36.812274000000000 -119.747629000000000 50221
Tue May 05 00:00:00 GMT 2015 msgh_92 Eastern redbud Cercis canadensis Flowers (Late) 36.812274000000000 -119.747629000000000 50222
Tue May 05 00:00:00 GMT 2015 msgh_92 Eastern redbud Cercis canadensis Fruit (Late) 36.812274000000000 -119.747629000000000 50223
Thu Apr 23 00:00:00 GMT 2015 msgh_92 Eastern redbud Cercis canadensis Leaves Unfolding (Late) 36.812308000000000 -119.747629000000000 50214
Thu Apr 23 00:00:00 GMT 2015 msgh_92 Eastern redbud Cercis canadensis Leaves Changing Color (Late) 36.812308000000000 -119.747629000000000 50215
Thu Apr 23 00:00:00 GMT 2015 msgh_92 Eastern redbud Cercis canadensis Leaves Dropping (None) 36.812308000000000 -119.747629000000000 50216
Thu Apr 23 00:00:00 GMT 2015 msgh_92 Eastern redbud Cercis canadensis Flowers (Late) 36.812308000000000 -119.747629000000000 50217
Thu Apr 23 00:00:00 GMT 2015 msgh_92 Eastern redbud Cercis canadensis Fruit (Late) 36.812308000000000 -119.747629000000000 50218
Thu Feb 19 00:00:00 GMT 2015 msgh_92 Eastern redbud Cercis canadensis Leaves Unfolding (None) 36.480000000000000 -119.440000000000000 50209
Thu Feb 19 00:00:00 GMT 2015 msgh_92 Eastern redbud Cercis canadensis Leaves Changing Color (None) 36.480000000000000 -119.440000000000000 50210
Thu Feb 19 00:00:00 GMT 2015 msgh_92 Eastern redbud Cercis canadensis Leaves Dropping (None) 36.480000000000000 -119.440000000000000 50211
Thu Feb 19 00:00:00 GMT 2015 msgh_92 Eastern redbud Cercis canadensis Flowers (Early) 36.480000000000000 -119.440000000000000 50212
Thu Feb 19 00:00:00 GMT 2015 msgh_92 Eastern redbud Cercis canadensis Fruit (None) 36.480000000000000 -119.440000000000000 50213
Thu Feb 26 00:00:00 GMT 2015 carinawilliams Eastern redbud Cercis canadensis Bud Burst 36.811621000000000 -119.749110000000000 50325
Mon Mar 02 00:00:00 GMT 2015 carinawilliams Eastern redbud Cercis canadensis First Leaf 36.811621000000000 -119.749110000000000 50326
Fri Mar 20 00:00:00 GMT 2015 carinawilliams Eastern redbud Cercis canadensis All Leaves Unfolded 36.811621000000000 -119.749110000000000 50327
Fri Apr 24 00:00:00 GMT 2015 carinawilliams Eastern redbud Cercis canadensis Full Flower 36.811621000000000 -119.749110000000000 50328
Thu Feb 19 00:00:00 GMT 2015 carinawilliams Eastern redbud Cercis canadensis 50% Leaf Fall 36.811621000000000 -119.749110000000000 50329
Fri Mar 20 00:00:00 GMT 2015 carinawilliams Eastern redbud Cercis canadensis Leaves Unfolding (Late) 36.811759000000000 -119.747651000000000 50330
Fri Mar 20 00:00:00 GMT 2015 carinawilliams Eastern redbud Cercis canadensis Leaves Changing Color (None) 36.811759000000000 -119.747651000000000 50331
Fri Mar 20 00:00:00 GMT 2015 carinawilliams Eastern redbud Cercis canadensis Leaves Dropping (None) 36.811759000000000 -119.747651000000000 50332
Fri Mar 20 00:00:00 GMT 2015 carinawilliams Eastern redbud Cercis canadensis Flowers (Early) 36.811759000000000 -119.747651000000000 50333
Fri Mar 20 00:00:00 GMT 2015 carinawilliams Eastern redbud Cercis canadensis Fruit (None) 36.811759000000000 -119.747651000000000 50334
Thu Feb 26 00:00:00 GMT 2015 carinawilliams Eastern redbud Cercis canadensis Leaves Unfolding (None) 36.811759000000000 -119.747651000000000 50320
Thu Feb 26 00:00:00 GMT 2015 carinawilliams Eastern redbud Cercis canadensis Leaves Changing Color (None) 36.811759000000000 -119.747651000000000 50321
Thu Feb 26 00:00:00 GMT 2015 carinawilliams Eastern redbud Cercis canadensis Leaves Dropping (Late) 36.811759000000000 -119.747651000000000 50322
Thu Feb 26 00:00:00 GMT 2015 carinawilliams Eastern redbud Cercis canadensis Flowers (Late) 36.811759000000000 -119.747651000000000 50323
Thu Feb 26 00:00:00 GMT 2015 carinawilliams Eastern redbud Cercis canadensis Fruit (None) 36.811759000000000 -119.747651000000000 50324
Thu Feb 19 00:00:00 GMT 2015 carinawilliams Eastern redbud Cercis canadensis Leaves Unfolding (None) 36.811759000000000 -119.747651000000000 50315
Thu Feb 19 00:00:00 GMT 2015 carinawilliams Eastern redbud Cercis canadensis Leaves Changing Color (None) 36.811759000000000 -119.747651000000000 50316
Thu Feb 19 00:00:00 GMT 2015 carinawilliams Eastern redbud Cercis canadensis Leaves Dropping (Late) 36.811759000000000 -119.747651000000000 50317
Thu Feb 19 00:00:00 GMT 2015 carinawilliams Eastern redbud Cercis canadensis Flowers (None) 36.811759000000000 -119.747651000000000 50318
Thu Feb 19 00:00:00 GMT 2015 carinawilliams Eastern redbud Cercis canadensis Fruit (None) 36.811759000000000 -119.747651000000000 50319
Mon May 18 00:00:00 GMT 2015 tjas9837 Eastern redbud Cercis canadensis All Leaves Unfolded 41.663647000000000 -86.220660000000000 50536
Wed May 06 00:00:00 GMT 2015 KChapman Eastern redbud Cercis canadensis Leaves Unfolding (None) 41.677900000000000 -87.802330000000000 50654
Wed May 06 00:00:00 GMT 2015 KChapman Eastern redbud Cercis canadensis Leaves Changing Color (None) 41.677900000000000 -87.802330000000000 50655
Wed May 06 00:00:00 GMT 2015 KChapman Eastern redbud Cercis canadensis Leaves Dropping (None) 41.677900000000000 -87.802330000000000 50656
Wed May 06 00:00:00 GMT 2015 KChapman Eastern redbud Cercis canadensis Flowers (Middle) 41.677900000000000 -87.802330000000000 50657
Wed May 06 00:00:00 GMT 2015 KChapman Eastern redbud Cercis canadensis Fruit (None) 41.677900000000000 -87.802330000000000 50658
Fri May 15 00:00:00 GMT 2015 KChapman Eastern redbud Cercis canadensis Leaves Unfolding (Early) 41.677900000000000 -87.802330000000000 50696
Fri May 15 00:00:00 GMT 2015 KChapman Eastern redbud Cercis canadensis Leaves Changing Color (None) 41.677900000000000 -87.802330000000000 50697
Fri May 15 00:00:00 GMT 2015 KChapman Eastern redbud Cercis canadensis Leaves Dropping (None) 41.677900000000000 -87.802330000000000 50698
Fri May 15 00:00:00 GMT 2015 KChapman Eastern redbud Cercis canadensis Flowers (Middle) 41.677900000000000 -87.802330000000000 50699
Fri May 15 00:00:00 GMT 2015 KChapman Eastern redbud Cercis canadensis Fruit (None) 41.677900000000000 -87.802330000000000 50700
Thu Nov 21 00:00:00 GMT 2013 ncmns Eastern redbud Cercis canadensis Leaves Unfolding (None) 35.811680000000000 -78.713930000000000 52334
Thu Nov 21 00:00:00 GMT 2013 ncmns Eastern redbud Cercis canadensis Leaves Changing Color (None) 35.811680000000000 -78.713930000000000 52335
Thu Nov 21 00:00:00 GMT 2013 ncmns Eastern redbud Cercis canadensis Leaves Dropping (Late) 35.811680000000000 -78.713930000000000 52336
Thu Nov 21 00:00:00 GMT 2013 ncmns Eastern redbud Cercis canadensis Flowers (None) 35.811680000000000 -78.713930000000000 52337
Thu Nov 21 00:00:00 GMT 2013 ncmns Eastern redbud Cercis canadensis Fruit (Late) 35.811680000000000 -78.713930000000000 52338
Thu Mar 20 00:00:00 GMT 2014 ncmns Eastern redbud Cercis canadensis Leaves Unfolding (None) 35.811680000000000 -78.713930000000000 52369
Thu Mar 20 00:00:00 GMT 2014 ncmns Eastern redbud Cercis canadensis Leaves Changing Color (None) 35.811680000000000 -78.713930000000000 52370
Sat Oct 11 00:00:00 GMT 2014 ncmns Eastern redbud Cercis canadensis Leaves Unfolding (None) 35.811680000000000 -78.713930000000000 52294
Sat Oct 11 00:00:00 GMT 2014 ncmns Eastern redbud Cercis canadensis Leaves Changing Color (Early) 35.811680000000000 -78.713930000000000 52295
Sat Oct 11 00:00:00 GMT 2014 ncmns Eastern redbud Cercis canadensis Leaves Dropping (Early) 35.811680000000000 -78.713930000000000 52296
Sat Oct 11 00:00:00 GMT 2014 ncmns Eastern redbud Cercis canadensis Flowers (None) 35.811680000000000 -78.713930000000000 52297
Sat Oct 11 00:00:00 GMT 2014 ncmns Eastern redbud Cercis canadensis Fruit (Late) 35.811680000000000 -78.713930000000000 52298
Thu Mar 20 00:00:00 GMT 2014 ncmns Eastern redbud Cercis canadensis Leaves Dropping (None) 35.811680000000000 -78.713930000000000 52371
Thu Mar 20 00:00:00 GMT 2014 ncmns Eastern redbud Cercis canadensis Flowers (None) 35.811680000000000 -78.713930000000000 52372
Thu Mar 20 00:00:00 GMT 2014 ncmns Eastern redbud Cercis canadensis Fruit (None) 35.811680000000000 -78.713930000000000 52373
Sat Apr 12 00:00:00 GMT 2014 ncmns Eastern redbud Cercis canadensis Leaves Unfolding (Middle) 35.811680000000000 -78.713930000000000 52409
Sat Apr 12 00:00:00 GMT 2014 ncmns Eastern redbud Cercis canadensis Leaves Changing Color (None) 35.811680000000000 -78.713930000000000 52410
Sat Apr 12 00:00:00 GMT 2014 ncmns Eastern redbud Cercis canadensis Leaves Dropping (None) 35.811680000000000 -78.713930000000000 52411
Sat Apr 12 00:00:00 GMT 2014 ncmns Eastern redbud Cercis canadensis Flowers (Late) 35.811680000000000 -78.713930000000000 52412
Sat Apr 12 00:00:00 GMT 2014 ncmns Eastern redbud Cercis canadensis Fruit (None) 35.811680000000000 -78.713930000000000 52413
Fri Aug 21 00:00:00 GMT 2015 ncmns Eastern redbud Cercis canadensis Leaves Unfolding (Middle) 35.811680000000000 -78.713930000000000 52249
Fri Aug 21 00:00:00 GMT 2015 ncmns Eastern redbud Cercis canadensis Leaves Changing Color (None) 35.811680000000000 -78.713930000000000 52250
Fri Aug 21 00:00:00 GMT 2015 ncmns Eastern redbud Cercis canadensis Leaves Dropping (None) 35.811680000000000 -78.713930000000000 52251
Fri Aug 21 00:00:00 GMT 2015 ncmns Eastern redbud Cercis canadensis Flowers (Late) 35.811680000000000 -78.713930000000000 52252
Fri Aug 21 00:00:00 GMT 2015 ncmns Eastern redbud Cercis canadensis Fruit (None) 35.811680000000000 -78.713930000000000 52253
Sat Sep 06 00:00:00 GMT 2014 ncmns Eastern redbud Cercis canadensis Leaves Unfolding (None) 35.811680000000000 -78.713930000000000 52449
Sat Sep 06 00:00:00 GMT 2014 ncmns Eastern redbud Cercis canadensis Leaves Changing Color (Early) 35.811680000000000 -78.713930000000000 52450
Sat Sep 06 00:00:00 GMT 2014 ncmns Eastern redbud Cercis canadensis Leaves Dropping (None) 35.811680000000000 -78.713930000000000 52451
Sat Sep 06 00:00:00 GMT 2014 ncmns Eastern redbud Cercis canadensis Flowers (None) 35.811680000000000 -78.713930000000000 52452
Sat Sep 06 00:00:00 GMT 2014 ncmns Eastern redbud Cercis canadensis Fruit (Middle) 35.811680000000000 -78.713930000000000 52453
Sat Sep 20 00:00:00 GMT 2014 ncmns Eastern redbud Cercis canadensis Leaves Unfolding (None) 35.811680000000000 -78.713930000000000 52484
Sat Sep 20 00:00:00 GMT 2014 ncmns Eastern redbud Cercis canadensis Leaves Changing Color (None) 35.811680000000000 -78.713930000000000 52485
Sat Sep 20 00:00:00 GMT 2014 ncmns Eastern redbud Cercis canadensis Leaves Dropping (None) 35.811680000000000 -78.713930000000000 52486
Sat Sep 20 00:00:00 GMT 2014 ncmns Eastern redbud Cercis canadensis Flowers (None) 35.811680000000000 -78.713930000000000 52487
Sat Sep 20 00:00:00 GMT 2014 ncmns Eastern redbud Cercis canadensis Fruit (Late) 35.811680000000000 -78.713930000000000 52488
Sat Sep 05 00:00:00 GMT 2015 Angelyn Eastern redbud Cercis canadensis First Ripe Fruit 35.619100000000000 -82.765100000000000 52774
Thu Sep 17 00:00:00 GMT 2015 KChapman Eastern redbud Cercis canadensis Leaves Unfolding (Late) 41.677900000000000 -87.802330000000000 53353
Thu Sep 17 00:00:00 GMT 2015 KChapman Eastern redbud Cercis canadensis Leaves Changing Color (None) 41.677900000000000 -87.802330000000000 53354
Thu Sep 17 00:00:00 GMT 2015 KChapman Eastern redbud Cercis canadensis Leaves Dropping (Early) 41.677900000000000 -87.802330000000000 53355
Thu Sep 17 00:00:00 GMT 2015 KChapman Eastern redbud Cercis canadensis Flowers (None) 41.677900000000000 -87.802330000000000 53356
Thu Sep 17 00:00:00 GMT 2015 KChapman Eastern redbud Cercis canadensis Fruit (None) 41.677900000000000 -87.802330000000000 53357
Fri Sep 25 00:00:00 GMT 2015 KChapman Eastern redbud Cercis canadensis Leaves Unfolding (Late) 41.677900000000000 -87.802330000000000 53461
Fri Sep 25 00:00:00 GMT 2015 KChapman Eastern redbud Cercis canadensis Leaves Changing Color (None) 41.677900000000000 -87.802330000000000 53462
Fri Sep 25 00:00:00 GMT 2015 KChapman Eastern redbud Cercis canadensis Flowers (None) 41.677900000000000 -87.802330000000000 53464
Fri Sep 25 00:00:00 GMT 2015 KChapman Eastern redbud Cercis canadensis Leaves Dropping (Early) 41.677900000000000 -87.802330000000000 53463
Fri Sep 25 00:00:00 GMT 2015 KChapman Eastern redbud Cercis canadensis Fruit (None) 41.677900000000000 -87.802330000000000 53465
Thu Oct 01 00:00:00 GMT 2015 KChapman Eastern redbud Cercis canadensis Leaves Unfolding (Late) 41.677900000000000 -87.802330000000000 54326
Thu Oct 01 00:00:00 GMT 2015 KChapman Eastern redbud Cercis canadensis Leaves Changing Color (None) 41.677900000000000 -87.802330000000000 54327
Thu Oct 01 00:00:00 GMT 2015 KChapman Eastern redbud Cercis canadensis Leaves Dropping (None) 41.677900000000000 -87.802330000000000 54328
Thu Oct 01 00:00:00 GMT 2015 KChapman Eastern redbud Cercis canadensis Flowers (None) 41.677900000000000 -87.802330000000000 54329
Thu Oct 01 00:00:00 GMT 2015 KChapman Eastern redbud Cercis canadensis Fruit (None) 41.677900000000000 -87.802330000000000 54330
Thu Oct 15 00:00:00 GMT 2015 KChapman Eastern redbud Cercis canadensis Leaves Unfolding (Late) 41.677900000000000 -87.802330000000000 54364
Thu Oct 15 00:00:00 GMT 2015 KChapman Eastern redbud Cercis canadensis Leaves Changing Color (Early) 41.677900000000000 -87.802330000000000 54365
Thu Oct 15 00:00:00 GMT 2015 KChapman Eastern redbud Cercis canadensis Leaves Dropping (None) 41.677900000000000 -87.802330000000000 54366
Thu Oct 15 00:00:00 GMT 2015 KChapman Eastern redbud Cercis canadensis Flowers (None) 41.677900000000000 -87.802330000000000 54367
Thu Oct 15 00:00:00 GMT 2015 KChapman Eastern redbud Cercis canadensis Fruit (None) 41.677900000000000 -87.802330000000000 54368
Thu Oct 22 00:00:00 GMT 2015 Dutch_2736 Eastern redbud Cercis canadensis Leaves Unfolding (Early) 41.401350000000000 -92.919984000000000 54834
Thu Oct 22 00:00:00 GMT 2015 Dutch_2736 Eastern redbud Cercis canadensis Leaves Changing Color (Middle) 41.401350000000000 -92.919984000000000 54835
Thu Oct 22 00:00:00 GMT 2015 Dutch_2736 Eastern redbud Cercis canadensis Leaves Dropping (None) 41.401350000000000 -92.919984000000000 54836
Thu Oct 22 00:00:00 GMT 2015 Dutch_2736 Eastern redbud Cercis canadensis Flowers (None) 41.401350000000000 -92.919984000000000 54837
Thu Oct 22 00:00:00 GMT 2015 Dutch_2736 Eastern redbud Cercis canadensis Fruit (None) 41.401350000000000 -92.919984000000000 54838
Tue Oct 13 00:00:00 GMT 2015 Angelyn Eastern redbud Cercis canadensis 50% Color 35.619100000000000 -82.765100000000000 54959
Sun Oct 25 00:00:00 GMT 2015 Angelyn Eastern redbud Cercis canadensis 50% Leaf Fall 35.619100000000000 -82.765100000000000 54960
Mon Oct 26 00:00:00 GMT 2015 Dutch_2736 Eastern redbud Cercis canadensis Leaves Unfolding (Late) 41.401198000000000 -92.920266000000000 54992
Mon Oct 26 00:00:00 GMT 2015 Dutch_2736 Eastern redbud Cercis canadensis Leaves Changing Color (Middle) 41.401198000000000 -92.920266000000000 54993
Mon Oct 26 00:00:00 GMT 2015 Dutch_2736 Eastern redbud Cercis canadensis Leaves Dropping (Middle) 41.401198000000000 -92.920266000000000 54994
Mon Oct 26 00:00:00 GMT 2015 Dutch_2736 Eastern redbud Cercis canadensis Flowers (None) 41.401198000000000 -92.920266000000000 54995
Mon Oct 26 00:00:00 GMT 2015 Dutch_2736 Eastern redbud Cercis canadensis Fruit (None) 41.401198000000000 -92.920266000000000 54996
Tue Oct 27 00:00:00 GMT 2015 mrsfrey Eastern redbud Cercis canadensis 50% Color 41.131790000000000 -73.521880000000000 55031
Fri Nov 06 00:00:00 GMT 2015 mrsfrey Eastern redbud Cercis canadensis 50% Leaf Fall 41.131790000000000 -73.521880000000000 56605
Tue Nov 03 00:00:00 GMT 2015 kelseynewhouse7 Eastern redbud Cercis canadensis 50% Color 40.000000000000000 -100.000000000000000 57367
Tue Nov 03 00:00:00 GMT 2015 kelseynewhouse7 Eastern redbud Cercis canadensis 50% Leaf Fall 40.000000000000000 -100.000000000000000 57368
Fri Nov 13 00:00:00 GMT 2015 lcyliax Eastern redbud Cercis canadensis Leaves Unfolding (None) 39.160210000000000 -86.522840000000000 57385
Fri Nov 13 00:00:00 GMT 2015 lcyliax Eastern redbud Cercis canadensis Leaves Changing Color (Late) 39.160210000000000 -86.522840000000000 57386
Fri Nov 13 00:00:00 GMT 2015 lcyliax Eastern redbud Cercis canadensis Leaves Dropping (Late) 39.160210000000000 -86.522840000000000 57387
Fri Nov 13 00:00:00 GMT 2015 lcyliax Eastern redbud Cercis canadensis Flowers (None) 39.160210000000000 -86.522840000000000 57388
Fri Nov 13 00:00:00 GMT 2015 lcyliax Eastern redbud Cercis canadensis Fruit (None) 39.160210000000000 -86.522840000000000 57389
Tue Oct 20 00:00:00 GMT 2015 ekopinsk Eastern redbud Cercis canadensis 50% Color 39.160000000000000 -86.500000000000000 57455
Tue Nov 03 00:00:00 GMT 2015 ekopinsk Eastern redbud Cercis canadensis 50% Leaf Fall 39.160000000000000 -86.500000000000000 57456
Mon Oct 05 00:00:00 GMT 2015 Danisolman Eastern redbud Cercis canadensis 50% Color 39.167460000000000 -86.523570000000000 57514
Mon Oct 26 00:00:00 GMT 2015 Danisolman Eastern redbud Cercis canadensis 50% Leaf Fall 39.167460000000000 -86.523570000000000 57515
Sat Oct 03 00:00:00 GMT 2015 el22 Eastern redbud Cercis canadensis Bud Burst 39.154580000000000 -86.493300000000000 57493
Thu Oct 15 00:00:00 GMT 2015 el22 Eastern redbud Cercis canadensis 50% Color 39.154580000000000 -86.493300000000000 57494
Thu Oct 22 00:00:00 GMT 2015 el22 Eastern redbud Cercis canadensis 50% Leaf Fall 39.154580000000000 -86.493300000000000 57495
Tue Oct 13 00:00:00 GMT 2015 psaunder Eastern redbud Cercis canadensis 50% Color 40.860626000000000 -82.320213000000000 61416
Tue Nov 10 00:00:00 GMT 2015 psaunder Eastern redbud Cercis canadensis 50% Leaf Fall 40.860626000000000 -82.320213000000000 61417
Wed Jan 18 00:00:00 GMT 2017 redbud2017 Eastern redbud Cercis canadensis Leaves Unfolding (None) 39.789011000000000 -105.030708000000000 74469
Wed Jan 18 00:00:00 GMT 2017 redbud2017 Eastern redbud Cercis canadensis Leaves Changing Color (None) 39.789011000000000 -105.030708000000000 74470
Wed Jan 18 00:00:00 GMT 2017 redbud2017 Eastern redbud Cercis canadensis Leaves Dropping (None) 39.789011000000000 -105.030708000000000 74471
Wed Jan 18 00:00:00 GMT 2017 redbud2017 Eastern redbud Cercis canadensis Flowers (None) 39.789011000000000 -105.030708000000000 74472
Wed Jan 18 00:00:00 GMT 2017 redbud2017 Eastern redbud Cercis canadensis Fruit (None) 39.789011000000000 -105.030708000000000 74473
Tue Jan 31 00:00:00 GMT 2017 bkanoy_MS_Raingarden_reporter28 Eastern redbud Cercis canadensis Leaves Unfolding (None) 35.969132000000000 -78.945415000000000 74652
Tue Jan 31 00:00:00 GMT 2017 bkanoy_MS_Raingarden_reporter28 Eastern redbud Cercis canadensis Leaves Changing Color (None) 35.969132000000000 -78.945415000000000 74653
Tue Jan 31 00:00:00 GMT 2017 bkanoy_MS_Raingarden_reporter28 Eastern redbud Cercis canadensis Leaves Dropping (Late) 35.969132000000000 -78.945415000000000 74654
Tue Jan 31 00:00:00 GMT 2017 bkanoy_MS_Raingarden_reporter28 Eastern redbud Cercis canadensis Flowers (None) 35.969132000000000 -78.945415000000000 74655
Tue Jan 31 00:00:00 GMT 2017 bkanoy_MS_Raingarden_reporter28 Eastern redbud Cercis canadensis Fruit (None) 35.969132000000000 -78.945415000000000 74656
Thu Feb 09 00:00:00 GMT 2017 liveoak78209 Eastern redbud Cercis canadensis Bud Burst 29.372602000000000 -98.426514000000000 74926
Thu Feb 23 00:00:00 GMT 2017 bkanoy_MS_Raingarden_reporter28 Eastern redbud Cercis canadensis Leaves Unfolding (None) 35.969120000000000 -78.945410000000000 75025
Thu Feb 23 00:00:00 GMT 2017 bkanoy_MS_Raingarden_reporter28 Eastern redbud Cercis canadensis Leaves Changing Color (None) 35.969120000000000 -78.945410000000000 75026
Thu Feb 23 00:00:00 GMT 2017 bkanoy_MS_Raingarden_reporter28 Eastern redbud Cercis canadensis Leaves Dropping (None) 35.969120000000000 -78.945410000000000 75027
Thu Feb 23 00:00:00 GMT 2017 bkanoy_MS_Raingarden_reporter28 Eastern redbud Cercis canadensis Flowers (None) 35.969120000000000 -78.945410000000000 75028
Thu Feb 23 00:00:00 GMT 2017 bkanoy_MS_Raingarden_reporter28 Eastern redbud Cercis canadensis Fruit (None) 35.969120000000000 -78.945410000000000 75029
Fri Mar 03 00:00:00 GMT 2017 bthomps1 Eastern redbud Cercis canadensis Bud Burst 38.195980000000000 -85.534280000000000 75193
Thu Mar 02 00:00:00 GMT 2017 d4thman Eastern redbud Cercis canadensis Bud Burst 36.006750000000000 -96.166880000000000 75206
Fri Mar 03 00:00:00 GMT 2017 ehsmith62 Eastern redbud Cercis canadensis Bud Burst 39.172010000000000 -77.272510000000000 75207
Mon Mar 06 00:00:00 GMT 2017 bkanoy_MS_Raingarden_reporter28 Eastern redbud Cercis canadensis Bud Burst 35.968525000000000 -78.945072000000000 75222
Tue Mar 07 00:00:00 GMT 2017 mikewenger Eastern redbud Cercis canadensis Bud Burst 38.764792000000000 -78.147072000000000 75311
Sun Feb 26 00:00:00 GMT 2017 geodruid Eastern redbud Cercis canadensis Bud Burst 38.438290000000000 -78.069950000000000 75317
Thu Mar 09 00:00:00 GMT 2017 jeanmells Eastern redbud Cercis canadensis Full Flower 35.797400000000000 -78.634050000000000 75395
Thu Mar 09 00:00:00 GMT 2017 phloxfly Eastern redbud Cercis canadensis Full Flower 36.300950000000000 -95.577990000000000 75402
Sun Mar 12 00:00:00 GMT 2017 O2Factories Eastern redbud Cercis canadensis Leaves Unfolding (None) 35.896276300000000 -86.410090300000000 75431
Sun Mar 12 00:00:00 GMT 2017 O2Factories Eastern redbud Cercis canadensis Leaves Changing Color (None) 35.896276300000000 -86.410090300000000 75432
Sun Mar 12 00:00:00 GMT 2017 O2Factories Eastern redbud Cercis canadensis Leaves Dropping (None) 35.896276300000000 -86.410090300000000 75433
Sun Mar 12 00:00:00 GMT 2017 O2Factories Eastern redbud Cercis canadensis Flowers (Early) 35.896276300000000 -86.410090300000000 75434
Sun Mar 12 00:00:00 GMT 2017 O2Factories Eastern redbud Cercis canadensis Fruit (None) 35.896276300000000 -86.410090300000000 75435
Mon Mar 20 00:00:00 GMT 2017 redbud2017 Eastern redbud Cercis canadensis Leaves Unfolding (Middle) 39.788964000000000 -105.030589200000000 76021
Mon Mar 20 00:00:00 GMT 2017 redbud2017 Eastern redbud Cercis canadensis Leaves Changing Color (Middle) 39.788964000000000 -105.030589200000000 76022
Mon Mar 20 00:00:00 GMT 2017 redbud2017 Eastern redbud Cercis canadensis Leaves Dropping (None) 39.788964000000000 -105.030589200000000 76023
Mon Mar 20 00:00:00 GMT 2017 redbud2017 Eastern redbud Cercis canadensis Flowers (Middle) 39.788964000000000 -105.030589200000000 76024
Mon Mar 20 00:00:00 GMT 2017 redbud2017 Eastern redbud Cercis canadensis Fruit (None) 39.788964000000000 -105.030589200000000 76025
Mon Mar 20 00:00:00 GMT 2017 Scutacarus1964 Eastern redbud Cercis canadensis Bud Burst 39.398760000000000 -101.029760000000000 76027

*All downloadable materials require the free Adobe Reader.